<?xml version="1.0" encoding="UTF-8" standalone="no" ?>
<gpx xmlns="http://www.topografix.com/GPX/1/1" xmlns:xsi="http://www.w3.org/2001/XMLSchema-instance" xsi:schemaLocation="http://www.topografix.com/GPX/1/1 http://www.topografix.com/GPX/1/1/gpx.xsd" version="1.1" creator="VisuGPX - https://www.visugpx.com">
  <metadata>
    <name>Mt St Odile Sud</name>
  </metadata>
  <trk>
    <name><![CDATA[Mt St Odile Sud]]></name>
    <trkseg>
      <trkpt lat="48.43463" lon="7.41774">
        <ele>580.63060721468</ele>
        <time>2022-04-28T14:23:22.000Z</time>
      </trkpt>
      <trkpt lat="48.4346" lon="7.41783">
        <ele>580.7738048288</ele>
        <time>2022-04-28T14:23:22.001Z</time>
      </trkpt>
      <trkpt lat="48.43464" lon="7.41789">
        <ele>580.65835574051</ele>
        <time>2022-04-28T14:23:22.003Z</time>
      </trkpt>
      <trkpt lat="48.43467" lon="7.41804">
        <ele>580.52305022957</ele>
        <time>2022-04-28T14:23:22.007Z</time>
      </trkpt>
      <trkpt lat="48.43464" lon="7.41831">
        <ele>580.56149871899</ele>
        <time>2022-04-28T14:23:22.014Z</time>
      </trkpt>
      <trkpt lat="48.43445" lon="7.419">
        <ele>580.67522882743</ele>
        <time>2022-04-28T14:23:22.029Z</time>
      </trkpt>
      <trkpt lat="48.43444" lon="7.41918">
        <ele>580.40765248982</ele>
        <time>2022-04-28T14:23:22.045Z</time>
      </trkpt>
      <trkpt lat="48.43448" lon="7.41935">
        <ele>579.85081004071</ele>
        <time>2022-04-28T14:23:22.063Z</time>
      </trkpt>
      <trkpt lat="48.43454" lon="7.41946">
        <ele>579.05567501617</ele>
        <time>2022-04-28T14:23:22.083Z</time>
      </trkpt>
      <trkpt lat="48.4346" lon="7.41954">
        <ele>578.03992101525</ele>
        <time>2022-04-28T14:23:22.104Z</time>
      </trkpt>
      <trkpt lat="48.43472" lon="7.41961">
        <ele>576.75780190377</ele>
        <time>2022-04-28T14:23:22.127Z</time>
      </trkpt>
      <trkpt lat="48.43499" lon="7.41966">
        <ele>574.84469950195</ele>
        <time>2022-04-28T14:23:22.155Z</time>
      </trkpt>
      <trkpt lat="48.43521" lon="7.41962">
        <ele>572.75906148012</ele>
        <time>2022-04-28T14:23:22.186Z</time>
      </trkpt>
      <trkpt lat="48.43535" lon="7.41954">
        <ele>570.79137953115</ele>
        <time>2022-04-28T14:23:22.220Z</time>
      </trkpt>
      <trkpt lat="48.43545" lon="7.41935">
        <ele>569.03067923971</ele>
        <time>2022-04-28T14:23:22.256Z</time>
      </trkpt>
      <trkpt lat="48.43563" lon="7.41837">
        <ele>567.76430063795</ele>
        <time>2022-04-28T14:23:22.303Z</time>
      </trkpt>
      <trkpt lat="48.43568" lon="7.4182">
        <ele>566.257741956</ele>
        <time>2022-04-28T14:23:22.352Z</time>
      </trkpt>
      <trkpt lat="48.43588" lon="7.41777">
        <ele>564.42971118341</ele>
        <time>2022-04-28T14:23:22.406Z</time>
      </trkpt>
      <trkpt lat="48.43594" lon="7.41754">
        <ele>562.60095712367</ele>
        <time>2022-04-28T14:23:22.463Z</time>
      </trkpt>
      <trkpt lat="48.43603" lon="7.4169">
        <ele>560.71478019169</ele>
        <time>2022-04-28T14:23:22.527Z</time>
      </trkpt>
      <trkpt lat="48.43606" lon="7.41682">
        <ele>558.82159539032</ele>
        <time>2022-04-28T14:23:22.592Z</time>
      </trkpt>
      <trkpt lat="48.43611" lon="7.41679">
        <ele>556.88571249461</ele>
        <time>2022-04-28T14:23:22.658Z</time>
      </trkpt>
      <trkpt lat="48.43618" lon="7.41681">
        <ele>554.98264623433</ele>
        <time>2022-04-28T14:23:22.725Z</time>
      </trkpt>
      <trkpt lat="48.43624" lon="7.41689">
        <ele>553.12694034949</ele>
        <time>2022-04-28T14:23:22.793Z</time>
      </trkpt>
      <trkpt lat="48.43642" lon="7.41742">
        <ele>551.23822458135</ele>
        <time>2022-04-28T14:23:22.868Z</time>
      </trkpt>
      <trkpt lat="48.43668" lon="7.4178">
        <ele>548.88999667716</ele>
        <time>2022-04-28T14:23:22.948Z</time>
      </trkpt>
      <trkpt lat="48.43671" lon="7.41797">
        <ele>546.69140573108</ele>
        <time>2022-04-28T14:23:23.030Z</time>
      </trkpt>
      <trkpt lat="48.43671" lon="7.41815">
        <ele>544.49788572003</ele>
        <time>2022-04-28T14:23:23.114Z</time>
      </trkpt>
      <trkpt lat="48.43667" lon="7.41912">
        <ele>541.64646651522</ele>
        <time>2022-04-28T14:23:23.209Z</time>
      </trkpt>
      <trkpt lat="48.4367" lon="7.41968">
        <ele>538.65321777915</ele>
        <time>2022-04-28T14:23:23.310Z</time>
      </trkpt>
      <trkpt lat="48.43666" lon="7.41984">
        <ele>536.04003762018</ele>
        <time>2022-04-28T14:23:23.412Z</time>
      </trkpt>
      <trkpt lat="48.43654" lon="7.42011">
        <ele>533.69140275267</ele>
        <time>2022-04-28T14:23:23.518Z</time>
      </trkpt>
      <trkpt lat="48.43651" lon="7.42027">
        <ele>531.25360963259</ele>
        <time>2022-04-28T14:23:23.626Z</time>
      </trkpt>
      <trkpt lat="48.43653" lon="7.42038">
        <ele>528.83117425176</ele>
        <time>2022-04-28T14:23:23.735Z</time>
      </trkpt>
      <trkpt lat="48.43659" lon="7.42044">
        <ele>526.35438276426</ele>
        <time>2022-04-28T14:23:23.845Z</time>
      </trkpt>
      <trkpt lat="48.43667" lon="7.42047">
        <ele>523.79851190185</ele>
        <time>2022-04-28T14:23:23.956Z</time>
      </trkpt>
      <trkpt lat="48.43677" lon="7.42045">
        <ele>521.19868506134</ele>
        <time>2022-04-28T14:23:24.069Z</time>
      </trkpt>
      <trkpt lat="48.43738" lon="7.42004">
        <ele>518.55864820519</ele>
        <time>2022-04-28T14:23:24.193Z</time>
      </trkpt>
      <trkpt lat="48.43816" lon="7.41932">
        <ele>515.44559930151</ele>
        <time>2022-04-28T14:23:24.331Z</time>
      </trkpt>
      <trkpt lat="48.43829" lon="7.4191">
        <ele>512.68852666303</ele>
        <time>2022-04-28T14:23:24.473Z</time>
      </trkpt>
      <trkpt lat="48.43833" lon="7.41899">
        <ele>510.10468129575</ele>
        <time>2022-04-28T14:23:24.616Z</time>
      </trkpt>
      <trkpt lat="48.43837" lon="7.41876">
        <ele>507.62138684736</ele>
        <time>2022-04-28T14:23:24.761Z</time>
      </trkpt>
      <trkpt lat="48.43841" lon="7.41771">
        <ele>505.00666523484</ele>
        <time>2022-04-28T14:23:24.918Z</time>
      </trkpt>
      <trkpt lat="48.43838" lon="7.41748">
        <ele>502.63277183504</ele>
        <time>2022-04-28T14:23:25.077Z</time>
      </trkpt>
      <trkpt lat="48.43831" lon="7.41728">
        <ele>500.3443250486</ele>
        <time>2022-04-28T14:23:25.238Z</time>
      </trkpt>
      <trkpt lat="48.43815" lon="7.41698">
        <ele>498.24415787748</ele>
        <time>2022-04-28T14:23:25.404Z</time>
      </trkpt>
      <trkpt lat="48.43804" lon="7.4167">
        <ele>496.12154962398</ele>
        <time>2022-04-28T14:23:25.573Z</time>
      </trkpt>
      <trkpt lat="48.43794" lon="7.41623">
        <ele>493.90721532707</ele>
        <time>2022-04-28T14:23:25.747Z</time>
      </trkpt>
      <trkpt lat="48.43782" lon="7.4159">
        <ele>491.85015859945</ele>
        <time>2022-04-28T14:23:25.925Z</time>
      </trkpt>
      <trkpt lat="48.43777" lon="7.41565">
        <ele>489.98144906932</ele>
        <time>2022-04-28T14:23:26.106Z</time>
      </trkpt>
      <trkpt lat="48.43779" lon="7.41556">
        <ele>488.15736157165</ele>
        <time>2022-04-28T14:23:26.288Z</time>
      </trkpt>
      <trkpt lat="48.43788" lon="7.41549">
        <ele>486.17078051002</ele>
        <time>2022-04-28T14:23:26.472Z</time>
      </trkpt>
      <trkpt lat="48.43797" lon="7.41551">
        <ele>484.28995669353</ele>
        <time>2022-04-28T14:23:26.657Z</time>
      </trkpt>
      <trkpt lat="48.43821" lon="7.41589">
        <ele>482.49851891722</ele>
        <time>2022-04-28T14:23:26.848Z</time>
      </trkpt>
      <trkpt lat="48.43854" lon="7.41632">
        <ele>480.69672904141</ele>
        <time>2022-04-28T14:23:27.046Z</time>
      </trkpt>
      <trkpt lat="48.43857" lon="7.41635">
        <ele>479.01029824911</ele>
        <time>2022-04-28T14:23:27.244Z</time>
      </trkpt>
      <trkpt lat="48.43869" lon="7.41647">
        <ele>477.24797799765</ele>
        <time>2022-04-28T14:23:27.445Z</time>
      </trkpt>
      <trkpt lat="48.43872" lon="7.41652">
        <ele>475.60341649815</ele>
        <time>2022-04-28T14:23:27.646Z</time>
      </trkpt>
      <trkpt lat="48.43927" lon="7.41723">
        <ele>473.41145731712</ele>
        <time>2022-04-28T14:23:27.859Z</time>
      </trkpt>
      <trkpt lat="48.43936" lon="7.41743">
        <ele>471.5418104203</ele>
        <time>2022-04-28T14:23:28.075Z</time>
      </trkpt>
      <trkpt lat="48.43942" lon="7.41762">
        <ele>469.7517877389</ele>
        <time>2022-04-28T14:23:28.293Z</time>
      </trkpt>
      <trkpt lat="48.43944" lon="7.41807">
        <ele>468.30960342923</ele>
        <time>2022-04-28T14:23:28.516Z</time>
      </trkpt>
      <trkpt lat="48.43948" lon="7.41823">
        <ele>466.66231272875</ele>
        <time>2022-04-28T14:23:28.740Z</time>
      </trkpt>
      <trkpt lat="48.43968" lon="7.41861">
        <ele>464.68209680038</ele>
        <time>2022-04-28T14:23:28.970Z</time>
      </trkpt>
      <trkpt lat="48.43978" lon="7.41887">
        <ele>462.97832416434</ele>
        <time>2022-04-28T14:23:29.203Z</time>
      </trkpt>
      <trkpt lat="48.43984" lon="7.41913">
        <ele>461.36623443539</ele>
        <time>2022-04-28T14:23:29.439Z</time>
      </trkpt>
      <trkpt lat="48.4399" lon="7.42006">
        <ele>459.57871549262</ele>
        <time>2022-04-28T14:23:29.685Z</time>
      </trkpt>
      <trkpt lat="48.4399" lon="7.4206">
        <ele>457.82093831593</ele>
        <time>2022-04-28T14:23:29.936Z</time>
      </trkpt>
      <trkpt lat="48.43995" lon="7.42119">
        <ele>455.96378981651</ele>
        <time>2022-04-28T14:23:30.194Z</time>
      </trkpt>
      <trkpt lat="48.43995" lon="7.42163">
        <ele>454.11239756576</ele>
        <time>2022-04-28T14:23:30.456Z</time>
      </trkpt>
      <trkpt lat="48.43991" lon="7.42224">
        <ele>452.38663265643</ele>
        <time>2022-04-28T14:23:30.725Z</time>
      </trkpt>
      <trkpt lat="48.43991" lon="7.42224">
        <ele>450.73751194996</ele>
        <time>2022-04-28T14:23:30.994Z</time>
      </trkpt>
      <trkpt lat="48.43984" lon="7.42284">
        <ele>448.72672061762</ele>
        <time>2022-04-28T14:23:31.270Z</time>
      </trkpt>
      <trkpt lat="48.43974" lon="7.42312">
        <ele>446.99765081722</ele>
        <time>2022-04-28T14:23:31.549Z</time>
      </trkpt>
      <trkpt lat="48.43945" lon="7.42356">
        <ele>445.42370441594</ele>
        <time>2022-04-28T14:23:31.834Z</time>
      </trkpt>
      <trkpt lat="48.43921" lon="7.42394">
        <ele>443.60445069967</ele>
        <time>2022-04-28T14:23:32.125Z</time>
      </trkpt>
      <trkpt lat="48.439" lon="7.42415">
        <ele>441.63512455107</ele>
        <time>2022-04-28T14:23:32.420Z</time>
      </trkpt>
      <trkpt lat="48.43875" lon="7.42423">
        <ele>439.78965568693</ele>
        <time>2022-04-28T14:23:32.719Z</time>
      </trkpt>
      <trkpt lat="48.43818" lon="7.42418">
        <ele>437.76712209004</ele>
        <time>2022-04-28T14:23:33.027Z</time>
      </trkpt>
      <trkpt lat="48.43739" lon="7.42408">
        <ele>435.42246978517</ele>
        <time>2022-04-28T14:23:33.348Z</time>
      </trkpt>
      <trkpt lat="48.43686" lon="7.42387">
        <ele>433.66734490992</ele>
        <time>2022-04-28T14:23:33.678Z</time>
      </trkpt>
      <trkpt lat="48.43675" lon="7.42388">
        <ele>431.69818251427</ele>
        <time>2022-04-28T14:23:34.010Z</time>
      </trkpt>
      <trkpt lat="48.43653" lon="7.42404">
        <ele>429.42620899702</ele>
        <time>2022-04-28T14:23:34.345Z</time>
      </trkpt>
      <trkpt lat="48.43651" lon="7.42413">
        <ele>427.04438437424</ele>
        <time>2022-04-28T14:23:34.681Z</time>
      </trkpt>
      <trkpt lat="48.43652" lon="7.42424">
        <ele>424.50060021843</ele>
        <time>2022-04-28T14:23:35.019Z</time>
      </trkpt>
      <trkpt lat="48.43657" lon="7.42435">
        <ele>421.76279695833</ele>
        <time>2022-04-28T14:23:35.358Z</time>
      </trkpt>
      <trkpt lat="48.43665" lon="7.42438">
        <ele>418.96150685793</ele>
        <time>2022-04-28T14:23:35.698Z</time>
      </trkpt>
      <trkpt lat="48.43676" lon="7.42431">
        <ele>416.19871953474</ele>
        <time>2022-04-28T14:23:36.040Z</time>
      </trkpt>
      <trkpt lat="48.43689" lon="7.42417">
        <ele>413.36033526534</ele>
        <time>2022-04-28T14:23:36.385Z</time>
      </trkpt>
      <trkpt lat="48.43703" lon="7.42417">
        <ele>410.35003410906</ele>
        <time>2022-04-28T14:23:36.732Z</time>
      </trkpt>
      <trkpt lat="48.43813" lon="7.42478">
        <ele>406.60339423104</ele>
        <time>2022-04-28T14:23:37.098Z</time>
      </trkpt>
      <trkpt lat="48.43856" lon="7.42508">
        <ele>403.38869021036</ele>
        <time>2022-04-28T14:23:37.471Z</time>
      </trkpt>
      <trkpt lat="48.43894" lon="7.42538">
        <ele>399.64197850297</ele>
        <time>2022-04-28T14:23:37.851Z</time>
      </trkpt>
      <trkpt lat="48.4392" lon="7.42549">
        <ele>395.95130827791</ele>
        <time>2022-04-28T14:23:38.236Z</time>
      </trkpt>
      <trkpt lat="48.4394" lon="7.42547">
        <ele>392.57133286841</ele>
        <time>2022-04-28T14:23:38.624Z</time>
      </trkpt>
      <trkpt lat="48.43983" lon="7.42526">
        <ele>388.97529940092</ele>
        <time>2022-04-28T14:23:39.019Z</time>
      </trkpt>
      <trkpt lat="48.43983" lon="7.42526">
        <ele>385.74526948662</ele>
        <time>2022-04-28T14:23:39.414Z</time>
      </trkpt>
      <trkpt lat="48.44027" lon="7.42502">
        <ele>382.21684778535</ele>
        <time>2022-04-28T14:23:39.816Z</time>
      </trkpt>
      <trkpt lat="48.44112" lon="7.42413">
        <ele>378.58712875593</ele>
        <time>2022-04-28T14:23:40.235Z</time>
      </trkpt>
      <trkpt lat="48.44174" lon="7.42347">
        <ele>375.09285657493</ele>
        <time>2022-04-28T14:23:40.666Z</time>
      </trkpt>
      <trkpt lat="48.44183" lon="7.42316">
        <ele>372.06697621311</ele>
        <time>2022-04-28T14:23:41.101Z</time>
      </trkpt>
      <trkpt lat="48.44182" lon="7.42239">
        <ele>369.43305810813</ele>
        <time>2022-04-28T14:23:41.544Z</time>
      </trkpt>
      <trkpt lat="48.44185" lon="7.42225">
        <ele>366.78351746536</ele>
        <time>2022-04-28T14:23:41.989Z</time>
      </trkpt>
      <trkpt lat="48.44194" lon="7.42214">
        <ele>364.23783228058</ele>
        <time>2022-04-28T14:23:42.435Z</time>
      </trkpt>
      <trkpt lat="48.44206" lon="7.4221">
        <ele>361.88144698371</ele>
        <time>2022-04-28T14:23:42.883Z</time>
      </trkpt>
      <trkpt lat="48.44218" lon="7.42217">
        <ele>359.56454480898</ele>
        <time>2022-04-28T14:23:43.333Z</time>
      </trkpt>
      <trkpt lat="48.44268" lon="7.42262">
        <ele>356.99608023039</ele>
        <time>2022-04-28T14:23:43.793Z</time>
      </trkpt>
      <trkpt lat="48.44286" lon="7.42284">
        <ele>354.71875769425</ele>
        <time>2022-04-28T14:23:44.257Z</time>
      </trkpt>
      <trkpt lat="48.44288" lon="7.4229">
        <ele>352.7070497935</ele>
        <time>2022-04-28T14:23:44.721Z</time>
      </trkpt>
      <trkpt lat="48.44295" lon="7.42301">
        <ele>350.73585456813</ele>
        <time>2022-04-28T14:23:45.187Z</time>
      </trkpt>
      <trkpt lat="48.44307" lon="7.42334">
        <ele>348.6163670146</ele>
        <time>2022-04-28T14:23:45.657Z</time>
      </trkpt>
      <trkpt lat="48.44313" lon="7.42345">
        <ele>346.83659696192</ele>
        <time>2022-04-28T14:23:46.128Z</time>
      </trkpt>
      <trkpt lat="48.44324" lon="7.42357">
        <ele>345.16903787306</ele>
        <time>2022-04-28T14:23:46.602Z</time>
      </trkpt>
      <trkpt lat="48.44348" lon="7.42373">
        <ele>343.56227236256</ele>
        <time>2022-04-28T14:23:47.080Z</time>
      </trkpt>
      <trkpt lat="48.44368" lon="7.42386">
        <ele>341.97488776928</ele>
        <time>2022-04-28T14:23:47.561Z</time>
      </trkpt>
      <trkpt lat="48.44391" lon="7.42399">
        <ele>340.49097720176</ele>
        <time>2022-04-28T14:23:48.046Z</time>
      </trkpt>
      <trkpt lat="48.44405" lon="7.42404">
        <ele>339.00029579798</ele>
        <time>2022-04-28T14:23:48.534Z</time>
      </trkpt>
      <trkpt lat="48.44427" lon="7.42405">
        <ele>337.5288920252</ele>
        <time>2022-04-28T14:23:49.025Z</time>
      </trkpt>
      <trkpt lat="48.4447" lon="7.42397">
        <ele>336.02451281956</ele>
        <time>2022-04-28T14:23:49.523Z</time>
      </trkpt>
      <trkpt lat="48.4447" lon="7.42397">
        <ele>334.37517772791</ele>
        <time>2022-04-28T14:23:50.021Z</time>
      </trkpt>
      <trkpt lat="48.44477" lon="7.42397">
        <ele>332.63194965875</ele>
        <time>2022-04-28T14:23:50.520Z</time>
      </trkpt>
      <trkpt lat="48.4448" lon="7.42401">
        <ele>330.774437903</ele>
        <time>2022-04-28T14:23:51.020Z</time>
      </trkpt>
      <trkpt lat="48.44504" lon="7.42486">
        <ele>328.41625431478</ele>
        <time>2022-04-28T14:23:51.530Z</time>
      </trkpt>
      <trkpt lat="48.44512" lon="7.42506">
        <ele>326.32193924542</ele>
        <time>2022-04-28T14:23:52.042Z</time>
      </trkpt>
      <trkpt lat="48.44527" lon="7.42541">
        <ele>324.05957572389</ele>
        <time>2022-04-28T14:23:52.558Z</time>
      </trkpt>
      <trkpt lat="48.44537" lon="7.42575">
        <ele>321.62321801112</ele>
        <time>2022-04-28T14:23:53.078Z</time>
      </trkpt>
      <trkpt lat="48.44558" lon="7.42652">
        <ele>318.87425915596</ele>
        <time>2022-04-28T14:23:53.607Z</time>
      </trkpt>
      <trkpt lat="48.44572" lon="7.42765">
        <ele>316.03206057092</ele>
        <time>2022-04-28T14:23:54.149Z</time>
      </trkpt>
      <trkpt lat="48.44577" lon="7.42787">
        <ele>313.34585750811</ele>
        <time>2022-04-28T14:23:54.693Z</time>
      </trkpt>
      <trkpt lat="48.44591" lon="7.42824">
        <ele>310.60042623258</ele>
        <time>2022-04-28T14:23:55.242Z</time>
      </trkpt>
      <trkpt lat="48.44605" lon="7.42852">
        <ele>307.8239219014</ele>
        <time>2022-04-28T14:23:55.794Z</time>
      </trkpt>
      <trkpt lat="48.44639" lon="7.4291">
        <ele>304.91002763942</ele>
        <time>2022-04-28T14:23:56.355Z</time>
      </trkpt>
      <trkpt lat="48.44643" lon="7.42919">
        <ele>302.04249790513</ele>
        <time>2022-04-28T14:23:56.917Z</time>
      </trkpt>
      <trkpt lat="48.44722" lon="7.43135">
        <ele>298.70837009823</ele>
        <time>2022-04-28T14:23:57.505Z</time>
      </trkpt>
      <trkpt lat="48.44726" lon="7.43145">
        <ele>295.78368050573</ele>
        <time>2022-04-28T14:23:58.094Z</time>
      </trkpt>
      <trkpt lat="48.44833" lon="7.43444">
        <ele>292.05630844788</ele>
        <time>2022-04-28T14:23:58.719Z</time>
      </trkpt>
      <trkpt lat="48.44893" lon="7.43611">
        <ele>288.96056765098</ele>
        <time>2022-04-28T14:23:59.365Z</time>
      </trkpt>
      <trkpt lat="48.44893" lon="7.43611">
        <ele>286.10433900242</ele>
        <time>2022-04-28T14:24:00.011Z</time>
      </trkpt>
      <trkpt lat="48.44945" lon="7.43737">
        <ele>282.98032275692</ele>
        <time>2022-04-28T14:24:00.672Z</time>
      </trkpt>
      <trkpt lat="48.44984" lon="7.43815">
        <ele>280.16711841202</ele>
        <time>2022-04-28T14:24:01.344Z</time>
      </trkpt>
      <trkpt lat="48.45033" lon="7.43903">
        <ele>277.33961268978</ele>
        <time>2022-04-28T14:24:02.028Z</time>
      </trkpt>
      <trkpt lat="48.45104" lon="7.4404">
        <ele>274.68846931035</ele>
        <time>2022-04-28T14:24:02.731Z</time>
      </trkpt>
      <trkpt lat="48.45141" lon="7.44141">
        <ele>272.11003513223</ele>
        <time>2022-04-28T14:24:03.446Z</time>
      </trkpt>
      <trkpt lat="48.45178" lon="7.44297">
        <ele>269.45655468781</ele>
        <time>2022-04-28T14:24:04.178Z</time>
      </trkpt>
      <trkpt lat="48.4517" lon="7.44305">
        <ele>267.31875634789</ele>
        <time>2022-04-28T14:24:04.912Z</time>
      </trkpt>
      <trkpt lat="48.45169" lon="7.44311">
        <ele>265.31473378735</ele>
        <time>2022-04-28T14:24:05.647Z</time>
      </trkpt>
      <trkpt lat="48.45168" lon="7.44318">
        <ele>263.43527064067</ele>
        <time>2022-04-28T14:24:06.382Z</time>
      </trkpt>
      <trkpt lat="48.45172" lon="7.4433">
        <ele>261.67729794128</ele>
        <time>2022-04-28T14:24:07.119Z</time>
      </trkpt>
      <trkpt lat="48.45179" lon="7.44336">
        <ele>260.06911710921</ele>
        <time>2022-04-28T14:24:07.857Z</time>
      </trkpt>
      <trkpt lat="48.45185" lon="7.44336">
        <ele>258.56981459955</ele>
        <time>2022-04-28T14:24:08.596Z</time>
      </trkpt>
      <trkpt lat="48.45186" lon="7.44342">
        <ele>257.18484404613</ele>
        <time>2022-04-28T14:24:09.336Z</time>
      </trkpt>
      <trkpt lat="48.45186" lon="7.44342">
        <ele>255.87742681432</ele>
        <time>2022-04-28T14:24:10.076Z</time>
      </trkpt>
      <trkpt lat="48.45185" lon="7.44336">
        <ele>258.56981459955</ele>
        <time>2022-04-28T14:24:10.816Z</time>
      </trkpt>
      <trkpt lat="48.45193" lon="7.44327">
        <ele>253.46174551328</ele>
        <time>2022-04-28T14:24:11.558Z</time>
      </trkpt>
      <trkpt lat="48.45195" lon="7.44314">
        <ele>252.34641004794</ele>
        <time>2022-04-28T14:24:12.301Z</time>
      </trkpt>
      <trkpt lat="48.45192" lon="7.44302">
        <ele>251.27720418861</ele>
        <time>2022-04-28T14:24:13.046Z</time>
      </trkpt>
      <trkpt lat="48.45185" lon="7.44297">
        <ele>250.25318119595</ele>
        <time>2022-04-28T14:24:13.792Z</time>
      </trkpt>
      <trkpt lat="48.45178" lon="7.44297">
        <ele>269.45655468781</ele>
        <time>2022-04-28T14:24:14.539Z</time>
      </trkpt>
      <trkpt lat="48.4517" lon="7.44305">
        <ele>267.31875634789</ele>
        <time>2022-04-28T14:24:15.288Z</time>
      </trkpt>
      <trkpt lat="48.45169" lon="7.44311">
        <ele>265.31473378735</ele>
        <time>2022-04-28T14:24:16.037Z</time>
      </trkpt>
      <trkpt lat="48.45168" lon="7.44318">
        <ele>263.43527064067</ele>
        <time>2022-04-28T14:24:16.787Z</time>
      </trkpt>
      <trkpt lat="48.45172" lon="7.4433">
        <ele>261.67729794128</ele>
        <time>2022-04-28T14:24:17.538Z</time>
      </trkpt>
      <trkpt lat="48.45145" lon="7.44366">
        <ele>244.07731923991</ele>
        <time>2022-04-28T14:24:18.295Z</time>
      </trkpt>
      <trkpt lat="48.45097" lon="7.44417">
        <ele>242.98739427199</ele>
        <time>2022-04-28T14:24:19.062Z</time>
      </trkpt>
      <trkpt lat="48.45072" lon="7.44429">
        <ele>241.96403782288</ele>
        <time>2022-04-28T14:24:19.833Z</time>
      </trkpt>
      <trkpt lat="48.44897" lon="7.44427">
        <ele>240.62555872547</ele>
        <time>2022-04-28T14:24:20.632Z</time>
      </trkpt>
      <trkpt lat="48.44897" lon="7.44427">
        <ele>239.63769823332</ele>
        <time>2022-04-28T14:24:21.431Z</time>
      </trkpt>
      <trkpt lat="48.44743" lon="7.44424">
        <ele>238.67118705587</ele>
        <time>2022-04-28T14:24:22.254Z</time>
      </trkpt>
      <trkpt lat="48.44685" lon="7.44422">
        <ele>237.61300512201</ele>
        <time>2022-04-28T14:24:23.087Z</time>
      </trkpt>
      <trkpt lat="48.44669" lon="7.44425">
        <ele>236.73790580956</ele>
        <time>2022-04-28T14:24:23.922Z</time>
      </trkpt>
      <trkpt lat="48.44584" lon="7.44463">
        <ele>235.94118992034</ele>
        <time>2022-04-28T14:24:24.771Z</time>
      </trkpt>
      <trkpt lat="48.44503" lon="7.44501">
        <ele>234.9540271509</ele>
        <time>2022-04-28T14:24:25.634Z</time>
      </trkpt>
      <trkpt lat="48.44503" lon="7.44501">
        <ele>234.48656282491</ele>
        <time>2022-04-28T14:24:26.497Z</time>
      </trkpt>
      <trkpt lat="48.44346" lon="7.44573">
        <ele>233.74645784254</ele>
        <time>2022-04-28T14:24:27.386Z</time>
      </trkpt>
      <trkpt lat="48.44324" lon="7.44577">
        <ele>233.42207155025</ele>
        <time>2022-04-28T14:24:28.279Z</time>
      </trkpt>
      <trkpt lat="48.443" lon="7.44573">
        <ele>233.34212904709</ele>
        <time>2022-04-28T14:24:29.176Z</time>
      </trkpt>
      <trkpt lat="48.44286" lon="7.44564">
        <ele>233.62412623854</ele>
        <time>2022-04-28T14:24:30.075Z</time>
      </trkpt>
      <trkpt lat="48.44256" lon="7.44527">
        <ele>234.20756248711</ele>
        <time>2022-04-28T14:24:30.980Z</time>
      </trkpt>
      <trkpt lat="48.44196" lon="7.4441">
        <ele>235.1392122027</ele>
        <time>2022-04-28T14:24:31.901Z</time>
      </trkpt>
      <trkpt lat="48.44181" lon="7.44388">
        <ele>236.2122350403</ele>
        <time>2022-04-28T14:24:32.826Z</time>
      </trkpt>
      <trkpt lat="48.4417" lon="7.44381">
        <ele>237.47768197721</ele>
        <time>2022-04-28T14:24:33.752Z</time>
      </trkpt>
      <trkpt lat="48.44154" lon="7.44378">
        <ele>238.96362629691</ele>
        <time>2022-04-28T14:24:34.681Z</time>
      </trkpt>
      <trkpt lat="48.44138" lon="7.44383">
        <ele>240.54718917036</ele>
        <time>2022-04-28T14:24:35.613Z</time>
      </trkpt>
      <trkpt lat="48.43719" lon="7.4463">
        <ele>242.7312973484</ele>
        <time>2022-04-28T14:24:36.617Z</time>
      </trkpt>
      <trkpt lat="48.43689" lon="7.4465">
        <ele>244.46713509352</ele>
        <time>2022-04-28T14:24:37.626Z</time>
      </trkpt>
      <trkpt lat="48.43689" lon="7.4465">
        <ele>246.51026407463</ele>
        <time>2022-04-28T14:24:38.635Z</time>
      </trkpt>
      <trkpt lat="48.43248" lon="7.44937">
        <ele>249.29424349139</ele>
        <time>2022-04-28T14:24:39.721Z</time>
      </trkpt>
      <trkpt lat="48.43087" lon="7.45032">
        <ele>251.68565170806</ele>
        <time>2022-04-28T14:24:40.835Z</time>
      </trkpt>
      <trkpt lat="48.43061" lon="7.45058">
        <ele>254.12283505006</ele>
        <time>2022-04-28T14:24:41.954Z</time>
      </trkpt>
      <trkpt lat="48.43048" lon="7.45083">
        <ele>256.49583411689</ele>
        <time>2022-04-28T14:24:43.076Z</time>
      </trkpt>
      <trkpt lat="48.42983" lon="7.45276">
        <ele>259.21139012914</ele>
        <time>2022-04-28T14:24:44.221Z</time>
      </trkpt>
      <trkpt lat="48.42975" lon="7.45288">
        <ele>261.70960957533</ele>
        <time>2022-04-28T14:24:45.368Z</time>
      </trkpt>
      <trkpt lat="48.42965" lon="7.453">
        <ele>264.22536500708</ele>
        <time>2022-04-28T14:24:46.517Z</time>
      </trkpt>
      <trkpt lat="48.42946" lon="7.45304">
        <ele>266.78671632064</ele>
        <time>2022-04-28T14:24:47.669Z</time>
      </trkpt>
      <trkpt lat="48.42946" lon="7.45304">
        <ele>269.166854389</ele>
        <time>2022-04-28T14:24:48.821Z</time>
      </trkpt>
      <trkpt lat="48.42925" lon="7.45302">
        <ele>271.61911909627</ele>
        <time>2022-04-28T14:24:49.976Z</time>
      </trkpt>
      <trkpt lat="48.42896" lon="7.45287">
        <ele>274.03026537527</ele>
        <time>2022-04-28T14:24:51.136Z</time>
      </trkpt>
      <trkpt lat="48.42855" lon="7.45255">
        <ele>276.2564647157</ele>
        <time>2022-04-28T14:24:52.304Z</time>
      </trkpt>
      <trkpt lat="48.4284" lon="7.45241">
        <ele>278.30148990702</ele>
        <time>2022-04-28T14:24:53.475Z</time>
      </trkpt>
      <trkpt lat="48.42748" lon="7.45149">
        <ele>280.72096126157</ele>
        <time>2022-04-28T14:24:54.663Z</time>
      </trkpt>
      <trkpt lat="48.42733" lon="7.45135">
        <ele>282.430542035</ele>
        <time>2022-04-28T14:24:55.854Z</time>
      </trkpt>
      <trkpt lat="48.42714" lon="7.4512">
        <ele>283.9374169481</ele>
        <time>2022-04-28T14:24:57.048Z</time>
      </trkpt>
      <trkpt lat="48.42698" lon="7.45106">
        <ele>285.21658240665</ele>
        <time>2022-04-28T14:24:58.245Z</time>
      </trkpt>
      <trkpt lat="48.42688" lon="7.45096">
        <ele>286.32547342806</ele>
        <time>2022-04-28T14:24:59.444Z</time>
      </trkpt>
      <trkpt lat="48.42662" lon="7.45073">
        <ele>287.24366507977</ele>
        <time>2022-04-28T14:25:00.648Z</time>
      </trkpt>
      <trkpt lat="48.42658" lon="7.45068">
        <ele>287.96993669789</ele>
        <time>2022-04-28T14:25:01.853Z</time>
      </trkpt>
      <trkpt lat="48.42618" lon="7.45045">
        <ele>288.45180672989</ele>
        <time>2022-04-28T14:25:03.065Z</time>
      </trkpt>
      <trkpt lat="48.42595" lon="7.45038">
        <ele>288.74779497647</ele>
        <time>2022-04-28T14:25:04.281Z</time>
      </trkpt>
      <trkpt lat="48.42567" lon="7.45033">
        <ele>288.84869654498</ele>
        <time>2022-04-28T14:25:05.501Z</time>
      </trkpt>
      <trkpt lat="48.42547" lon="7.45033">
        <ele>288.72564441014</ele>
        <time>2022-04-28T14:25:06.724Z</time>
      </trkpt>
      <trkpt lat="48.42533" lon="7.45034">
        <ele>288.42659047083</ele>
        <time>2022-04-28T14:25:07.950Z</time>
      </trkpt>
      <trkpt lat="48.42484" lon="7.45048">
        <ele>287.8574064015</ele>
        <time>2022-04-28T14:25:09.184Z</time>
      </trkpt>
      <trkpt lat="48.42459" lon="7.45051">
        <ele>287.22645984613</ele>
        <time>2022-04-28T14:25:10.422Z</time>
      </trkpt>
      <trkpt lat="48.42445" lon="7.45052">
        <ele>286.44763693907</ele>
        <time>2022-04-28T14:25:11.662Z</time>
      </trkpt>
      <trkpt lat="48.42417" lon="7.45049">
        <ele>285.4486308975</ele>
        <time>2022-04-28T14:25:12.906Z</time>
      </trkpt>
      <trkpt lat="48.42395" lon="7.45047">
        <ele>284.39479407022</ele>
        <time>2022-04-28T14:25:14.154Z</time>
      </trkpt>
      <trkpt lat="48.42375" lon="7.4505">
        <ele>283.21754803457</ele>
        <time>2022-04-28T14:25:15.405Z</time>
      </trkpt>
      <trkpt lat="48.42356" lon="7.45055">
        <ele>281.92548507561</ele>
        <time>2022-04-28T14:25:16.659Z</time>
      </trkpt>
      <trkpt lat="48.42336" lon="7.45066">
        <ele>280.43997483742</ele>
        <time>2022-04-28T14:25:17.917Z</time>
      </trkpt>
      <trkpt lat="48.42315" lon="7.45067">
        <ele>278.8505784027</ele>
        <time>2022-04-28T14:25:19.178Z</time>
      </trkpt>
      <trkpt lat="48.42281" lon="7.45052">
        <ele>277.04593158178</ele>
        <time>2022-04-28T14:25:20.445Z</time>
      </trkpt>
      <trkpt lat="48.42258" lon="7.45051">
        <ele>275.16256371607</ele>
        <time>2022-04-28T14:25:21.715Z</time>
      </trkpt>
      <trkpt lat="48.42236" lon="7.45054">
        <ele>273.22172598914</ele>
        <time>2022-04-28T14:25:22.989Z</time>
      </trkpt>
      <trkpt lat="48.42228" lon="7.45058">
        <ele>271.26730521443</ele>
        <time>2022-04-28T14:25:24.264Z</time>
      </trkpt>
      <trkpt lat="48.42228" lon="7.45058">
        <ele>269.25892747145</ele>
        <time>2022-04-28T14:25:25.539Z</time>
      </trkpt>
      <trkpt lat="48.42218" lon="7.45064">
        <ele>267.11596747625</ele>
        <time>2022-04-28T14:25:26.816Z</time>
      </trkpt>
      <trkpt lat="48.42201" lon="7.45076">
        <ele>264.84865036449</ele>
        <time>2022-04-28T14:25:28.096Z</time>
      </trkpt>
      <trkpt lat="48.42191" lon="7.4508">
        <ele>262.64271719331</ele>
        <time>2022-04-28T14:25:29.378Z</time>
      </trkpt>
      <trkpt lat="48.4218" lon="7.45082">
        <ele>260.4263956316</ele>
        <time>2022-04-28T14:25:30.661Z</time>
      </trkpt>
      <trkpt lat="48.42107" lon="7.45084">
        <ele>258.12659101287</ele>
        <time>2022-04-28T14:25:31.956Z</time>
      </trkpt>
      <trkpt lat="48.42076" lon="7.45087">
        <ele>255.79926766784</ele>
        <time>2022-04-28T14:25:33.256Z</time>
      </trkpt>
      <trkpt lat="48.4205" lon="7.45093">
        <ele>253.40868449768</ele>
        <time>2022-04-28T14:25:34.560Z</time>
      </trkpt>
      <trkpt lat="48.41984" lon="7.45105">
        <ele>250.68697361247</ele>
        <time>2022-04-28T14:25:35.875Z</time>
      </trkpt>
      <trkpt lat="48.41949" lon="7.45116">
        <ele>248.29789082153</ele>
        <time>2022-04-28T14:25:37.196Z</time>
      </trkpt>
      <trkpt lat="48.4194" lon="7.45119">
        <ele>246.09435925959</ele>
        <time>2022-04-28T14:25:38.518Z</time>
      </trkpt>
      <trkpt lat="48.41856" lon="7.45147">
        <ele>243.47459082764</ele>
        <time>2022-04-28T14:25:39.854Z</time>
      </trkpt>
      <trkpt lat="48.41822" lon="7.45163">
        <ele>241.23102663806</ele>
        <time>2022-04-28T14:25:41.196Z</time>
      </trkpt>
      <trkpt lat="48.41801" lon="7.45173">
        <ele>239.24822215867</ele>
        <time>2022-04-28T14:25:42.541Z</time>
      </trkpt>
      <trkpt lat="48.41801" lon="7.45173">
        <ele>237.38333036355</ele>
        <time>2022-04-28T14:25:43.886Z</time>
      </trkpt>
      <trkpt lat="48.41796" lon="7.45176">
        <ele>235.59501155744</ele>
        <time>2022-04-28T14:25:45.232Z</time>
      </trkpt>
      <trkpt lat="48.41767" lon="7.45194">
        <ele>233.89128169349</ele>
        <time>2022-04-28T14:25:46.583Z</time>
      </trkpt>
      <trkpt lat="48.41751" lon="7.45205">
        <ele>232.29357982712</ele>
        <time>2022-04-28T14:25:47.937Z</time>
      </trkpt>
      <trkpt lat="48.41699" lon="7.45239">
        <ele>230.72390720245</ele>
        <time>2022-04-28T14:25:49.300Z</time>
      </trkpt>
      <trkpt lat="48.41665" lon="7.45259">
        <ele>229.32635654213</ele>
        <time>2022-04-28T14:25:50.669Z</time>
      </trkpt>
      <trkpt lat="48.41633" lon="7.45272">
        <ele>228.04334073957</ele>
        <time>2022-04-28T14:25:52.043Z</time>
      </trkpt>
      <trkpt lat="48.41599" lon="7.45283">
        <ele>226.7012313172</ele>
        <time>2022-04-28T14:25:53.423Z</time>
      </trkpt>
      <trkpt lat="48.41568" lon="7.45286">
        <ele>225.43598200505</ele>
        <time>2022-04-28T14:25:54.808Z</time>
      </trkpt>
      <trkpt lat="48.41495" lon="7.4528">
        <ele>224.23131190191</ele>
        <time>2022-04-28T14:25:56.204Z</time>
      </trkpt>
      <trkpt lat="48.41495" lon="7.4528">
        <ele>223.11092382191</ele>
        <time>2022-04-28T14:25:57.600Z</time>
      </trkpt>
      <trkpt lat="48.41468" lon="7.45276">
        <ele>222.05017171157</ele>
        <time>2022-04-28T14:25:59.001Z</time>
      </trkpt>
      <trkpt lat="48.41441" lon="7.45273">
        <ele>221.11810499919</ele>
        <time>2022-04-28T14:26:00.406Z</time>
      </trkpt>
      <trkpt lat="48.41441" lon="7.45273">
        <ele>220.0923472665</ele>
        <time>2022-04-28T14:26:01.811Z</time>
      </trkpt>
      <trkpt lat="48.41282" lon="7.45254">
        <ele>218.64398049015</ele>
        <time>2022-04-28T14:26:03.242Z</time>
      </trkpt>
      <trkpt lat="48.41215" lon="7.4525">
        <ele>217.42533426084</ele>
        <time>2022-04-28T14:26:04.683Z</time>
      </trkpt>
      <trkpt lat="48.41215" lon="7.4525">
        <ele>216.45966039627</ele>
        <time>2022-04-28T14:26:06.124Z</time>
      </trkpt>
      <trkpt lat="48.41162" lon="7.45246">
        <ele>215.4793113574</ele>
        <time>2022-04-28T14:26:07.574Z</time>
      </trkpt>
      <trkpt lat="48.41162" lon="7.45246">
        <ele>214.54723598298</ele>
        <time>2022-04-28T14:26:09.024Z</time>
      </trkpt>
      <trkpt lat="48.4111" lon="7.45237">
        <ele>213.56842743048</ele>
        <time>2022-04-28T14:26:10.482Z</time>
      </trkpt>
      <trkpt lat="48.411" lon="7.45231">
        <ele>212.65273916547</ele>
        <time>2022-04-28T14:26:11.942Z</time>
      </trkpt>
      <trkpt lat="48.41082" lon="7.45221">
        <ele>211.75857557544</ele>
        <time>2022-04-28T14:26:13.405Z</time>
      </trkpt>
      <trkpt lat="48.41082" lon="7.45221">
        <ele>210.8655698176</ele>
        <time>2022-04-28T14:26:14.868Z</time>
      </trkpt>
      <trkpt lat="48.4107" lon="7.45212">
        <ele>209.97229591825</ele>
        <time>2022-04-28T14:26:16.333Z</time>
      </trkpt>
      <trkpt lat="48.41068" lon="7.45219">
        <ele>209.07453461827</ele>
        <time>2022-04-28T14:26:17.799Z</time>
      </trkpt>
      <trkpt lat="48.41069" lon="7.45226">
        <ele>208.17794675402</ele>
        <time>2022-04-28T14:26:19.266Z</time>
      </trkpt>
      <trkpt lat="48.41083" lon="7.45258">
        <ele>207.23402786461</ele>
        <time>2022-04-28T14:26:20.737Z</time>
      </trkpt>
      <trkpt lat="48.41094" lon="7.45288">
        <ele>206.32435532149</ele>
        <time>2022-04-28T14:26:22.212Z</time>
      </trkpt>
      <trkpt lat="48.41094" lon="7.45301">
        <ele>205.46265510807</ele>
        <time>2022-04-28T14:26:23.688Z</time>
      </trkpt>
      <trkpt lat="48.41084" lon="7.45328">
        <ele>204.60119170678</ele>
        <time>2022-04-28T14:26:25.167Z</time>
      </trkpt>
      <trkpt lat="48.41074" lon="7.45359">
        <ele>203.68340488381</ele>
        <time>2022-04-28T14:26:26.650Z</time>
      </trkpt>
      <trkpt lat="48.41063" lon="7.45461">
        <ele>202.4648076661</ele>
        <time>2022-04-28T14:26:28.144Z</time>
      </trkpt>
      <trkpt lat="48.41058" lon="7.45543">
        <ele>201.67127841249</ele>
        <time>2022-04-28T14:26:29.647Z</time>
      </trkpt>
      <trkpt lat="48.41053" lon="7.4555">
        <ele>201.06329580899</ele>
        <time>2022-04-28T14:26:31.151Z</time>
      </trkpt>
      <trkpt lat="48.41044" lon="7.45551">
        <ele>200.50584422163</ele>
        <time>2022-04-28T14:26:32.656Z</time>
      </trkpt>
      <trkpt lat="48.40998" lon="7.4551">
        <ele>200.05914645697</ele>
        <time>2022-04-28T14:26:34.170Z</time>
      </trkpt>
      <trkpt lat="48.40998" lon="7.4551">
        <ele>199.63548755545</ele>
        <time>2022-04-28T14:26:35.684Z</time>
      </trkpt>
      <trkpt lat="48.40956" lon="7.45474">
        <ele>199.3106908717</ele>
        <time>2022-04-28T14:26:37.206Z</time>
      </trkpt>
      <trkpt lat="48.40894" lon="7.45414">
        <ele>198.89663635659</ele>
        <time>2022-04-28T14:26:38.739Z</time>
      </trkpt>
      <trkpt lat="48.40868" lon="7.45383">
        <ele>198.69004199615</ele>
        <time>2022-04-28T14:26:40.278Z</time>
      </trkpt>
      <trkpt lat="48.40845" lon="7.45355">
        <ele>198.56517565367</ele>
        <time>2022-04-28T14:26:41.821Z</time>
      </trkpt>
      <trkpt lat="48.40841" lon="7.45354">
        <ele>198.50200219854</ele>
        <time>2022-04-28T14:26:43.365Z</time>
      </trkpt>
      <trkpt lat="48.40838" lon="7.45357">
        <ele>198.49633778702</ele>
        <time>2022-04-28T14:26:44.910Z</time>
      </trkpt>
      <trkpt lat="48.4081" lon="7.45388">
        <ele>198.59336604335</ele>
        <time>2022-04-28T14:26:46.460Z</time>
      </trkpt>
      <trkpt lat="48.40797" lon="7.45398">
        <ele>198.75706698742</ele>
        <time>2022-04-28T14:26:48.013Z</time>
      </trkpt>
      <trkpt lat="48.40761" lon="7.45426">
        <ele>199.08044589403</ele>
        <time>2022-04-28T14:26:49.572Z</time>
      </trkpt>
      <trkpt lat="48.40759" lon="7.45416">
        <ele>199.29883220834</ele>
        <time>2022-04-28T14:26:51.132Z</time>
      </trkpt>
      <trkpt lat="48.40726" lon="7.45342">
        <ele>199.80324522973</ele>
        <time>2022-04-28T14:26:52.702Z</time>
      </trkpt>
      <trkpt lat="48.40717" lon="7.45326">
        <ele>200.07252246178</ele>
        <time>2022-04-28T14:26:54.274Z</time>
      </trkpt>
      <trkpt lat="48.40711" lon="7.45327">
        <ele>200.34122685407</ele>
        <time>2022-04-28T14:26:55.847Z</time>
      </trkpt>
      <trkpt lat="48.40705" lon="7.45331">
        <ele>200.62044805171</ele>
        <time>2022-04-28T14:26:57.421Z</time>
      </trkpt>
      <trkpt lat="48.40677" lon="7.45367">
        <ele>200.78534724558</ele>
        <time>2022-04-28T14:26:59.001Z</time>
      </trkpt>
      <trkpt lat="48.40676" lon="7.45378">
        <ele>201.09009531553</ele>
        <time>2022-04-28T14:27:00.582Z</time>
      </trkpt>
      <trkpt lat="48.40675" lon="7.45449">
        <ele>201.32659953195</ele>
        <time>2022-04-28T14:27:02.171Z</time>
      </trkpt>
      <trkpt lat="48.40672" lon="7.4547">
        <ele>201.64069358483</ele>
        <time>2022-04-28T14:27:03.762Z</time>
      </trkpt>
      <trkpt lat="48.40666" lon="7.45479">
        <ele>201.97042716115</ele>
        <time>2022-04-28T14:27:05.354Z</time>
      </trkpt>
      <trkpt lat="48.4066" lon="7.45488">
        <ele>202.32530744013</ele>
        <time>2022-04-28T14:27:06.948Z</time>
      </trkpt>
      <trkpt lat="48.40629" lon="7.45512">
        <ele>202.71047987768</ele>
        <time>2022-04-28T14:27:08.547Z</time>
      </trkpt>
      <trkpt lat="48.40629" lon="7.45512">
        <ele>203.03563289738</ele>
        <time>2022-04-28T14:27:10.146Z</time>
      </trkpt>
      <trkpt lat="48.40574" lon="7.45553">
        <ele>203.31593066871</ele>
        <time>2022-04-28T14:27:11.755Z</time>
      </trkpt>
      <trkpt lat="48.40574" lon="7.45553">
        <ele>203.63503876527</ele>
        <time>2022-04-28T14:27:13.364Z</time>
      </trkpt>
      <trkpt lat="48.40535" lon="7.45582">
        <ele>203.99213076595</ele>
        <time>2022-04-28T14:27:14.980Z</time>
      </trkpt>
      <trkpt lat="48.40535" lon="7.45582">
        <ele>204.30163980393</ele>
        <time>2022-04-28T14:27:16.596Z</time>
      </trkpt>
      <trkpt lat="48.40531" lon="7.45575">
        <ele>204.60474082652</ele>
        <time>2022-04-28T14:27:18.213Z</time>
      </trkpt>
      <trkpt lat="48.40525" lon="7.45573">
        <ele>204.90148371589</ele>
        <time>2022-04-28T14:27:19.831Z</time>
      </trkpt>
      <trkpt lat="48.40518" lon="7.45579">
        <ele>205.20160858967</ele>
        <time>2022-04-28T14:27:21.450Z</time>
      </trkpt>
      <trkpt lat="48.40516" lon="7.45591">
        <ele>205.48421570016</ele>
        <time>2022-04-28T14:27:23.071Z</time>
      </trkpt>
      <trkpt lat="48.40491" lon="7.45595">
        <ele>205.79991400488</ele>
        <time>2022-04-28T14:27:24.695Z</time>
      </trkpt>
      <trkpt lat="48.40462" lon="7.45598">
        <ele>206.14309689578</ele>
        <time>2022-04-28T14:27:26.324Z</time>
      </trkpt>
      <trkpt lat="48.40393" lon="7.45591">
        <ele>206.40616813205</ele>
        <time>2022-04-28T14:27:27.964Z</time>
      </trkpt>
      <trkpt lat="48.40363" lon="7.45584">
        <ele>206.57501693362</ele>
        <time>2022-04-28T14:27:29.609Z</time>
      </trkpt>
      <trkpt lat="48.40325" lon="7.45581">
        <ele>206.73751331697</ele>
        <time>2022-04-28T14:27:31.260Z</time>
      </trkpt>
      <trkpt lat="48.4031" lon="7.4558">
        <ele>206.96541699724</ele>
        <time>2022-04-28T14:27:32.914Z</time>
      </trkpt>
      <trkpt lat="48.40305" lon="7.4558">
        <ele>207.15698192042</ele>
        <time>2022-04-28T14:27:34.568Z</time>
      </trkpt>
      <trkpt lat="48.40247" lon="7.45585">
        <ele>207.47570075245</ele>
        <time>2022-04-28T14:27:36.232Z</time>
      </trkpt>
      <trkpt lat="48.40223" lon="7.45584">
        <ele>207.62388207022</ele>
        <time>2022-04-28T14:27:37.900Z</time>
      </trkpt>
      <trkpt lat="48.40143" lon="7.45566">
        <ele>207.50852178778</ele>
        <time>2022-04-28T14:27:39.581Z</time>
      </trkpt>
      <trkpt lat="48.40093" lon="7.45562">
        <ele>207.7106337597</ele>
        <time>2022-04-28T14:27:41.270Z</time>
      </trkpt>
      <trkpt lat="48.40079" lon="7.45554">
        <ele>207.85033054381</ele>
        <time>2022-04-28T14:27:42.961Z</time>
      </trkpt>
      <trkpt lat="48.40064" lon="7.45534">
        <ele>207.93221515512</ele>
        <time>2022-04-28T14:27:44.655Z</time>
      </trkpt>
      <trkpt lat="48.40044" lon="7.45488">
        <ele>208.01593245989</ele>
        <time>2022-04-28T14:27:46.355Z</time>
      </trkpt>
      <trkpt lat="48.40026" lon="7.45452">
        <ele>208.05628173875</ele>
        <time>2022-04-28T14:27:48.060Z</time>
      </trkpt>
      <trkpt lat="48.40016" lon="7.45438">
        <ele>208.0940207694</ele>
        <time>2022-04-28T14:27:49.767Z</time>
      </trkpt>
      <trkpt lat="48.40001" lon="7.4542">
        <ele>208.07079699191</ele>
        <time>2022-04-28T14:27:51.477Z</time>
      </trkpt>
      <trkpt lat="48.40001" lon="7.4542">
        <ele>208.0589328092</ele>
        <time>2022-04-28T14:27:53.187Z</time>
      </trkpt>
      <trkpt lat="48.39979" lon="7.45394">
        <ele>207.98640204806</ele>
        <time>2022-04-28T14:27:54.902Z</time>
      </trkpt>
      <trkpt lat="48.39974" lon="7.45391">
        <ele>207.932519417</ele>
        <time>2022-04-28T14:27:56.617Z</time>
      </trkpt>
      <trkpt lat="48.39869" lon="7.45284">
        <ele>207.93297821854</ele>
        <time>2022-04-28T14:27:58.353Z</time>
      </trkpt>
      <trkpt lat="48.39752" lon="7.45161">
        <ele>207.89001951577</ele>
        <time>2022-04-28T14:28:00.112Z</time>
      </trkpt>
      <trkpt lat="48.39697" lon="7.45094">
        <ele>207.7818246662</ele>
        <time>2022-04-28T14:28:01.882Z</time>
      </trkpt>
      <trkpt lat="48.39687" lon="7.45087">
        <ele>207.67998631616</ele>
        <time>2022-04-28T14:28:03.654Z</time>
      </trkpt>
      <trkpt lat="48.39679" lon="7.45089">
        <ele>207.55020166192</ele>
        <time>2022-04-28T14:28:05.427Z</time>
      </trkpt>
      <trkpt lat="48.39675" lon="7.45093">
        <ele>207.40456124837</ele>
        <time>2022-04-28T14:28:07.201Z</time>
      </trkpt>
      <trkpt lat="48.39663" lon="7.45112">
        <ele>207.24529031302</ele>
        <time>2022-04-28T14:28:08.978Z</time>
      </trkpt>
      <trkpt lat="48.39656" lon="7.4512">
        <ele>207.08565228492</ele>
        <time>2022-04-28T14:28:10.756Z</time>
      </trkpt>
      <trkpt lat="48.39643" lon="7.45129">
        <ele>206.9240949002</ele>
        <time>2022-04-28T14:28:12.536Z</time>
      </trkpt>
      <trkpt lat="48.39587" lon="7.45157">
        <ele>206.58191772312</ele>
        <time>2022-04-28T14:28:14.326Z</time>
      </trkpt>
      <trkpt lat="48.39555" lon="7.4517">
        <ele>206.30783508205</ele>
        <time>2022-04-28T14:28:16.121Z</time>
      </trkpt>
      <trkpt lat="48.39538" lon="7.45175">
        <ele>206.05160259668</ele>
        <time>2022-04-28T14:28:17.919Z</time>
      </trkpt>
      <trkpt lat="48.3952" lon="7.45176">
        <ele>205.83556976809</ele>
        <time>2022-04-28T14:28:19.720Z</time>
      </trkpt>
      <trkpt lat="48.39512" lon="7.45175">
        <ele>205.63181897465</ele>
        <time>2022-04-28T14:28:21.522Z</time>
      </trkpt>
      <trkpt lat="48.39499" lon="7.45166">
        <ele>205.44509267499</ele>
        <time>2022-04-28T14:28:23.326Z</time>
      </trkpt>
      <trkpt lat="48.39461" lon="7.45111">
        <ele>205.24910702113</ele>
        <time>2022-04-28T14:28:25.139Z</time>
      </trkpt>
      <trkpt lat="48.39443" lon="7.45095">
        <ele>205.02186205236</ele>
        <time>2022-04-28T14:28:26.955Z</time>
      </trkpt>
      <trkpt lat="48.39396" lon="7.4506">
        <ele>204.86693739034</ele>
        <time>2022-04-28T14:28:28.779Z</time>
      </trkpt>
      <trkpt lat="48.39379" lon="7.45048">
        <ele>204.66883032487</ele>
        <time>2022-04-28T14:28:30.606Z</time>
      </trkpt>
      <trkpt lat="48.39287" lon="7.44991">
        <ele>204.52381544046</ele>
        <time>2022-04-28T14:28:32.449Z</time>
      </trkpt>
      <trkpt lat="48.39269" lon="7.44977">
        <ele>204.33689355286</ele>
        <time>2022-04-28T14:28:34.296Z</time>
      </trkpt>
      <trkpt lat="48.39254" lon="7.44961">
        <ele>204.14218011132</ele>
        <time>2022-04-28T14:28:36.146Z</time>
      </trkpt>
      <trkpt lat="48.39239" lon="7.44941">
        <ele>203.94266513277</ele>
        <time>2022-04-28T14:28:37.999Z</time>
      </trkpt>
      <trkpt lat="48.39233" lon="7.44919">
        <ele>203.78020691252</ele>
        <time>2022-04-28T14:28:39.854Z</time>
      </trkpt>
      <trkpt lat="48.39223" lon="7.44868">
        <ele>203.64784613068</ele>
        <time>2022-04-28T14:28:41.715Z</time>
      </trkpt>
      <trkpt lat="48.39215" lon="7.44845">
        <ele>203.50450382817</ele>
        <time>2022-04-28T14:28:43.579Z</time>
      </trkpt>
      <trkpt lat="48.39167" lon="7.4478">
        <ele>203.27200743398</ele>
        <time>2022-04-28T14:28:45.453Z</time>
      </trkpt>
      <trkpt lat="48.39149" lon="7.44748">
        <ele>203.07731425241</ele>
        <time>2022-04-28T14:28:47.332Z</time>
      </trkpt>
      <trkpt lat="48.39135" lon="7.44716">
        <ele>202.88680609379</ele>
        <time>2022-04-28T14:28:49.215Z</time>
      </trkpt>
      <trkpt lat="48.39108" lon="7.44651">
        <ele>202.72476513087</ele>
        <time>2022-04-28T14:28:51.106Z</time>
      </trkpt>
      <trkpt lat="48.39103" lon="7.44639">
        <ele>202.56570225893</ele>
        <time>2022-04-28T14:28:52.998Z</time>
      </trkpt>
      <trkpt lat="48.39107" lon="7.44633">
        <ele>202.4098778287</ele>
        <time>2022-04-28T14:28:54.891Z</time>
      </trkpt>
      <trkpt lat="48.39108" lon="7.44623">
        <ele>202.25759502086</ele>
        <time>2022-04-28T14:28:56.785Z</time>
      </trkpt>
      <trkpt lat="48.39108" lon="7.44616">
        <ele>202.10922478836</ele>
        <time>2022-04-28T14:28:58.680Z</time>
      </trkpt>
      <trkpt lat="48.39105" lon="7.44608">
        <ele>201.96522939928</ele>
        <time>2022-04-28T14:29:00.576Z</time>
      </trkpt>
      <trkpt lat="48.39102" lon="7.44603">
        <ele>201.82618425059</ele>
        <time>2022-04-28T14:29:02.473Z</time>
      </trkpt>
      <trkpt lat="48.39097" lon="7.44599">
        <ele>201.69279762584</ele>
        <time>2022-04-28T14:29:04.371Z</time>
      </trkpt>
      <trkpt lat="48.39091" lon="7.44599">
        <ele>201.56592807227</ele>
        <time>2022-04-28T14:29:06.270Z</time>
      </trkpt>
      <trkpt lat="48.39086" lon="7.44603">
        <ele>201.44659907497</ele>
        <time>2022-04-28T14:29:08.170Z</time>
      </trkpt>
      <trkpt lat="48.39082" lon="7.44609">
        <ele>201.33601070879</ele>
        <time>2022-04-28T14:29:10.071Z</time>
      </trkpt>
      <trkpt lat="48.39079" lon="7.44617">
        <ele>201.2340041784</ele>
        <time>2022-04-28T14:29:11.972Z</time>
      </trkpt>
      <trkpt lat="48.38951" lon="7.44565">
        <ele>201.1468047725</ele>
        <time>2022-04-28T14:29:13.895Z</time>
      </trkpt>
      <trkpt lat="48.38858" lon="7.44514">
        <ele>200.936230831</ele>
        <time>2022-04-28T14:29:15.833Z</time>
      </trkpt>
      <trkpt lat="48.38789" lon="7.44471">
        <ele>200.93346876611</ele>
        <time>2022-04-28T14:29:17.784Z</time>
      </trkpt>
      <trkpt lat="48.38745" lon="7.44437">
        <ele>200.93024877121</ele>
        <time>2022-04-28T14:29:19.742Z</time>
      </trkpt>
      <trkpt lat="48.38705" lon="7.44396">
        <ele>200.93595066068</ele>
        <time>2022-04-28T14:29:21.708Z</time>
      </trkpt>
      <trkpt lat="48.38654" lon="7.44344">
        <ele>200.95195450065</ele>
        <time>2022-04-28T14:29:23.684Z</time>
      </trkpt>
      <trkpt lat="48.38655" lon="7.44339">
        <ele>200.97344935679</ele>
        <time>2022-04-28T14:29:25.661Z</time>
      </trkpt>
      <trkpt lat="48.38651" lon="7.44337">
        <ele>201.01867696538</ele>
        <time>2022-04-28T14:29:27.638Z</time>
      </trkpt>
      <trkpt lat="48.38649" lon="7.44337">
        <ele>201.08955054194</ele>
        <time>2022-04-28T14:29:29.616Z</time>
      </trkpt>
      <trkpt lat="48.38648" lon="7.44341">
        <ele>201.18805762671</ele>
        <time>2022-04-28T14:29:31.594Z</time>
      </trkpt>
      <trkpt lat="48.38633" lon="7.44336">
        <ele>201.31622506141</ele>
        <time>2022-04-28T14:29:33.575Z</time>
      </trkpt>
      <trkpt lat="48.3862" lon="7.44329">
        <ele>201.48120852607</ele>
        <time>2022-04-28T14:29:35.558Z</time>
      </trkpt>
      <trkpt lat="48.3862" lon="7.44329">
        <ele>201.67466195756</ele>
        <time>2022-04-28T14:29:37.541Z</time>
      </trkpt>
      <trkpt lat="48.38611" lon="7.44324">
        <ele>201.91394216244</ele>
        <time>2022-04-28T14:29:39.525Z</time>
      </trkpt>
      <trkpt lat="48.38602" lon="7.44319">
        <ele>202.2109010267</ele>
        <time>2022-04-28T14:29:41.511Z</time>
      </trkpt>
      <trkpt lat="48.38602" lon="7.44319">
        <ele>202.51534667062</ele>
        <time>2022-04-28T14:29:43.497Z</time>
      </trkpt>
      <trkpt lat="48.38597" lon="7.44317">
        <ele>202.88435190906</ele>
        <time>2022-04-28T14:29:45.484Z</time>
      </trkpt>
      <trkpt lat="48.38593" lon="7.44316">
        <ele>203.28375951248</ele>
        <time>2022-04-28T14:29:47.471Z</time>
      </trkpt>
      <trkpt lat="48.38593" lon="7.44316">
        <ele>203.71043049441</ele>
        <time>2022-04-28T14:29:49.458Z</time>
      </trkpt>
      <trkpt lat="48.38438" lon="7.44297">
        <ele>204.50206671606</ele>
        <time>2022-04-28T14:29:51.470Z</time>
      </trkpt>
      <trkpt lat="48.38423" lon="7.44292">
        <ele>205.05977816358</ele>
        <time>2022-04-28T14:29:53.485Z</time>
      </trkpt>
      <trkpt lat="48.38411" lon="7.44279">
        <ele>205.67074529327</ele>
        <time>2022-04-28T14:29:55.502Z</time>
      </trkpt>
      <trkpt lat="48.38392" lon="7.44242">
        <ele>206.28525588681</ele>
        <time>2022-04-28T14:29:57.524Z</time>
      </trkpt>
      <trkpt lat="48.3839" lon="7.44239">
        <ele>206.92310828866</ele>
        <time>2022-04-28T14:29:59.547Z</time>
      </trkpt>
      <trkpt lat="48.38387" lon="7.44231">
        <ele>207.61591410942</ele>
        <time>2022-04-28T14:30:01.570Z</time>
      </trkpt>
      <trkpt lat="48.3838" lon="7.44212">
        <ele>208.37123893529</ele>
        <time>2022-04-28T14:30:03.596Z</time>
      </trkpt>
      <trkpt lat="48.38365" lon="7.44175">
        <ele>209.19880857024</ele>
        <time>2022-04-28T14:30:05.626Z</time>
      </trkpt>
      <trkpt lat="48.38353" lon="7.44153">
        <ele>210.07044894223</ele>
        <time>2022-04-28T14:30:07.659Z</time>
      </trkpt>
      <trkpt lat="48.38346" lon="7.44145">
        <ele>210.99587722006</ele>
        <time>2022-04-28T14:30:09.694Z</time>
      </trkpt>
      <trkpt lat="48.38336" lon="7.44137">
        <ele>211.99017363797</ele>
        <time>2022-04-28T14:30:11.731Z</time>
      </trkpt>
      <trkpt lat="48.38245" lon="7.44086">
        <ele>213.1445547576</ele>
        <time>2022-04-28T14:30:13.783Z</time>
      </trkpt>
      <trkpt lat="48.382" lon="7.44052">
        <ele>214.3449316971</ele>
        <time>2022-04-28T14:30:15.843Z</time>
      </trkpt>
      <trkpt lat="48.38169" lon="7.44019">
        <ele>215.58751857687</ele>
        <time>2022-04-28T14:30:17.909Z</time>
      </trkpt>
      <trkpt lat="48.38154" lon="7.44006">
        <ele>216.87742806141</ele>
        <time>2022-04-28T14:30:19.978Z</time>
      </trkpt>
      <trkpt lat="48.38131" lon="7.43993">
        <ele>218.23257129863</ele>
        <time>2022-04-28T14:30:22.051Z</time>
      </trkpt>
      <trkpt lat="48.38111" lon="7.43987">
        <ele>219.71799918695</ele>
        <time>2022-04-28T14:30:24.127Z</time>
      </trkpt>
      <trkpt lat="48.381" lon="7.43985">
        <ele>221.33342004302</ele>
        <time>2022-04-28T14:30:26.205Z</time>
      </trkpt>
      <trkpt lat="48.38048" lon="7.43983">
        <ele>223.18341837743</ele>
        <time>2022-04-28T14:30:28.291Z</time>
      </trkpt>
      <trkpt lat="48.38001" lon="7.43986">
        <ele>225.19797741332</ele>
        <time>2022-04-28T14:30:30.385Z</time>
      </trkpt>
      <trkpt lat="48.38001" lon="7.43986">
        <ele>227.12983570224</ele>
        <time>2022-04-28T14:30:32.479Z</time>
      </trkpt>
      <trkpt lat="48.37925" lon="7.4399">
        <ele>229.25169236067</ele>
        <time>2022-04-28T14:30:34.585Z</time>
      </trkpt>
      <trkpt lat="48.37856" lon="7.4398">
        <ele>231.48358088265</ele>
        <time>2022-04-28T14:30:36.702Z</time>
      </trkpt>
      <trkpt lat="48.37833" lon="7.43975">
        <ele>233.73517802447</ele>
        <time>2022-04-28T14:30:38.823Z</time>
      </trkpt>
      <trkpt lat="48.37816" lon="7.4397">
        <ele>236.0231480356</ele>
        <time>2022-04-28T14:30:40.947Z</time>
      </trkpt>
      <trkpt lat="48.37763" lon="7.43946">
        <ele>238.46331210699</ele>
        <time>2022-04-28T14:30:43.080Z</time>
      </trkpt>
      <trkpt lat="48.37589" lon="7.4386">
        <ele>241.4904401453</ele>
        <time>2022-04-28T14:30:45.242Z</time>
      </trkpt>
      <trkpt lat="48.37582" lon="7.43856">
        <ele>243.94194663185</ele>
        <time>2022-04-28T14:30:47.405Z</time>
      </trkpt>
      <trkpt lat="48.37576" lon="7.43852">
        <ele>246.40945412407</ele>
        <time>2022-04-28T14:30:49.569Z</time>
      </trkpt>
      <trkpt lat="48.37567" lon="7.43844">
        <ele>248.90530558493</ele>
        <time>2022-04-28T14:30:51.735Z</time>
      </trkpt>
      <trkpt lat="48.37558" lon="7.43836">
        <ele>251.37999947351</ele>
        <time>2022-04-28T14:30:53.903Z</time>
      </trkpt>
      <trkpt lat="48.37544" lon="7.43818">
        <ele>253.81367752086</ele>
        <time>2022-04-28T14:30:56.073Z</time>
      </trkpt>
      <trkpt lat="48.37524" lon="7.43781">
        <ele>256.15431401065</ele>
        <time>2022-04-28T14:30:58.249Z</time>
      </trkpt>
      <trkpt lat="48.3752" lon="7.43772">
        <ele>258.39851237937</ele>
        <time>2022-04-28T14:31:00.426Z</time>
      </trkpt>
      <trkpt lat="48.37449" lon="7.43634">
        <ele>260.78592485196</ele>
        <time>2022-04-28T14:31:02.621Z</time>
      </trkpt>
      <trkpt lat="48.37139" lon="7.43038">
        <ele>263.88889963323</ele>
        <time>2022-04-28T14:31:04.897Z</time>
      </trkpt>
      <trkpt lat="48.37139" lon="7.43038">
        <ele>265.76133973112</ele>
        <time>2022-04-28T14:31:07.173Z</time>
      </trkpt>
      <trkpt lat="48.36872" lon="7.42594">
        <ele>267.89906493089</ele>
        <time>2022-04-28T14:31:09.513Z</time>
      </trkpt>
      <trkpt lat="48.36872" lon="7.42594">
        <ele>269.41380497307</ele>
        <time>2022-04-28T14:31:11.853Z</time>
      </trkpt>
      <trkpt lat="48.36855" lon="7.4256">
        <ele>270.72205128129</ele>
        <time>2022-04-28T14:31:14.197Z</time>
      </trkpt>
      <trkpt lat="48.36805" lon="7.42417">
        <ele>273.04093780393</ele>
        <time>2022-04-28T14:31:16.559Z</time>
      </trkpt>
      <trkpt lat="48.36793" lon="7.42372">
        <ele>273.51056733109</ele>
        <time>2022-04-28T14:31:18.926Z</time>
      </trkpt>
      <trkpt lat="48.36788" lon="7.42337">
        <ele>273.83936893574</ele>
        <time>2022-04-28T14:31:21.297Z</time>
      </trkpt>
      <trkpt lat="48.36773" lon="7.42224">
        <ele>274.0162141852</ele>
        <time>2022-04-28T14:31:23.680Z</time>
      </trkpt>
      <trkpt lat="48.36765" lon="7.42185">
        <ele>273.9462291859</ele>
        <time>2022-04-28T14:31:26.067Z</time>
      </trkpt>
      <trkpt lat="48.36756" lon="7.42157">
        <ele>273.63132741879</ele>
        <time>2022-04-28T14:31:28.458Z</time>
      </trkpt>
      <trkpt lat="48.36738" lon="7.42109">
        <ele>273.21206616729</ele>
        <time>2022-04-28T14:31:30.854Z</time>
      </trkpt>
      <trkpt lat="48.36701" lon="7.42033">
        <ele>272.72589424263</ele>
        <time>2022-04-28T14:31:33.260Z</time>
      </trkpt>
      <trkpt lat="48.36678" lon="7.41981">
        <ele>272.11569462953</ele>
        <time>2022-04-28T14:31:35.673Z</time>
      </trkpt>
      <trkpt lat="48.36663" lon="7.41944">
        <ele>271.51123139608</ele>
        <time>2022-04-28T14:31:38.091Z</time>
      </trkpt>
      <trkpt lat="48.36655" lon="7.41924">
        <ele>270.87179860638</ele>
        <time>2022-04-28T14:31:40.511Z</time>
      </trkpt>
      <trkpt lat="48.3664" lon="7.41873">
        <ele>270.15696987648</ele>
        <time>2022-04-28T14:31:42.937Z</time>
      </trkpt>
      <trkpt lat="48.36631" lon="7.41838">
        <ele>269.23533453279</ele>
        <time>2022-04-28T14:31:45.367Z</time>
      </trkpt>
      <trkpt lat="48.36626" lon="7.4178">
        <ele>268.50689834969</ele>
        <time>2022-04-28T14:31:47.803Z</time>
      </trkpt>
      <trkpt lat="48.36625" lon="7.41731">
        <ele>267.70848607456</ele>
        <time>2022-04-28T14:31:50.245Z</time>
      </trkpt>
      <trkpt lat="48.36632" lon="7.41653">
        <ele>266.85736893816</ele>
        <time>2022-04-28T14:31:52.695Z</time>
      </trkpt>
      <trkpt lat="48.36632" lon="7.41613">
        <ele>265.88741515106</ele>
        <time>2022-04-28T14:31:55.149Z</time>
      </trkpt>
      <trkpt lat="48.36627" lon="7.41497">
        <ele>264.84001475623</ele>
        <time>2022-04-28T14:31:57.616Z</time>
      </trkpt>
      <trkpt lat="48.3662" lon="7.41456">
        <ele>264.01483809725</ele>
        <time>2022-04-28T14:32:00.087Z</time>
      </trkpt>
      <trkpt lat="48.36612" lon="7.41429">
        <ele>263.25999848411</ele>
        <time>2022-04-28T14:32:02.561Z</time>
      </trkpt>
      <trkpt lat="48.36602" lon="7.41405">
        <ele>262.57293524512</ele>
        <time>2022-04-28T14:32:05.038Z</time>
      </trkpt>
      <trkpt lat="48.36584" lon="7.41381">
        <ele>261.87478847224</ele>
        <time>2022-04-28T14:32:07.519Z</time>
      </trkpt>
      <trkpt lat="48.36554" lon="7.41351">
        <ele>261.11663058168</ele>
        <time>2022-04-28T14:32:10.006Z</time>
      </trkpt>
      <trkpt lat="48.36495" lon="7.41313">
        <ele>260.42753014975</ele>
        <time>2022-04-28T14:32:12.503Z</time>
      </trkpt>
      <trkpt lat="48.36479" lon="7.41296">
        <ele>260.11729844293</ele>
        <time>2022-04-28T14:32:15.003Z</time>
      </trkpt>
      <trkpt lat="48.36465" lon="7.41277">
        <ele>259.91662594851</ele>
        <time>2022-04-28T14:32:17.507Z</time>
      </trkpt>
      <trkpt lat="48.36452" lon="7.41255">
        <ele>259.83704345431</ele>
        <time>2022-04-28T14:32:20.014Z</time>
      </trkpt>
      <trkpt lat="48.36403" lon="7.41148">
        <ele>259.9292908829</ele>
        <time>2022-04-28T14:32:22.535Z</time>
      </trkpt>
      <trkpt lat="48.36346" lon="7.41042">
        <ele>260.17701827876</ele>
        <time>2022-04-28T14:32:25.070Z</time>
      </trkpt>
      <trkpt lat="48.36334" lon="7.41015">
        <ele>260.61833367211</ele>
        <time>2022-04-28T14:32:27.608Z</time>
      </trkpt>
      <trkpt lat="48.36319" lon="7.4096">
        <ele>261.25869274318</ele>
        <time>2022-04-28T14:32:30.153Z</time>
      </trkpt>
      <trkpt lat="48.36311" lon="7.40942">
        <ele>262.08716237719</ele>
        <time>2022-04-28T14:32:32.700Z</time>
      </trkpt>
      <trkpt lat="48.36301" lon="7.40927">
        <ele>263.09776244798</ele>
        <time>2022-04-28T14:32:35.249Z</time>
      </trkpt>
      <trkpt lat="48.36279" lon="7.40907">
        <ele>264.397153363</ele>
        <time>2022-04-28T14:32:37.803Z</time>
      </trkpt>
      <trkpt lat="48.36267" lon="7.409">
        <ele>265.86011396539</ele>
        <time>2022-04-28T14:32:40.359Z</time>
      </trkpt>
      <trkpt lat="48.3623" lon="7.40885">
        <ele>267.59241657232</ele>
        <time>2022-04-28T14:32:42.921Z</time>
      </trkpt>
      <trkpt lat="48.36216" lon="7.40875">
        <ele>269.43427232529</ele>
        <time>2022-04-28T14:32:45.485Z</time>
      </trkpt>
      <trkpt lat="48.36193" lon="7.40851">
        <ele>271.52039430071</ele>
        <time>2022-04-28T14:32:48.054Z</time>
      </trkpt>
      <trkpt lat="48.36171" lon="7.4082">
        <ele>273.8633424367</ele>
        <time>2022-04-28T14:32:50.628Z</time>
      </trkpt>
      <trkpt lat="48.36151" lon="7.40784">
        <ele>276.32838080713</ele>
        <time>2022-04-28T14:32:53.207Z</time>
      </trkpt>
      <trkpt lat="48.36099" lon="7.40677">
        <ele>279.29456075134</ele>
        <time>2022-04-28T14:32:55.800Z</time>
      </trkpt>
      <trkpt lat="48.36069" lon="7.40602">
        <ele>281.76218844061</ele>
        <time>2022-04-28T14:32:58.402Z</time>
      </trkpt>
      <trkpt lat="48.36058" lon="7.40565">
        <ele>284.2738413646</ele>
        <time>2022-04-28T14:33:01.008Z</time>
      </trkpt>
      <trkpt lat="48.3597" lon="7.40173">
        <ele>287.35641723631</ele>
        <time>2022-04-28T14:33:03.658Z</time>
      </trkpt>
      <trkpt lat="48.35921" lon="7.39995">
        <ele>290.50438656115</ele>
        <time>2022-04-28T14:33:06.329Z</time>
      </trkpt>
      <trkpt lat="48.3591" lon="7.39971">
        <ele>293.24735598963</ele>
        <time>2022-04-28T14:33:09.003Z</time>
      </trkpt>
      <trkpt lat="48.3591" lon="7.39971">
        <ele>295.86526273959</ele>
        <time>2022-04-28T14:33:11.677Z</time>
      </trkpt>
      <trkpt lat="48.35904" lon="7.39964">
        <ele>298.48182761216</ele>
        <time>2022-04-28T14:33:14.352Z</time>
      </trkpt>
      <trkpt lat="48.35897" lon="7.39957">
        <ele>301.06064982179</ele>
        <time>2022-04-28T14:33:17.029Z</time>
      </trkpt>
      <trkpt lat="48.35888" lon="7.39951">
        <ele>303.59548318795</ele>
        <time>2022-04-28T14:33:19.707Z</time>
      </trkpt>
      <trkpt lat="48.35847" lon="7.3994">
        <ele>306.04363029639</ele>
        <time>2022-04-28T14:33:22.392Z</time>
      </trkpt>
      <trkpt lat="48.35831" lon="7.39929">
        <ele>308.49239861498</ele>
        <time>2022-04-28T14:33:25.080Z</time>
      </trkpt>
      <trkpt lat="48.35821" lon="7.39918">
        <ele>310.93507426903</ele>
        <time>2022-04-28T14:33:27.770Z</time>
      </trkpt>
      <trkpt lat="48.35814" lon="7.39905">
        <ele>313.33773367642</ele>
        <time>2022-04-28T14:33:30.462Z</time>
      </trkpt>
      <trkpt lat="48.35805" lon="7.39886">
        <ele>315.70193862265</ele>
        <time>2022-04-28T14:33:33.156Z</time>
      </trkpt>
      <trkpt lat="48.35771" lon="7.39768">
        <ele>318.24896125488</ele>
        <time>2022-04-28T14:33:35.864Z</time>
      </trkpt>
      <trkpt lat="48.35746" lon="7.39685">
        <ele>320.65117672137</ele>
        <time>2022-04-28T14:33:38.582Z</time>
      </trkpt>
      <trkpt lat="48.35718" lon="7.39581">
        <ele>322.84669472037</ele>
        <time>2022-04-28T14:33:41.311Z</time>
      </trkpt>
      <trkpt lat="48.35702" lon="7.39516">
        <ele>324.91200468181</ele>
        <time>2022-04-28T14:33:44.048Z</time>
      </trkpt>
      <trkpt lat="48.35698" lon="7.39483">
        <ele>326.90576378785</ele>
        <time>2022-04-28T14:33:46.788Z</time>
      </trkpt>
      <trkpt lat="48.35698" lon="7.39429">
        <ele>328.91752091091</ele>
        <time>2022-04-28T14:33:49.534Z</time>
      </trkpt>
      <trkpt lat="48.35696" lon="7.39405">
        <ele>330.73576066849</ele>
        <time>2022-04-28T14:33:52.283Z</time>
      </trkpt>
      <trkpt lat="48.35686" lon="7.3935">
        <ele>332.56922310386</ele>
        <time>2022-04-28T14:33:55.038Z</time>
      </trkpt>
      <trkpt lat="48.35673" lon="7.393">
        <ele>334.42591185667</ele>
        <time>2022-04-28T14:33:57.799Z</time>
      </trkpt>
      <trkpt lat="48.35658" lon="7.39252">
        <ele>336.27872208626</ele>
        <time>2022-04-28T14:34:00.565Z</time>
      </trkpt>
      <trkpt lat="48.35646" lon="7.39228">
        <ele>337.95136776685</ele>
        <time>2022-04-28T14:34:03.334Z</time>
      </trkpt>
      <trkpt lat="48.35646" lon="7.39228">
        <ele>339.4167829758</ele>
        <time>2022-04-28T14:34:06.103Z</time>
      </trkpt>
      <trkpt lat="48.35643" lon="7.3922">
        <ele>340.88110970674</ele>
        <time>2022-04-28T14:34:08.873Z</time>
      </trkpt>
      <trkpt lat="48.35633" lon="7.39214">
        <ele>342.31754516939</ele>
        <time>2022-04-28T14:34:11.645Z</time>
      </trkpt>
      <trkpt lat="48.35626" lon="7.39214">
        <ele>343.74222057578</ele>
        <time>2022-04-28T14:34:14.418Z</time>
      </trkpt>
      <trkpt lat="48.35616" lon="7.39219">
        <ele>345.14494675274</ele>
        <time>2022-04-28T14:34:17.193Z</time>
      </trkpt>
      <trkpt lat="48.35611" lon="7.3923">
        <ele>346.49052535685</ele>
        <time>2022-04-28T14:34:19.969Z</time>
      </trkpt>
      <trkpt lat="48.35581" lon="7.39321">
        <ele>347.47702054813</ele>
        <time>2022-04-28T14:34:22.756Z</time>
      </trkpt>
      <trkpt lat="48.35574" lon="7.39334">
        <ele>348.84640256918</ele>
        <time>2022-04-28T14:34:25.545Z</time>
      </trkpt>
      <trkpt lat="48.35568" lon="7.39341">
        <ele>350.29325524209</ele>
        <time>2022-04-28T14:34:28.335Z</time>
      </trkpt>
      <trkpt lat="48.3556" lon="7.39343">
        <ele>351.8491757495</ele>
        <time>2022-04-28T14:34:31.126Z</time>
      </trkpt>
      <trkpt lat="48.3555" lon="7.39342">
        <ele>353.4991384482</ele>
        <time>2022-04-28T14:34:33.919Z</time>
      </trkpt>
      <trkpt lat="48.35543" lon="7.39336">
        <ele>355.21020327922</ele>
        <time>2022-04-28T14:34:36.713Z</time>
      </trkpt>
      <trkpt lat="48.35538" lon="7.39327">
        <ele>357.02783590578</ele>
        <time>2022-04-28T14:34:39.509Z</time>
      </trkpt>
      <trkpt lat="48.35493" lon="7.39196">
        <ele>359.50277223075</ele>
        <time>2022-04-28T14:34:42.320Z</time>
      </trkpt>
      <trkpt lat="48.35491" lon="7.39192">
        <ele>361.47918578978</ele>
        <time>2022-04-28T14:34:45.132Z</time>
      </trkpt>
      <trkpt lat="48.35445" lon="7.38982">
        <ele>364.2388922972</ele>
        <time>2022-04-28T14:34:47.968Z</time>
      </trkpt>
      <trkpt lat="48.35445" lon="7.38982">
        <ele>366.30436801746</ele>
        <time>2022-04-28T14:34:50.804Z</time>
      </trkpt>
      <trkpt lat="48.35438" lon="7.38932">
        <ele>368.60071069312</ele>
        <time>2022-04-28T14:34:53.645Z</time>
      </trkpt>
      <trkpt lat="48.35437" lon="7.38898">
        <ele>370.88635478956</ele>
        <time>2022-04-28T14:34:56.490Z</time>
      </trkpt>
      <trkpt lat="48.35441" lon="7.38851">
        <ele>373.27908681198</ele>
        <time>2022-04-28T14:34:59.340Z</time>
      </trkpt>
      <trkpt lat="48.35441" lon="7.38829">
        <ele>375.3652317984</ele>
        <time>2022-04-28T14:35:02.192Z</time>
      </trkpt>
      <trkpt lat="48.35437" lon="7.38819">
        <ele>377.39567195228</ele>
        <time>2022-04-28T14:35:05.045Z</time>
      </trkpt>
      <trkpt lat="48.35432" lon="7.38807">
        <ele>379.38269020515</ele>
        <time>2022-04-28T14:35:07.900Z</time>
      </trkpt>
      <trkpt lat="48.35423" lon="7.38799">
        <ele>381.28054807281</ele>
        <time>2022-04-28T14:35:10.756Z</time>
      </trkpt>
      <trkpt lat="48.35408" lon="7.38795">
        <ele>383.12492515624</ele>
        <time>2022-04-28T14:35:13.615Z</time>
      </trkpt>
      <trkpt lat="48.35396" lon="7.38799">
        <ele>384.98493678574</ele>
        <time>2022-04-28T14:35:16.476Z</time>
      </trkpt>
      <trkpt lat="48.35386" lon="7.38808">
        <ele>386.70508770408</ele>
        <time>2022-04-28T14:35:19.339Z</time>
      </trkpt>
      <trkpt lat="48.35333" lon="7.38881">
        <ele>388.39782644394</ele>
        <time>2022-04-28T14:35:22.213Z</time>
      </trkpt>
      <trkpt lat="48.35295" lon="7.38951">
        <ele>390.23871601542</ele>
        <time>2022-04-28T14:35:25.097Z</time>
      </trkpt>
      <trkpt lat="48.35288" lon="7.38967">
        <ele>391.65603410239</ele>
        <time>2022-04-28T14:35:27.983Z</time>
      </trkpt>
      <trkpt lat="48.35264" lon="7.39056">
        <ele>392.75748676095</ele>
        <time>2022-04-28T14:35:30.879Z</time>
      </trkpt>
      <trkpt lat="48.35256" lon="7.39077">
        <ele>393.80758513664</ele>
        <time>2022-04-28T14:35:33.778Z</time>
      </trkpt>
      <trkpt lat="48.3521" lon="7.39138">
        <ele>395.2191215556</ele>
        <time>2022-04-28T14:35:36.687Z</time>
      </trkpt>
      <trkpt lat="48.35187" lon="7.39181">
        <ele>395.98436209279</ele>
        <time>2022-04-28T14:35:39.602Z</time>
      </trkpt>
      <trkpt lat="48.3517" lon="7.39224">
        <ele>396.40627845356</ele>
        <time>2022-04-28T14:35:42.522Z</time>
      </trkpt>
      <trkpt lat="48.3517" lon="7.39224">
        <ele>396.55965287883</ele>
        <time>2022-04-28T14:35:45.442Z</time>
      </trkpt>
      <trkpt lat="48.35168" lon="7.39226">
        <ele>396.48004272712</ele>
        <time>2022-04-28T14:35:48.362Z</time>
      </trkpt>
      <trkpt lat="48.35155" lon="7.39236">
        <ele>396.14375018484</ele>
        <time>2022-04-28T14:35:51.285Z</time>
      </trkpt>
      <trkpt lat="48.35147" lon="7.39236">
        <ele>395.57610942273</ele>
        <time>2022-04-28T14:35:54.209Z</time>
      </trkpt>
      <trkpt lat="48.35135" lon="7.39233">
        <ele>394.77961274462</ele>
        <time>2022-04-28T14:35:57.135Z</time>
      </trkpt>
      <trkpt lat="48.35062" lon="7.39191">
        <ele>393.59855714635</ele>
        <time>2022-04-28T14:36:00.073Z</time>
      </trkpt>
      <trkpt lat="48.35025" lon="7.3917">
        <ele>392.31932805391</ele>
        <time>2022-04-28T14:36:03.018Z</time>
      </trkpt>
      <trkpt lat="48.35" lon="7.39171">
        <ele>390.84011807516</ele>
        <time>2022-04-28T14:36:05.967Z</time>
      </trkpt>
      <trkpt lat="48.34997" lon="7.39172">
        <ele>389.21604729922</ele>
        <time>2022-04-28T14:36:08.916Z</time>
      </trkpt>
      <trkpt lat="48.34952" lon="7.39203">
        <ele>387.40477741215</ele>
        <time>2022-04-28T14:36:11.873Z</time>
      </trkpt>
      <trkpt lat="48.34933" lon="7.39204">
        <ele>385.39006077031</ele>
        <time>2022-04-28T14:36:14.833Z</time>
      </trkpt>
      <trkpt lat="48.34901" lon="7.39195">
        <ele>383.09941696468</ele>
        <time>2022-04-28T14:36:17.798Z</time>
      </trkpt>
      <trkpt lat="48.3488" lon="7.39194">
        <ele>380.76799329525</ele>
        <time>2022-04-28T14:36:20.767Z</time>
      </trkpt>
      <trkpt lat="48.34833" lon="7.3919">
        <ele>378.335969039</ele>
        <time>2022-04-28T14:36:23.743Z</time>
      </trkpt>
      <trkpt lat="48.34817" lon="7.39177">
        <ele>375.99364780319</ele>
        <time>2022-04-28T14:36:26.722Z</time>
      </trkpt>
      <trkpt lat="48.34787" lon="7.39123">
        <ele>373.50945255424</ele>
        <time>2022-04-28T14:36:29.709Z</time>
      </trkpt>
      <trkpt lat="48.34656" lon="7.39001">
        <ele>370.91668784642</ele>
        <time>2022-04-28T14:36:32.720Z</time>
      </trkpt>
      <trkpt lat="48.34635" lon="7.38979">
        <ele>368.88097388134</ele>
        <time>2022-04-28T14:36:35.736Z</time>
      </trkpt>
      <trkpt lat="48.34622" lon="7.3896">
        <ele>366.94165314747</ele>
        <time>2022-04-28T14:36:38.754Z</time>
      </trkpt>
      <trkpt lat="48.34617" lon="7.38946">
        <ele>365.09978088879</ele>
        <time>2022-04-28T14:36:41.774Z</time>
      </trkpt>
      <trkpt lat="48.34598" lon="7.38884">
        <ele>363.33495701917</ele>
        <time>2022-04-28T14:36:44.801Z</time>
      </trkpt>
      <trkpt lat="48.34581" lon="7.38816">
        <ele>361.6257669821</ele>
        <time>2022-04-28T14:36:47.836Z</time>
      </trkpt>
      <trkpt lat="48.34565" lon="7.38745">
        <ele>360.30745169504</ele>
        <time>2022-04-28T14:36:50.879Z</time>
      </trkpt>
      <trkpt lat="48.34538" lon="7.38546">
        <ele>358.95469594037</ele>
        <time>2022-04-28T14:36:53.944Z</time>
      </trkpt>
      <trkpt lat="48.3452" lon="7.38464">
        <ele>357.82306320223</ele>
        <time>2022-04-28T14:36:57.018Z</time>
      </trkpt>
      <trkpt lat="48.34463" lon="7.38292">
        <ele>356.81319163789</ele>
        <time>2022-04-28T14:37:00.113Z</time>
      </trkpt>
      <trkpt lat="48.34454" lon="7.38252">
        <ele>356.32954542847</ele>
        <time>2022-04-28T14:37:03.212Z</time>
      </trkpt>
      <trkpt lat="48.34445" lon="7.382">
        <ele>356.14448867584</ele>
        <time>2022-04-28T14:37:06.317Z</time>
      </trkpt>
      <trkpt lat="48.34445" lon="7.382">
        <ele>356.29976141867</ele>
        <time>2022-04-28T14:37:09.422Z</time>
      </trkpt>
      <trkpt lat="48.34425" lon="7.38091">
        <ele>356.87465377573</ele>
        <time>2022-04-28T14:37:12.539Z</time>
      </trkpt>
      <trkpt lat="48.34425" lon="7.38091">
        <ele>357.50635856786</ele>
        <time>2022-04-28T14:37:15.656Z</time>
      </trkpt>
      <trkpt lat="48.34401" lon="7.37952">
        <ele>358.91477401687</ele>
        <time>2022-04-28T14:37:18.788Z</time>
      </trkpt>
      <trkpt lat="48.34396" lon="7.37914">
        <ele>360.02220840547</ele>
        <time>2022-04-28T14:37:21.924Z</time>
      </trkpt>
      <trkpt lat="48.34394" lon="7.37899">
        <ele>361.20986351274</ele>
        <time>2022-04-28T14:37:25.062Z</time>
      </trkpt>
      <trkpt lat="48.34393" lon="7.37836">
        <ele>362.72593349794</ele>
        <time>2022-04-28T14:37:28.207Z</time>
      </trkpt>
      <trkpt lat="48.34394" lon="7.37664">
        <ele>364.60582112141</ele>
        <time>2022-04-28T14:37:31.370Z</time>
      </trkpt>
      <trkpt lat="48.34388" lon="7.37583">
        <ele>366.21795618213</ele>
        <time>2022-04-28T14:37:34.542Z</time>
      </trkpt>
      <trkpt lat="48.34385" lon="7.37559">
        <ele>367.59145532016</ele>
        <time>2022-04-28T14:37:37.716Z</time>
      </trkpt>
      <trkpt lat="48.34385" lon="7.37559">
        <ele>368.90271782614</ele>
        <time>2022-04-28T14:37:40.890Z</time>
      </trkpt>
      <trkpt lat="48.3438" lon="7.37507">
        <ele>370.14581529585</ele>
        <time>2022-04-28T14:37:44.070Z</time>
      </trkpt>
      <trkpt lat="48.3437" lon="7.37441">
        <ele>371.36016502767</ele>
        <time>2022-04-28T14:37:47.257Z</time>
      </trkpt>
      <trkpt lat="48.34351" lon="7.37369">
        <ele>372.50870601638</ele>
        <time>2022-04-28T14:37:50.452Z</time>
      </trkpt>
      <trkpt lat="48.34303" lon="7.37176">
        <ele>373.80597020733</ele>
        <time>2022-04-28T14:37:53.669Z</time>
      </trkpt>
      <trkpt lat="48.34278" lon="7.37086">
        <ele>374.40095535791</ele>
        <time>2022-04-28T14:37:56.897Z</time>
      </trkpt>
      <trkpt lat="48.34233" lon="7.36928">
        <ele>374.68885510465</ele>
        <time>2022-04-28T14:38:00.143Z</time>
      </trkpt>
      <trkpt lat="48.34233" lon="7.36928">
        <ele>374.90558318291</ele>
        <time>2022-04-28T14:38:03.389Z</time>
      </trkpt>
      <trkpt lat="48.34233" lon="7.36927">
        <ele>374.89295437637</ele>
        <time>2022-04-28T14:38:06.635Z</time>
      </trkpt>
      <trkpt lat="48.34227" lon="7.36903">
        <ele>374.60314008136</ele>
        <time>2022-04-28T14:38:09.884Z</time>
      </trkpt>
      <trkpt lat="48.34226" lon="7.36897">
        <ele>374.11923093149</ele>
        <time>2022-04-28T14:38:13.134Z</time>
      </trkpt>
      <trkpt lat="48.34205" lon="7.36816">
        <ele>373.13616549832</ele>
        <time>2022-04-28T14:38:16.393Z</time>
      </trkpt>
      <trkpt lat="48.34193" lon="7.36751">
        <ele>372.02199354566</ele>
        <time>2022-04-28T14:38:19.659Z</time>
      </trkpt>
      <trkpt lat="48.34182" lon="7.36663">
        <ele>370.54074348133</ele>
        <time>2022-04-28T14:38:22.935Z</time>
      </trkpt>
      <trkpt lat="48.34175" lon="7.36638">
        <ele>369.13818249951</ele>
        <time>2022-04-28T14:38:26.214Z</time>
      </trkpt>
      <trkpt lat="48.34159" lon="7.36602">
        <ele>367.5685779914</ele>
        <time>2022-04-28T14:38:29.497Z</time>
      </trkpt>
      <trkpt lat="48.3414" lon="7.36572">
        <ele>365.85033562681</ele>
        <time>2022-04-28T14:38:32.785Z</time>
      </trkpt>
      <trkpt lat="48.34088" lon="7.36494">
        <ele>363.96983585439</ele>
        <time>2022-04-28T14:38:36.084Z</time>
      </trkpt>
      <trkpt lat="48.34038" lon="7.36424">
        <ele>361.8037366781</ele>
        <time>2022-04-28T14:38:39.394Z</time>
      </trkpt>
      <trkpt lat="48.34018" lon="7.36392">
        <ele>359.68392615359</ele>
        <time>2022-04-28T14:38:42.709Z</time>
      </trkpt>
      <trkpt lat="48.34005" lon="7.36382">
        <ele>357.61582987252</ele>
        <time>2022-04-28T14:38:46.026Z</time>
      </trkpt>
      <trkpt lat="48.33968" lon="7.36348">
        <ele>355.37502875338</ele>
        <time>2022-04-28T14:38:49.350Z</time>
      </trkpt>
      <trkpt lat="48.33943" lon="7.36323">
        <ele>353.25022762264</ele>
        <time>2022-04-28T14:38:52.679Z</time>
      </trkpt>
      <trkpt lat="48.33931" lon="7.36307">
        <ele>351.13848177096</ele>
        <time>2022-04-28T14:38:56.011Z</time>
      </trkpt>
      <trkpt lat="48.33915" lon="7.36279">
        <ele>348.95088914023</ele>
        <time>2022-04-28T14:38:59.347Z</time>
      </trkpt>
      <trkpt lat="48.33881" lon="7.36189">
        <ele>346.76655569552</ele>
        <time>2022-04-28T14:39:02.694Z</time>
      </trkpt>
      <trkpt lat="48.3388" lon="7.36177">
        <ele>344.66311040711</ele>
        <time>2022-04-28T14:39:06.042Z</time>
      </trkpt>
      <trkpt lat="48.33873" lon="7.36156">
        <ele>342.56313916742</ele>
        <time>2022-04-28T14:39:09.393Z</time>
      </trkpt>
      <trkpt lat="48.33866" lon="7.36146">
        <ele>340.55929098338</ele>
        <time>2022-04-28T14:39:12.745Z</time>
      </trkpt>
      <trkpt lat="48.33862" lon="7.3613">
        <ele>338.55712360476</ele>
        <time>2022-04-28T14:39:16.099Z</time>
      </trkpt>
      <trkpt lat="48.33844" lon="7.36098">
        <ele>336.60818365808</ele>
        <time>2022-04-28T14:39:19.457Z</time>
      </trkpt>
      <trkpt lat="48.33826" lon="7.36067">
        <ele>334.7911244684</ele>
        <time>2022-04-28T14:39:22.820Z</time>
      </trkpt>
      <trkpt lat="48.33806" lon="7.36026">
        <ele>332.99587068556</ele>
        <time>2022-04-28T14:39:26.188Z</time>
      </trkpt>
      <trkpt lat="48.33783" lon="7.35953">
        <ele>331.11824303177</ele>
        <time>2022-04-28T14:39:29.565Z</time>
      </trkpt>
      <trkpt lat="48.33783" lon="7.35953">
        <ele>329.43190178891</ele>
        <time>2022-04-28T14:39:32.942Z</time>
      </trkpt>
      <trkpt lat="48.33774" lon="7.35921">
        <ele>327.76362301412</ele>
        <time>2022-04-28T14:39:36.322Z</time>
      </trkpt>
      <trkpt lat="48.33768" lon="7.35882">
        <ele>326.0686218198</ele>
        <time>2022-04-28T14:39:39.707Z</time>
      </trkpt>
      <trkpt lat="48.3375" lon="7.35808">
        <ele>324.3414749083</ele>
        <time>2022-04-28T14:39:43.100Z</time>
      </trkpt>
      <trkpt lat="48.33748" lon="7.35801">
        <ele>322.79546890005</ele>
        <time>2022-04-28T14:39:46.494Z</time>
      </trkpt>
      <trkpt lat="48.33742" lon="7.35769">
        <ele>321.28648175948</ele>
        <time>2022-04-28T14:39:49.892Z</time>
      </trkpt>
      <trkpt lat="48.33742" lon="7.35769">
        <ele>319.80292176694</ele>
        <time>2022-04-28T14:39:53.290Z</time>
      </trkpt>
      <trkpt lat="48.33728" lon="7.35708">
        <ele>318.38774917871</ele>
        <time>2022-04-28T14:39:56.694Z</time>
      </trkpt>
      <trkpt lat="48.33726" lon="7.35688">
        <ele>316.90248047707</ele>
        <time>2022-04-28T14:40:00.101Z</time>
      </trkpt>
      <trkpt lat="48.33725" lon="7.35667">
        <ele>315.45646205617</ele>
        <time>2022-04-28T14:40:03.510Z</time>
      </trkpt>
      <trkpt lat="48.33723" lon="7.35625">
        <ele>313.95809200471</ele>
        <time>2022-04-28T14:40:06.923Z</time>
      </trkpt>
      <trkpt lat="48.33726" lon="7.35569">
        <ele>312.37002453075</ele>
        <time>2022-04-28T14:40:10.342Z</time>
      </trkpt>
      <trkpt lat="48.33732" lon="7.35518">
        <ele>310.7657489963</ele>
        <time>2022-04-28T14:40:13.767Z</time>
      </trkpt>
      <trkpt lat="48.33739" lon="7.35471">
        <ele>309.20680986501</ele>
        <time>2022-04-28T14:40:17.197Z</time>
      </trkpt>
      <trkpt lat="48.33743" lon="7.35448">
        <ele>307.77878015293</ele>
        <time>2022-04-28T14:40:20.630Z</time>
      </trkpt>
      <trkpt lat="48.33747" lon="7.3543">
        <ele>306.35835453532</ele>
        <time>2022-04-28T14:40:24.065Z</time>
      </trkpt>
      <trkpt lat="48.3375" lon="7.35391">
        <ele>304.96791336493</ele>
        <time>2022-04-28T14:40:27.504Z</time>
      </trkpt>
      <trkpt lat="48.3375" lon="7.35357">
        <ele>303.64871252632</ele>
        <time>2022-04-28T14:40:30.946Z</time>
      </trkpt>
      <trkpt lat="48.3375" lon="7.35348">
        <ele>302.35930962947</ele>
        <time>2022-04-28T14:40:34.389Z</time>
      </trkpt>
      <trkpt lat="48.3375" lon="7.3532">
        <ele>301.07440109207</ele>
        <time>2022-04-28T14:40:37.835Z</time>
      </trkpt>
      <trkpt lat="48.33744" lon="7.35258">
        <ele>299.7295345314</ele>
        <time>2022-04-28T14:40:41.288Z</time>
      </trkpt>
      <trkpt lat="48.3374" lon="7.35239">
        <ele>298.54263303174</ele>
        <time>2022-04-28T14:40:44.743Z</time>
      </trkpt>
      <trkpt lat="48.33737" lon="7.3522">
        <ele>297.45080111696</ele>
        <time>2022-04-28T14:40:48.200Z</time>
      </trkpt>
      <trkpt lat="48.33724" lon="7.35183">
        <ele>296.32970205425</ele>
        <time>2022-04-28T14:40:51.662Z</time>
      </trkpt>
      <trkpt lat="48.33708" lon="7.35155">
        <ele>295.3622955866</ele>
        <time>2022-04-28T14:40:55.128Z</time>
      </trkpt>
      <trkpt lat="48.33702" lon="7.35146">
        <ele>294.55938792646</ele>
        <time>2022-04-28T14:40:58.595Z</time>
      </trkpt>
      <trkpt lat="48.33687" lon="7.3513">
        <ele>293.85524425037</ele>
        <time>2022-04-28T14:41:02.065Z</time>
      </trkpt>
      <trkpt lat="48.33661" lon="7.35111">
        <ele>293.18028156738</ele>
        <time>2022-04-28T14:41:05.539Z</time>
      </trkpt>
      <trkpt lat="48.33649" lon="7.35106">
        <ele>292.61523073069</ele>
        <time>2022-04-28T14:41:09.016Z</time>
      </trkpt>
      <trkpt lat="48.33642" lon="7.35106">
        <ele>292.2385163778</ele>
        <time>2022-04-28T14:41:12.494Z</time>
      </trkpt>
      <trkpt lat="48.33624" lon="7.35109">
        <ele>291.95322189246</ele>
        <time>2022-04-28T14:41:15.975Z</time>
      </trkpt>
      <trkpt lat="48.33624" lon="7.35107">
        <ele>291.90703029493</ele>
        <time>2022-04-28T14:41:19.456Z</time>
      </trkpt>
      <trkpt lat="48.33624" lon="7.35107">
        <ele>292.01422703418</ele>
        <time>2022-04-28T14:41:22.937Z</time>
      </trkpt>
      <trkpt lat="48.33619" lon="7.35098">
        <ele>292.25382698794</ele>
        <time>2022-04-28T14:41:26.419Z</time>
      </trkpt>
      <trkpt lat="48.33615" lon="7.35098">
        <ele>292.65645214277</ele>
        <time>2022-04-28T14:41:29.902Z</time>
      </trkpt>
      <trkpt lat="48.33609" lon="7.35103">
        <ele>293.20146728202</ele>
        <time>2022-04-28T14:41:33.386Z</time>
      </trkpt>
      <trkpt lat="48.33606" lon="7.35101">
        <ele>293.91735449096</ele>
        <time>2022-04-28T14:41:36.870Z</time>
      </trkpt>
      <trkpt lat="48.33595" lon="7.35099">
        <ele>294.81060333227</ele>
        <time>2022-04-28T14:41:40.356Z</time>
      </trkpt>
      <trkpt lat="48.33587" lon="7.35097">
        <ele>295.84118020141</ele>
        <time>2022-04-28T14:41:43.843Z</time>
      </trkpt>
      <trkpt lat="48.33563" lon="7.35088">
        <ele>297.04036201922</ele>
        <time>2022-04-28T14:41:47.334Z</time>
      </trkpt>
      <trkpt lat="48.33542" lon="7.35074">
        <ele>298.34889805589</ele>
        <time>2022-04-28T14:41:50.829Z</time>
      </trkpt>
      <trkpt lat="48.33526" lon="7.35057">
        <ele>299.77138783003</ele>
        <time>2022-04-28T14:41:54.327Z</time>
      </trkpt>
      <trkpt lat="48.3351" lon="7.35029">
        <ele>301.40563163502</ele>
        <time>2022-04-28T14:41:57.829Z</time>
      </trkpt>
      <trkpt lat="48.33498" lon="7.34999">
        <ele>303.13520196695</ele>
        <time>2022-04-28T14:42:01.335Z</time>
      </trkpt>
      <trkpt lat="48.33493" lon="7.34974">
        <ele>304.93207171867</ele>
        <time>2022-04-28T14:42:04.844Z</time>
      </trkpt>
      <trkpt lat="48.33481" lon="7.34878">
        <ele>306.9259743835</ele>
        <time>2022-04-28T14:42:08.363Z</time>
      </trkpt>
      <trkpt lat="48.33462" lon="7.34688">
        <ele>308.97947411968</ele>
        <time>2022-04-28T14:42:11.903Z</time>
      </trkpt>
      <trkpt lat="48.33452" lon="7.34596">
        <ele>310.58638571682</ele>
        <time>2022-04-28T14:42:15.453Z</time>
      </trkpt>
      <trkpt lat="48.33452" lon="7.34582">
        <ele>312.26070558181</ele>
        <time>2022-04-28T14:42:19.004Z</time>
      </trkpt>
      <trkpt lat="48.33453" lon="7.34555">
        <ele>313.96822381738</ele>
        <time>2022-04-28T14:42:22.558Z</time>
      </trkpt>
      <trkpt lat="48.33459" lon="7.34535">
        <ele>315.62076311209</ele>
        <time>2022-04-28T14:42:26.114Z</time>
      </trkpt>
      <trkpt lat="48.33466" lon="7.34514">
        <ele>317.15364845233</ele>
        <time>2022-04-28T14:42:29.673Z</time>
      </trkpt>
      <trkpt lat="48.33472" lon="7.34507">
        <ele>318.59052711142</ele>
        <time>2022-04-28T14:42:33.233Z</time>
      </trkpt>
      <trkpt lat="48.33485" lon="7.34493">
        <ele>320.00180306354</ele>
        <time>2022-04-28T14:42:36.796Z</time>
      </trkpt>
      <trkpt lat="48.33501" lon="7.34485">
        <ele>321.24372959836</ele>
        <time>2022-04-28T14:42:40.361Z</time>
      </trkpt>
      <trkpt lat="48.33517" lon="7.34484">
        <ele>322.34854068096</ele>
        <time>2022-04-28T14:42:43.929Z</time>
      </trkpt>
      <trkpt lat="48.33565" lon="7.3449">
        <ele>323.40438551955</ele>
        <time>2022-04-28T14:42:47.504Z</time>
      </trkpt>
      <trkpt lat="48.33577" lon="7.34489">
        <ele>324.23484427688</ele>
        <time>2022-04-28T14:42:51.081Z</time>
      </trkpt>
      <trkpt lat="48.33588" lon="7.34486">
        <ele>324.92728804064</ele>
        <time>2022-04-28T14:42:54.660Z</time>
      </trkpt>
      <trkpt lat="48.3364" lon="7.34464">
        <ele>325.2941331083</ele>
        <time>2022-04-28T14:42:58.248Z</time>
      </trkpt>
      <trkpt lat="48.33673" lon="7.34456">
        <ele>325.62327865376</ele>
        <time>2022-04-28T14:43:01.841Z</time>
      </trkpt>
      <trkpt lat="48.33799" lon="7.34459">
        <ele>325.54180660807</ele>
        <time>2022-04-28T14:43:05.454Z</time>
      </trkpt>
      <trkpt lat="48.33799" lon="7.34459">
        <ele>325.71569042386</ele>
        <time>2022-04-28T14:43:09.067Z</time>
      </trkpt>
      <trkpt lat="48.33814" lon="7.3446">
        <ele>325.75275308232</ele>
        <time>2022-04-28T14:43:12.683Z</time>
      </trkpt>
      <trkpt lat="48.33843" lon="7.34453">
        <ele>325.6342634713</ele>
        <time>2022-04-28T14:43:16.303Z</time>
      </trkpt>
      <trkpt lat="48.33857" lon="7.34448">
        <ele>325.38010419518</ele>
        <time>2022-04-28T14:43:19.926Z</time>
      </trkpt>
      <trkpt lat="48.33875" lon="7.34434">
        <ele>325.07202395135</ele>
        <time>2022-04-28T14:43:23.552Z</time>
      </trkpt>
      <trkpt lat="48.33896" lon="7.3441">
        <ele>324.61033855729</ele>
        <time>2022-04-28T14:43:27.182Z</time>
      </trkpt>
      <trkpt lat="48.33908" lon="7.34386">
        <ele>324.07973889903</ele>
        <time>2022-04-28T14:43:30.815Z</time>
      </trkpt>
      <trkpt lat="48.33919" lon="7.3436">
        <ele>323.39032700388</ele>
        <time>2022-04-28T14:43:34.452Z</time>
      </trkpt>
      <trkpt lat="48.33935" lon="7.34282">
        <ele>322.74522790751</ele>
        <time>2022-04-28T14:43:38.097Z</time>
      </trkpt>
      <trkpt lat="48.33952" lon="7.34192">
        <ele>322.01061532212</ele>
        <time>2022-04-28T14:43:41.752Z</time>
      </trkpt>
      <trkpt lat="48.33954" lon="7.34169">
        <ele>320.9386368928</ele>
        <time>2022-04-28T14:43:45.410Z</time>
      </trkpt>
      <trkpt lat="48.33956" lon="7.34101">
        <ele>319.81179847563</ele>
        <time>2022-04-28T14:43:49.075Z</time>
      </trkpt>
      <trkpt lat="48.33953" lon="7.34012">
        <ele>318.39194130415</ele>
        <time>2022-04-28T14:43:52.750Z</time>
      </trkpt>
      <trkpt lat="48.33953" lon="7.34012">
        <ele>316.75617656003</ele>
        <time>2022-04-28T14:43:56.425Z</time>
      </trkpt>
      <trkpt lat="48.33953" lon="7.33992">
        <ele>314.91169167664</ele>
        <time>2022-04-28T14:44:00.102Z</time>
      </trkpt>
      <trkpt lat="48.33953" lon="7.33992">
        <ele>312.94254460178</ele>
        <time>2022-04-28T14:44:03.779Z</time>
      </trkpt>
      <trkpt lat="48.33946" lon="7.33791">
        <ele>310.40021565219</ele>
        <time>2022-04-28T14:44:07.477Z</time>
      </trkpt>
      <trkpt lat="48.33941" lon="7.33744">
        <ele>308.0000123889</ele>
        <time>2022-04-28T14:44:11.180Z</time>
      </trkpt>
      <trkpt lat="48.33938" lon="7.33719">
        <ele>305.50914697855</ele>
        <time>2022-04-28T14:44:14.886Z</time>
      </trkpt>
      <trkpt lat="48.33926" lon="7.33656">
        <ele>302.84629138895</ele>
        <time>2022-04-28T14:44:18.599Z</time>
      </trkpt>
      <trkpt lat="48.33891" lon="7.33509">
        <ele>299.68098616913</ele>
        <time>2022-04-28T14:44:22.329Z</time>
      </trkpt>
      <trkpt lat="48.33875" lon="7.33449">
        <ele>296.77882356862</ele>
        <time>2022-04-28T14:44:26.066Z</time>
      </trkpt>
      <trkpt lat="48.33807" lon="7.33228">
        <ele>293.74764230793</ele>
        <time>2022-04-28T14:44:29.829Z</time>
      </trkpt>
      <trkpt lat="48.33798" lon="7.33187">
        <ele>290.9915210367</ele>
        <time>2022-04-28T14:44:33.596Z</time>
      </trkpt>
      <trkpt lat="48.33789" lon="7.33132">
        <ele>288.26598299832</ele>
        <time>2022-04-28T14:44:37.369Z</time>
      </trkpt>
      <trkpt lat="48.33789" lon="7.33132">
        <ele>285.63991907752</ele>
        <time>2022-04-28T14:44:41.142Z</time>
      </trkpt>
      <trkpt lat="48.33777" lon="7.33012">
        <ele>282.84220483778</ele>
        <time>2022-04-28T14:44:44.928Z</time>
      </trkpt>
      <trkpt lat="48.3377" lon="7.32959">
        <ele>280.17893030609</ele>
        <time>2022-04-28T14:44:48.720Z</time>
      </trkpt>
      <trkpt lat="48.3377" lon="7.32959">
        <ele>277.73930422225</ele>
        <time>2022-04-28T14:44:52.512Z</time>
      </trkpt>
      <trkpt lat="48.33759" lon="7.3291">
        <ele>275.32976788752</ele>
        <time>2022-04-28T14:44:56.309Z</time>
      </trkpt>
      <trkpt lat="48.33758" lon="7.32891">
        <ele>273.05461105908</ele>
        <time>2022-04-28T14:45:00.109Z</time>
      </trkpt>
      <trkpt lat="48.33755" lon="7.32873">
        <ele>270.89299573513</ele>
        <time>2022-04-28T14:45:03.911Z</time>
      </trkpt>
      <trkpt lat="48.33753" lon="7.32862">
        <ele>268.8442713273</ele>
        <time>2022-04-28T14:45:07.714Z</time>
      </trkpt>
      <trkpt lat="48.33746" lon="7.32849">
        <ele>266.91984893093</ele>
        <time>2022-04-28T14:45:11.518Z</time>
      </trkpt>
      <trkpt lat="48.33741" lon="7.32819">
        <ele>265.0770359271</ele>
        <time>2022-04-28T14:45:15.326Z</time>
      </trkpt>
      <trkpt lat="48.33729" lon="7.32733">
        <ele>263.24546924041</ele>
        <time>2022-04-28T14:45:19.143Z</time>
      </trkpt>
      <trkpt lat="48.3372" lon="7.32563">
        <ele>261.30626064553</ele>
        <time>2022-04-28T14:45:22.978Z</time>
      </trkpt>
      <trkpt lat="48.33724" lon="7.32537">
        <ele>259.91575263932</ele>
        <time>2022-04-28T14:45:26.816Z</time>
      </trkpt>
      <trkpt lat="48.33676" lon="7.32505">
        <ele>258.59433733858</ele>
        <time>2022-04-28T14:45:30.663Z</time>
      </trkpt>
      <trkpt lat="48.33669" lon="7.32493">
        <ele>257.49860388223</ele>
        <time>2022-04-28T14:45:34.511Z</time>
      </trkpt>
      <trkpt lat="48.3367" lon="7.32487">
        <ele>256.58016856109</ele>
        <time>2022-04-28T14:45:38.360Z</time>
      </trkpt>
      <trkpt lat="48.3367" lon="7.32475">
        <ele>255.79733334546</ele>
        <time>2022-04-28T14:45:42.210Z</time>
      </trkpt>
      <trkpt lat="48.3369" lon="7.32392">
        <ele>255.15523344178</ele>
        <time>2022-04-28T14:45:46.070Z</time>
      </trkpt>
      <trkpt lat="48.33694" lon="7.32372">
        <ele>254.67934192795</ele>
        <time>2022-04-28T14:45:49.932Z</time>
      </trkpt>
      <trkpt lat="48.33709" lon="7.32326">
        <ele>254.3506523979</ele>
        <time>2022-04-28T14:45:53.799Z</time>
      </trkpt>
      <trkpt lat="48.33735" lon="7.32256">
        <ele>254.00673886135</ele>
        <time>2022-04-28T14:45:57.675Z</time>
      </trkpt>
      <trkpt lat="48.33757" lon="7.32206">
        <ele>253.89679922833</ele>
        <time>2022-04-28T14:46:01.557Z</time>
      </trkpt>
      <trkpt lat="48.33783" lon="7.32156">
        <ele>254.0518737256</ele>
        <time>2022-04-28T14:46:05.446Z</time>
      </trkpt>
      <trkpt lat="48.33819" lon="7.32091">
        <ele>254.16115134399</ele>
        <time>2022-04-28T14:46:09.344Z</time>
      </trkpt>
      <trkpt lat="48.33835" lon="7.32071">
        <ele>254.41436634442</ele>
        <time>2022-04-28T14:46:13.245Z</time>
      </trkpt>
      <trkpt lat="48.33858" lon="7.32039">
        <ele>254.89623987652</ele>
        <time>2022-04-28T14:46:17.151Z</time>
      </trkpt>
      <trkpt lat="48.33871" lon="7.32016">
        <ele>255.36094390223</ele>
        <time>2022-04-28T14:46:21.061Z</time>
      </trkpt>
      <trkpt lat="48.33887" lon="7.31978">
        <ele>255.78009692876</ele>
        <time>2022-04-28T14:46:24.975Z</time>
      </trkpt>
      <trkpt lat="48.33895" lon="7.31952">
        <ele>256.16198492286</ele>
        <time>2022-04-28T14:46:28.893Z</time>
      </trkpt>
      <trkpt lat="48.33939" lon="7.3187">
        <ele>256.55735716554</ele>
        <time>2022-04-28T14:46:32.822Z</time>
      </trkpt>
      <trkpt lat="48.34" lon="7.31757">
        <ele>256.89563315107</ele>
        <time>2022-04-28T14:46:36.766Z</time>
      </trkpt>
      <trkpt lat="48.34013" lon="7.31727">
        <ele>257.29900287332</ele>
        <time>2022-04-28T14:46:40.714Z</time>
      </trkpt>
      <trkpt lat="48.34025" lon="7.31693">
        <ele>257.71061312808</ele>
        <time>2022-04-28T14:46:44.666Z</time>
      </trkpt>
      <trkpt lat="48.34035" lon="7.31644">
        <ele>258.09081164493</ele>
        <time>2022-04-28T14:46:48.624Z</time>
      </trkpt>
      <trkpt lat="48.3404" lon="7.31604">
        <ele>258.43470594245</ele>
        <time>2022-04-28T14:46:52.586Z</time>
      </trkpt>
      <trkpt lat="48.34051" lon="7.31402">
        <ele>258.50952184668</ele>
        <time>2022-04-28T14:46:56.570Z</time>
      </trkpt>
      <trkpt lat="48.34053" lon="7.31377">
        <ele>258.8985696658</ele>
        <time>2022-04-28T14:47:00.556Z</time>
      </trkpt>
      <trkpt lat="48.34063" lon="7.31301">
        <ele>259.29699994427</ele>
        <time>2022-04-28T14:47:04.551Z</time>
      </trkpt>
      <trkpt lat="48.34086" lon="7.31112">
        <ele>259.62889543102</ele>
        <time>2022-04-28T14:47:08.566Z</time>
      </trkpt>
      <trkpt lat="48.34095" lon="7.31081">
        <ele>260.17383541126</ele>
        <time>2022-04-28T14:47:12.585Z</time>
      </trkpt>
      <trkpt lat="48.341" lon="7.31081">
        <ele>260.62973853473</ele>
        <time>2022-04-28T14:47:16.605Z</time>
      </trkpt>
      <trkpt lat="48.34105" lon="7.31076">
        <ele>261.11247559924</ele>
        <time>2022-04-28T14:47:20.625Z</time>
      </trkpt>
      <trkpt lat="48.34106" lon="7.31064">
        <ele>261.62178110427</ele>
        <time>2022-04-28T14:47:24.647Z</time>
      </trkpt>
      <trkpt lat="48.34101" lon="7.31059">
        <ele>262.13031752132</ele>
        <time>2022-04-28T14:47:28.670Z</time>
      </trkpt>
      <trkpt lat="48.34112" lon="7.31021">
        <ele>262.75323693285</ele>
        <time>2022-04-28T14:47:32.697Z</time>
      </trkpt>
      <trkpt lat="48.34151" lon="7.30909">
        <ele>263.32477316956</ele>
        <time>2022-04-28T14:47:36.737Z</time>
      </trkpt>
      <trkpt lat="48.34162" lon="7.30887">
        <ele>263.92569305235</ele>
        <time>2022-04-28T14:47:40.780Z</time>
      </trkpt>
      <trkpt lat="48.34173" lon="7.30873">
        <ele>264.59006945913</ele>
        <time>2022-04-28T14:47:44.826Z</time>
      </trkpt>
      <trkpt lat="48.34198" lon="7.30848">
        <ele>265.27685490604</ele>
        <time>2022-04-28T14:47:48.876Z</time>
      </trkpt>
      <trkpt lat="48.3421" lon="7.30835">
        <ele>265.95103859515</ele>
        <time>2022-04-28T14:47:52.929Z</time>
      </trkpt>
      <trkpt lat="48.34242" lon="7.30804">
        <ele>266.68869696882</ele>
        <time>2022-04-28T14:47:56.988Z</time>
      </trkpt>
      <trkpt lat="48.34256" lon="7.30789">
        <ele>267.39381217172</ele>
        <time>2022-04-28T14:48:01.050Z</time>
      </trkpt>
      <trkpt lat="48.34261" lon="7.30782">
        <ele>268.1126026014</ele>
        <time>2022-04-28T14:48:05.113Z</time>
      </trkpt>
      <trkpt lat="48.3428" lon="7.30754">
        <ele>268.8646822084</ele>
        <time>2022-04-28T14:48:09.180Z</time>
      </trkpt>
      <trkpt lat="48.34294" lon="7.30731">
        <ele>269.5939679969</ele>
        <time>2022-04-28T14:48:13.250Z</time>
      </trkpt>
      <trkpt lat="48.34334" lon="7.30665">
        <ele>270.38053152027</ele>
        <time>2022-04-28T14:48:17.330Z</time>
      </trkpt>
      <trkpt lat="48.34389" lon="7.30565">
        <ele>271.35680040507</ele>
        <time>2022-04-28T14:48:21.424Z</time>
      </trkpt>
      <trkpt lat="48.34408" lon="7.30526">
        <ele>272.23339422382</ele>
        <time>2022-04-28T14:48:25.523Z</time>
      </trkpt>
      <trkpt lat="48.34418" lon="7.30503">
        <ele>273.11081186598</ele>
        <time>2022-04-28T14:48:29.625Z</time>
      </trkpt>
      <trkpt lat="48.34424" lon="7.305">
        <ele>273.99083704679</ele>
        <time>2022-04-28T14:48:33.728Z</time>
      </trkpt>
      <trkpt lat="48.34424" lon="7.305">
        <ele>274.85370036873</ele>
        <time>2022-04-28T14:48:37.831Z</time>
      </trkpt>
      <trkpt lat="48.34435" lon="7.30494">
        <ele>275.7503335129</ele>
        <time>2022-04-28T14:48:41.936Z</time>
      </trkpt>
      <trkpt lat="48.34446" lon="7.3048">
        <ele>276.62852485346</ele>
        <time>2022-04-28T14:48:46.043Z</time>
      </trkpt>
      <trkpt lat="48.34584" lon="7.3029">
        <ele>277.94911479401</ele>
        <time>2022-04-28T14:48:50.180Z</time>
      </trkpt>
      <trkpt lat="48.34599" lon="7.30265">
        <ele>278.79929364462</ele>
        <time>2022-04-28T14:48:54.321Z</time>
      </trkpt>
      <trkpt lat="48.34609" lon="7.30242">
        <ele>279.63370170845</ele>
        <time>2022-04-28T14:48:58.465Z</time>
      </trkpt>
      <trkpt lat="48.34674" lon="7.30046">
        <ele>280.51741607761</ele>
        <time>2022-04-28T14:49:02.632Z</time>
      </trkpt>
      <trkpt lat="48.34674" lon="7.30046">
        <ele>281.27225555757</ele>
        <time>2022-04-28T14:49:06.799Z</time>
      </trkpt>
      <trkpt lat="48.347" lon="7.2997">
        <ele>281.9449486306</ele>
        <time>2022-04-28T14:49:10.975Z</time>
      </trkpt>
      <trkpt lat="48.34733" lon="7.29872">
        <ele>282.50265829242</ele>
        <time>2022-04-28T14:49:15.163Z</time>
      </trkpt>
      <trkpt lat="48.34733" lon="7.29872">
        <ele>283.1544175192</ele>
        <time>2022-04-28T14:49:19.351Z</time>
      </trkpt>
      <trkpt lat="48.34755" lon="7.29812">
        <ele>283.76896088764</ele>
        <time>2022-04-28T14:49:23.546Z</time>
      </trkpt>
      <trkpt lat="48.34779" lon="7.29736">
        <ele>284.60894686118</ele>
        <time>2022-04-28T14:49:27.750Z</time>
      </trkpt>
      <trkpt lat="48.34829" lon="7.29492">
        <ele>285.33954607488</ele>
        <time>2022-04-28T14:49:31.981Z</time>
      </trkpt>
      <trkpt lat="48.34829" lon="7.29492">
        <ele>285.83983451205</ele>
        <time>2022-04-28T14:49:36.212Z</time>
      </trkpt>
      <trkpt lat="48.34836" lon="7.29459">
        <ele>286.29925098712</ele>
        <time>2022-04-28T14:49:40.447Z</time>
      </trkpt>
      <trkpt lat="48.34852" lon="7.29406">
        <ele>286.7112370823</ele>
        <time>2022-04-28T14:49:44.688Z</time>
      </trkpt>
      <trkpt lat="48.34852" lon="7.29406">
        <ele>287.09456267316</ele>
        <time>2022-04-28T14:49:48.929Z</time>
      </trkpt>
      <trkpt lat="48.34864" lon="7.29371">
        <ele>287.44564384656</ele>
        <time>2022-04-28T14:49:53.174Z</time>
      </trkpt>
      <trkpt lat="48.34883" lon="7.29331">
        <ele>287.82579146315</ele>
        <time>2022-04-28T14:49:57.425Z</time>
      </trkpt>
      <trkpt lat="48.34897" lon="7.29317">
        <ele>288.18384926181</ele>
        <time>2022-04-28T14:50:01.678Z</time>
      </trkpt>
      <trkpt lat="48.34901" lon="7.29318">
        <ele>288.4903411285</ele>
        <time>2022-04-28T14:50:05.932Z</time>
      </trkpt>
      <trkpt lat="48.34905" lon="7.29317">
        <ele>288.77777490276</ele>
        <time>2022-04-28T14:50:10.187Z</time>
      </trkpt>
      <trkpt lat="48.34908" lon="7.29313">
        <ele>289.02823854042</ele>
        <time>2022-04-28T14:50:14.442Z</time>
      </trkpt>
      <trkpt lat="48.34909" lon="7.29309">
        <ele>289.26682448223</ele>
        <time>2022-04-28T14:50:18.698Z</time>
      </trkpt>
      <trkpt lat="48.34908" lon="7.29303">
        <ele>289.49596052498</ele>
        <time>2022-04-28T14:50:22.954Z</time>
      </trkpt>
      <trkpt lat="48.34906" lon="7.29297">
        <ele>289.7417464846</ele>
        <time>2022-04-28T14:50:27.211Z</time>
      </trkpt>
      <trkpt lat="48.34908" lon="7.2927">
        <ele>289.91995355538</ele>
        <time>2022-04-28T14:50:31.471Z</time>
      </trkpt>
      <trkpt lat="48.34912" lon="7.29255">
        <ele>290.21892235527</ele>
        <time>2022-04-28T14:50:35.733Z</time>
      </trkpt>
      <trkpt lat="48.34952" lon="7.29139">
        <ele>290.4980059098</ele>
        <time>2022-04-28T14:50:40.009Z</time>
      </trkpt>
      <trkpt lat="48.34977" lon="7.29066">
        <ele>291.08850916378</ele>
        <time>2022-04-28T14:50:44.293Z</time>
      </trkpt>
      <trkpt lat="48.35008" lon="7.28971">
        <ele>291.78178072796</ele>
        <time>2022-04-28T14:50:48.589Z</time>
      </trkpt>
      <trkpt lat="48.35024" lon="7.28925">
        <ele>292.40330806248</ele>
        <time>2022-04-28T14:50:52.890Z</time>
      </trkpt>
      <trkpt lat="48.35036" lon="7.28935">
        <ele>293.04534434796</ele>
        <time>2022-04-28T14:50:57.194Z</time>
      </trkpt>
      <trkpt lat="48.35054" lon="7.28949">
        <ele>293.7502145339</ele>
        <time>2022-04-28T14:51:01.501Z</time>
      </trkpt>
      <trkpt lat="48.3506" lon="7.28949">
        <ele>294.47921416611</ele>
        <time>2022-04-28T14:51:05.809Z</time>
      </trkpt>
      <trkpt lat="48.3506" lon="7.28949">
        <ele>295.28246493702</ele>
        <time>2022-04-28T14:51:10.117Z</time>
      </trkpt>
      <trkpt lat="48.35078" lon="7.28944">
        <ele>296.15407943616</ele>
        <time>2022-04-28T14:51:14.428Z</time>
      </trkpt>
      <trkpt lat="48.35157" lon="7.28888">
        <ele>297.32584694372</ele>
        <time>2022-04-28T14:51:18.753Z</time>
      </trkpt>
      <trkpt lat="48.35174" lon="7.28877">
        <ele>298.40833679338</ele>
        <time>2022-04-28T14:51:23.081Z</time>
      </trkpt>
      <trkpt lat="48.35191" lon="7.28869">
        <ele>299.54832277807</ele>
        <time>2022-04-28T14:51:27.412Z</time>
      </trkpt>
      <trkpt lat="48.35255" lon="7.2886">
        <ele>300.7196641613</ele>
        <time>2022-04-28T14:51:31.753Z</time>
      </trkpt>
      <trkpt lat="48.35316" lon="7.2884">
        <ele>302.12614189565</ele>
        <time>2022-04-28T14:51:36.104Z</time>
      </trkpt>
      <trkpt lat="48.3533" lon="7.28836">
        <ele>303.29150884746</ele>
        <time>2022-04-28T14:51:40.457Z</time>
      </trkpt>
      <trkpt lat="48.35418" lon="7.28796">
        <ele>304.54822410051</ele>
        <time>2022-04-28T14:51:44.825Z</time>
      </trkpt>
      <trkpt lat="48.35436" lon="7.28792">
        <ele>305.75508122472</ele>
        <time>2022-04-28T14:51:49.196Z</time>
      </trkpt>
      <trkpt lat="48.35456" lon="7.28793">
        <ele>306.99349497409</ele>
        <time>2022-04-28T14:51:53.570Z</time>
      </trkpt>
      <trkpt lat="48.35464" lon="7.28794">
        <ele>308.23290559552</ele>
        <time>2022-04-28T14:51:57.945Z</time>
      </trkpt>
      <trkpt lat="48.35481" lon="7.28801">
        <ele>309.47400127327</ele>
        <time>2022-04-28T14:52:02.323Z</time>
      </trkpt>
      <trkpt lat="48.3558" lon="7.28836">
        <ele>310.5502868164</ele>
        <time>2022-04-28T14:52:06.717Z</time>
      </trkpt>
      <trkpt lat="48.35625" lon="7.28848">
        <ele>311.96897121511</ele>
        <time>2022-04-28T14:52:11.119Z</time>
      </trkpt>
      <trkpt lat="48.35632" lon="7.28851">
        <ele>313.33938946992</ele>
        <time>2022-04-28T14:52:15.522Z</time>
      </trkpt>
      <trkpt lat="48.35656" lon="7.28855">
        <ele>314.78262369582</ele>
        <time>2022-04-28T14:52:19.929Z</time>
      </trkpt>
      <trkpt lat="48.35674" lon="7.28856">
        <ele>316.22056734058</ele>
        <time>2022-04-28T14:52:24.339Z</time>
      </trkpt>
      <trkpt lat="48.35692" lon="7.28854">
        <ele>317.69131394247</ele>
        <time>2022-04-28T14:52:28.752Z</time>
      </trkpt>
      <trkpt lat="48.35752" lon="7.28842">
        <ele>319.23059748247</ele>
        <time>2022-04-28T14:52:33.174Z</time>
      </trkpt>
      <trkpt lat="48.35796" lon="7.28829">
        <ele>320.73169747798</ele>
        <time>2022-04-28T14:52:37.603Z</time>
      </trkpt>
      <trkpt lat="48.35829" lon="7.28816">
        <ele>322.20365197205</ele>
        <time>2022-04-28T14:52:42.038Z</time>
      </trkpt>
      <trkpt lat="48.35844" lon="7.28813">
        <ele>323.70884011327</ele>
        <time>2022-04-28T14:52:46.475Z</time>
      </trkpt>
      <trkpt lat="48.35866" lon="7.28816">
        <ele>325.23727956863</ele>
        <time>2022-04-28T14:52:50.916Z</time>
      </trkpt>
      <trkpt lat="48.35888" lon="7.28829">
        <ele>326.83725014611</ele>
        <time>2022-04-28T14:52:55.360Z</time>
      </trkpt>
      <trkpt lat="48.35888" lon="7.28829">
        <ele>328.38361096088</ele>
        <time>2022-04-28T14:52:59.804Z</time>
      </trkpt>
      <trkpt lat="48.35912" lon="7.28855">
        <ele>330.09057997862</ele>
        <time>2022-04-28T14:53:04.253Z</time>
      </trkpt>
      <trkpt lat="48.3595" lon="7.28898">
        <ele>331.82805439987</ele>
        <time>2022-04-28T14:53:08.710Z</time>
      </trkpt>
      <trkpt lat="48.35978" lon="7.2892">
        <ele>333.46950074833</ele>
        <time>2022-04-28T14:53:13.172Z</time>
      </trkpt>
      <trkpt lat="48.36006" lon="7.28935">
        <ele>335.13246522058</ele>
        <time>2022-04-28T14:53:17.639Z</time>
      </trkpt>
      <trkpt lat="48.36074" lon="7.28958">
        <ele>337.07600759179</ele>
        <time>2022-04-28T14:53:22.117Z</time>
      </trkpt>
      <trkpt lat="48.3612" lon="7.28974">
        <ele>338.96238563876</ele>
        <time>2022-04-28T14:53:26.603Z</time>
      </trkpt>
      <trkpt lat="48.3612" lon="7.28974">
        <ele>340.51723747455</ele>
        <time>2022-04-28T14:53:31.089Z</time>
      </trkpt>
      <trkpt lat="48.36166" lon="7.2899">
        <ele>342.14305797575</ele>
        <time>2022-04-28T14:53:35.582Z</time>
      </trkpt>
      <trkpt lat="48.36196" lon="7.28991">
        <ele>343.74857246959</ele>
        <time>2022-04-28T14:53:40.080Z</time>
      </trkpt>
      <trkpt lat="48.36213" lon="7.28988">
        <ele>345.27736979644</ele>
        <time>2022-04-28T14:53:44.581Z</time>
      </trkpt>
      <trkpt lat="48.36234" lon="7.28979">
        <ele>346.78608784979</ele>
        <time>2022-04-28T14:53:49.085Z</time>
      </trkpt>
      <trkpt lat="48.36303" lon="7.28943">
        <ele>348.30153072358</ele>
        <time>2022-04-28T14:53:53.601Z</time>
      </trkpt>
      <trkpt lat="48.36322" lon="7.28925">
        <ele>349.73060903514</ele>
        <time>2022-04-28T14:53:58.120Z</time>
      </trkpt>
      <trkpt lat="48.36346" lon="7.28882">
        <ele>351.08259700212</ele>
        <time>2022-04-28T14:54:02.645Z</time>
      </trkpt>
      <trkpt lat="48.36359" lon="7.28859">
        <ele>352.43185024095</ele>
        <time>2022-04-28T14:54:07.174Z</time>
      </trkpt>
      <trkpt lat="48.36404" lon="7.28799">
        <ele>354.01250758638</ele>
        <time>2022-04-28T14:54:11.712Z</time>
      </trkpt>
      <trkpt lat="48.36413" lon="7.28792">
        <ele>355.38454272102</ele>
        <time>2022-04-28T14:54:16.252Z</time>
      </trkpt>
      <trkpt lat="48.36424" lon="7.28791">
        <ele>356.76107945</ele>
        <time>2022-04-28T14:54:20.794Z</time>
      </trkpt>
      <trkpt lat="48.36433" lon="7.28795">
        <ele>358.11249288694</ele>
        <time>2022-04-28T14:54:25.337Z</time>
      </trkpt>
      <trkpt lat="48.36436" lon="7.28809">
        <ele>359.41818140835</ele>
        <time>2022-04-28T14:54:29.882Z</time>
      </trkpt>
      <trkpt lat="48.36439" lon="7.28856">
        <ele>360.72314255321</ele>
        <time>2022-04-28T14:54:34.432Z</time>
      </trkpt>
      <trkpt lat="48.36438" lon="7.2894">
        <ele>362.11463527229</ele>
        <time>2022-04-28T14:54:38.991Z</time>
      </trkpt>
      <trkpt lat="48.36439" lon="7.28994">
        <ele>363.59429939536</ele>
        <time>2022-04-28T14:54:43.555Z</time>
      </trkpt>
      <trkpt lat="48.36447" lon="7.29062">
        <ele>365.07766195312</ele>
        <time>2022-04-28T14:54:48.127Z</time>
      </trkpt>
      <trkpt lat="48.36456" lon="7.29103">
        <ele>366.66068001237</ele>
        <time>2022-04-28T14:54:52.703Z</time>
      </trkpt>
      <trkpt lat="48.36464" lon="7.29131">
        <ele>368.25437650676</ele>
        <time>2022-04-28T14:54:57.283Z</time>
      </trkpt>
      <trkpt lat="48.36477" lon="7.29165">
        <ele>369.83739233637</ele>
        <time>2022-04-28T14:55:01.867Z</time>
      </trkpt>
      <trkpt lat="48.36491" lon="7.29194">
        <ele>371.38792640129</ele>
        <time>2022-04-28T14:55:06.455Z</time>
      </trkpt>
      <trkpt lat="48.36496" lon="7.29203">
        <ele>373.00284418511</ele>
        <time>2022-04-28T14:55:11.044Z</time>
      </trkpt>
      <trkpt lat="48.36502" lon="7.29207">
        <ele>374.70762981973</ele>
        <time>2022-04-28T14:55:15.634Z</time>
      </trkpt>
      <trkpt lat="48.36532" lon="7.29219">
        <ele>376.62031094632</ele>
        <time>2022-04-28T14:55:20.229Z</time>
      </trkpt>
      <trkpt lat="48.36545" lon="7.29223">
        <ele>378.46122022648</ele>
        <time>2022-04-28T14:55:24.826Z</time>
      </trkpt>
      <trkpt lat="48.36556" lon="7.29229">
        <ele>380.33159080085</ele>
        <time>2022-04-28T14:55:29.425Z</time>
      </trkpt>
      <trkpt lat="48.36576" lon="7.29246">
        <ele>382.25898626382</ele>
        <time>2022-04-28T14:55:34.028Z</time>
      </trkpt>
      <trkpt lat="48.36582" lon="7.29252">
        <ele>384.20164852343</ele>
        <time>2022-04-28T14:55:38.632Z</time>
      </trkpt>
      <trkpt lat="48.36593" lon="7.29257">
        <ele>386.21202086677</ele>
        <time>2022-04-28T14:55:43.238Z</time>
      </trkpt>
      <trkpt lat="48.36659" lon="7.29273">
        <ele>388.40474267851</ele>
        <time>2022-04-28T14:55:47.854Z</time>
      </trkpt>
      <trkpt lat="48.36746" lon="7.29299">
        <ele>390.90609020201</ele>
        <time>2022-04-28T14:55:52.485Z</time>
      </trkpt>
      <trkpt lat="48.36781" lon="7.29309">
        <ele>393.04248262955</ele>
        <time>2022-04-28T14:55:57.121Z</time>
      </trkpt>
      <trkpt lat="48.36791" lon="7.29309">
        <ele>395.16090248921</ele>
        <time>2022-04-28T14:56:01.759Z</time>
      </trkpt>
      <trkpt lat="48.36829" lon="7.29309">
        <ele>397.45451290845</ele>
        <time>2022-04-28T14:56:06.403Z</time>
      </trkpt>
      <trkpt lat="48.36843" lon="7.29313">
        <ele>399.60228822043</ele>
        <time>2022-04-28T14:56:11.049Z</time>
      </trkpt>
      <trkpt lat="48.36872" lon="7.2933">
        <ele>401.76929191516</ele>
        <time>2022-04-28T14:56:15.700Z</time>
      </trkpt>
      <trkpt lat="48.36882" lon="7.29333">
        <ele>403.84059078109</ele>
        <time>2022-04-28T14:56:20.353Z</time>
      </trkpt>
      <trkpt lat="48.36893" lon="7.29331">
        <ele>405.90404841874</ele>
        <time>2022-04-28T14:56:25.008Z</time>
      </trkpt>
      <trkpt lat="48.36916" lon="7.29316">
        <ele>408.07662271007</ele>
        <time>2022-04-28T14:56:29.667Z</time>
      </trkpt>
      <trkpt lat="48.36943" lon="7.29292">
        <ele>410.12608145359</ele>
        <time>2022-04-28T14:56:34.331Z</time>
      </trkpt>
      <trkpt lat="48.3697" lon="7.29266">
        <ele>412.11351052374</ele>
        <time>2022-04-28T14:56:39.000Z</time>
      </trkpt>
      <trkpt lat="48.36982" lon="7.29264">
        <ele>413.83764470121</ele>
        <time>2022-04-28T14:56:43.671Z</time>
      </trkpt>
      <trkpt lat="48.36997" lon="7.29266">
        <ele>415.4007602286</ele>
        <time>2022-04-28T14:56:48.344Z</time>
      </trkpt>
      <trkpt lat="48.3703" lon="7.29283">
        <ele>416.93830513475</ele>
        <time>2022-04-28T14:56:53.023Z</time>
      </trkpt>
      <trkpt lat="48.37038" lon="7.29284">
        <ele>418.30108644767</ele>
        <time>2022-04-28T14:56:57.703Z</time>
      </trkpt>
      <trkpt lat="48.37045" lon="7.29282">
        <ele>419.56582818841</ele>
        <time>2022-04-28T14:57:02.384Z</time>
      </trkpt>
      <trkpt lat="48.37053" lon="7.29272">
        <ele>420.75345189517</ele>
        <time>2022-04-28T14:57:07.067Z</time>
      </trkpt>
      <trkpt lat="48.37055" lon="7.29259">
        <ele>421.85140537688</ele>
        <time>2022-04-28T14:57:11.751Z</time>
      </trkpt>
      <trkpt lat="48.37055" lon="7.29249">
        <ele>422.81522598729</ele>
        <time>2022-04-28T14:57:16.436Z</time>
      </trkpt>
      <trkpt lat="48.3705" lon="7.29239">
        <ele>423.64856247204</ele>
        <time>2022-04-28T14:57:21.123Z</time>
      </trkpt>
      <trkpt lat="48.37035" lon="7.29223">
        <ele>424.41844559306</ele>
        <time>2022-04-28T14:57:25.813Z</time>
      </trkpt>
      <trkpt lat="48.3701" lon="7.29211">
        <ele>425.07755615329</ele>
        <time>2022-04-28T14:57:30.507Z</time>
      </trkpt>
      <trkpt lat="48.3701" lon="7.29211">
        <ele>425.61295302287</ele>
        <time>2022-04-28T14:57:35.201Z</time>
      </trkpt>
      <trkpt lat="48.37005" lon="7.29208">
        <ele>426.10638203551</ele>
        <time>2022-04-28T14:57:39.896Z</time>
      </trkpt>
      <trkpt lat="48.36992" lon="7.29207">
        <ele>426.5033846498</ele>
        <time>2022-04-28T14:57:44.593Z</time>
      </trkpt>
      <trkpt lat="48.36964" lon="7.29219">
        <ele>426.75781962463</ele>
        <time>2022-04-28T14:57:49.294Z</time>
      </trkpt>
      <trkpt lat="48.36955" lon="7.29216">
        <ele>427.05304626423</ele>
        <time>2022-04-28T14:57:53.997Z</time>
      </trkpt>
      <trkpt lat="48.36952" lon="7.29213">
        <ele>427.37525946319</ele>
        <time>2022-04-28T14:57:58.700Z</time>
      </trkpt>
      <trkpt lat="48.36946" lon="7.29207">
        <ele>427.696682798</ele>
        <time>2022-04-28T14:58:03.405Z</time>
      </trkpt>
      <trkpt lat="48.36939" lon="7.29195">
        <ele>428.05869433217</ele>
        <time>2022-04-28T14:58:08.111Z</time>
      </trkpt>
      <trkpt lat="48.36926" lon="7.29147">
        <ele>428.51226806657</ele>
        <time>2022-04-28T14:58:12.823Z</time>
      </trkpt>
      <trkpt lat="48.36915" lon="7.2913">
        <ele>428.90131990196</ele>
        <time>2022-04-28T14:58:17.537Z</time>
      </trkpt>
      <trkpt lat="48.369" lon="7.29122">
        <ele>429.33097003498</ele>
        <time>2022-04-28T14:58:22.254Z</time>
      </trkpt>
      <trkpt lat="48.36844" lon="7.29124">
        <ele>429.81470101439</ele>
        <time>2022-04-28T14:58:26.980Z</time>
      </trkpt>
      <trkpt lat="48.3682" lon="7.29116">
        <ele>430.61287038781</ele>
        <time>2022-04-28T14:58:31.710Z</time>
      </trkpt>
      <trkpt lat="48.36804" lon="7.29105">
        <ele>431.36446026561</ele>
        <time>2022-04-28T14:58:36.443Z</time>
      </trkpt>
      <trkpt lat="48.368" lon="7.291">
        <ele>432.10877292635</ele>
        <time>2022-04-28T14:58:41.177Z</time>
      </trkpt>
      <trkpt lat="48.36785" lon="7.29077">
        <ele>432.98037322628</ele>
        <time>2022-04-28T14:58:45.914Z</time>
      </trkpt>
      <trkpt lat="48.36779" lon="7.29062">
        <ele>433.85177051712</ele>
        <time>2022-04-28T14:58:50.653Z</time>
      </trkpt>
      <trkpt lat="48.36772" lon="7.29037">
        <ele>434.83689753746</ele>
        <time>2022-04-28T14:58:55.395Z</time>
      </trkpt>
      <trkpt lat="48.36766" lon="7.29005">
        <ele>436.02288605341</ele>
        <time>2022-04-28T14:59:00.140Z</time>
      </trkpt>
      <trkpt lat="48.36759" lon="7.28942">
        <ele>437.49131702707</ele>
        <time>2022-04-28T14:59:04.892Z</time>
      </trkpt>
      <trkpt lat="48.36758" lon="7.28883">
        <ele>438.93880320097</ele>
        <time>2022-04-28T14:59:09.650Z</time>
      </trkpt>
      <trkpt lat="48.36761" lon="7.28825">
        <ele>440.48783577189</ele>
        <time>2022-04-28T14:59:14.415Z</time>
      </trkpt>
      <trkpt lat="48.36765" lon="7.28803">
        <ele>441.94312261896</ele>
        <time>2022-04-28T14:59:19.182Z</time>
      </trkpt>
      <trkpt lat="48.36775" lon="7.28785">
        <ele>443.57756891505</ele>
        <time>2022-04-28T14:59:23.951Z</time>
      </trkpt>
      <trkpt lat="48.36782" lon="7.28777">
        <ele>445.32347196013</ele>
        <time>2022-04-28T14:59:28.722Z</time>
      </trkpt>
      <trkpt lat="48.3679" lon="7.28772">
        <ele>447.1990135184</ele>
        <time>2022-04-28T14:59:33.494Z</time>
      </trkpt>
      <trkpt lat="48.3679" lon="7.28772">
        <ele>449.11615558013</ele>
        <time>2022-04-28T14:59:38.266Z</time>
      </trkpt>
      <trkpt lat="48.36805" lon="7.28769">
        <ele>451.26169038108</ele>
        <time>2022-04-28T14:59:43.041Z</time>
      </trkpt>
      <trkpt lat="48.36821" lon="7.28774">
        <ele>453.47370495993</ele>
        <time>2022-04-28T14:59:47.818Z</time>
      </trkpt>
      <trkpt lat="48.36884" lon="7.28813">
        <ele>455.99935670354</ele>
        <time>2022-04-28T14:59:52.606Z</time>
      </trkpt>
      <trkpt lat="48.36892" lon="7.28815">
        <ele>458.34278585196</ele>
        <time>2022-04-28T14:59:57.396Z</time>
      </trkpt>
      <trkpt lat="48.36899" lon="7.28814">
        <ele>460.76102166828</ele>
        <time>2022-04-28T15:00:02.187Z</time>
      </trkpt>
      <trkpt lat="48.36905" lon="7.28812">
        <ele>463.25139741658</ele>
        <time>2022-04-28T15:00:06.979Z</time>
      </trkpt>
      <trkpt lat="48.36911" lon="7.28807">
        <ele>465.81583743685</ele>
        <time>2022-04-28T15:00:11.772Z</time>
      </trkpt>
      <trkpt lat="48.36923" lon="7.28792">
        <ele>468.50106177614</ele>
        <time>2022-04-28T15:00:16.567Z</time>
      </trkpt>
      <trkpt lat="48.36953" lon="7.28689">
        <ele>471.60502236671</ele>
        <time>2022-04-28T15:00:21.374Z</time>
      </trkpt>
      <trkpt lat="48.36953" lon="7.28689">
        <ele>474.25061753455</ele>
        <time>2022-04-28T15:00:26.181Z</time>
      </trkpt>
      <trkpt lat="48.36978" lon="7.28601">
        <ele>477.33292413786</ele>
        <time>2022-04-28T15:00:30.998Z</time>
      </trkpt>
      <trkpt lat="48.36984" lon="7.2855">
        <ele>480.123018342</ele>
        <time>2022-04-28T15:00:35.821Z</time>
      </trkpt>
      <trkpt lat="48.36992" lon="7.28436">
        <ele>482.95853359488</ele>
        <time>2022-04-28T15:00:40.656Z</time>
      </trkpt>
      <trkpt lat="48.37017" lon="7.28345">
        <ele>486.00458667218</ele>
        <time>2022-04-28T15:00:45.502Z</time>
      </trkpt>
      <trkpt lat="48.37023" lon="7.28314">
        <ele>488.76591456948</ele>
        <time>2022-04-28T15:00:50.351Z</time>
      </trkpt>
      <trkpt lat="48.3702" lon="7.28286">
        <ele>491.44738821899</ele>
        <time>2022-04-28T15:00:55.203Z</time>
      </trkpt>
      <trkpt lat="48.37009" lon="7.28261">
        <ele>494.02017581623</ele>
        <time>2022-04-28T15:01:00.058Z</time>
      </trkpt>
      <trkpt lat="48.36981" lon="7.28224">
        <ele>496.3948289925</ele>
        <time>2022-04-28T15:01:04.919Z</time>
      </trkpt>
      <trkpt lat="48.36967" lon="7.28188">
        <ele>498.71064838322</ele>
        <time>2022-04-28T15:01:09.785Z</time>
      </trkpt>
      <trkpt lat="48.36942" lon="7.27999">
        <ele>501.52613638356</ele>
        <time>2022-04-28T15:01:14.671Z</time>
      </trkpt>
      <trkpt lat="48.36936" lon="7.27971">
        <ele>503.8402104245</ele>
        <time>2022-04-28T15:01:19.560Z</time>
      </trkpt>
      <trkpt lat="48.36925" lon="7.27946">
        <ele>505.89299583199</ele>
        <time>2022-04-28T15:01:24.453Z</time>
      </trkpt>
      <trkpt lat="48.3692" lon="7.27931">
        <ele>507.9517449104</ele>
        <time>2022-04-28T15:01:29.347Z</time>
      </trkpt>
      <trkpt lat="48.36922" lon="7.27919">
        <ele>510.09371445226</ele>
        <time>2022-04-28T15:01:34.243Z</time>
      </trkpt>
      <trkpt lat="48.36926" lon="7.27911">
        <ele>512.26533345188</ele>
        <time>2022-04-28T15:01:39.140Z</time>
      </trkpt>
      <trkpt lat="48.36933" lon="7.27906">
        <ele>514.44217082746</ele>
        <time>2022-04-28T15:01:44.038Z</time>
      </trkpt>
      <trkpt lat="48.36941" lon="7.27904">
        <ele>516.63125927143</ele>
        <time>2022-04-28T15:01:48.937Z</time>
      </trkpt>
      <trkpt lat="48.36948" lon="7.2791">
        <ele>518.71464740348</ele>
        <time>2022-04-28T15:01:53.838Z</time>
      </trkpt>
      <trkpt lat="48.36952" lon="7.27919">
        <ele>520.70171276472</ele>
        <time>2022-04-28T15:01:58.740Z</time>
      </trkpt>
      <trkpt lat="48.36956" lon="7.27963">
        <ele>522.58749855952</ele>
        <time>2022-04-28T15:02:03.647Z</time>
      </trkpt>
      <trkpt lat="48.36963" lon="7.27996">
        <ele>524.4357783326</ele>
        <time>2022-04-28T15:02:08.557Z</time>
      </trkpt>
      <trkpt lat="48.37005" lon="7.28093">
        <ele>526.64074153574</ele>
        <time>2022-04-28T15:02:13.480Z</time>
      </trkpt>
      <trkpt lat="48.37018" lon="7.28118">
        <ele>528.75015548816</ele>
        <time>2022-04-28T15:02:18.406Z</time>
      </trkpt>
      <trkpt lat="48.37041" lon="7.28146">
        <ele>530.83351247401</ele>
        <time>2022-04-28T15:02:23.337Z</time>
      </trkpt>
      <trkpt lat="48.37073" lon="7.28158">
        <ele>532.98749482861</ele>
        <time>2022-04-28T15:02:28.273Z</time>
      </trkpt>
      <trkpt lat="48.37105" lon="7.28173">
        <ele>534.92850182083</ele>
        <time>2022-04-28T15:02:33.214Z</time>
      </trkpt>
      <trkpt lat="48.37116" lon="7.28178">
        <ele>536.87266543805</ele>
        <time>2022-04-28T15:02:38.157Z</time>
      </trkpt>
      <trkpt lat="48.37128" lon="7.28192">
        <ele>538.77431549333</ele>
        <time>2022-04-28T15:02:43.103Z</time>
      </trkpt>
      <trkpt lat="48.37133" lon="7.2821">
        <ele>540.60287658192</ele>
        <time>2022-04-28T15:02:48.051Z</time>
      </trkpt>
      <trkpt lat="48.37134" lon="7.28233">
        <ele>542.43443566764</ele>
        <time>2022-04-28T15:02:53.001Z</time>
      </trkpt>
      <trkpt lat="48.37133" lon="7.28248">
        <ele>544.29053553616</ele>
        <time>2022-04-28T15:02:57.953Z</time>
      </trkpt>
      <trkpt lat="48.37129" lon="7.28291">
        <ele>546.19319928089</ele>
        <time>2022-04-28T15:03:02.909Z</time>
      </trkpt>
      <trkpt lat="48.37134" lon="7.28335">
        <ele>548.24804650756</ele>
        <time>2022-04-28T15:03:07.870Z</time>
      </trkpt>
      <trkpt lat="48.37139" lon="7.28347">
        <ele>550.29193151028</ele>
        <time>2022-04-28T15:03:12.833Z</time>
      </trkpt>
      <trkpt lat="48.37139" lon="7.28347">
        <ele>552.27302352876</ele>
        <time>2022-04-28T15:03:17.796Z</time>
      </trkpt>
      <trkpt lat="48.37144" lon="7.28369">
        <ele>554.36015930422</ele>
        <time>2022-04-28T15:03:22.761Z</time>
      </trkpt>
      <trkpt lat="48.37226" lon="7.28566">
        <ele>557.01079326363</ele>
        <time>2022-04-28T15:03:27.751Z</time>
      </trkpt>
      <trkpt lat="48.37246" lon="7.28596">
        <ele>559.20895874822</ele>
        <time>2022-04-28T15:03:32.745Z</time>
      </trkpt>
      <trkpt lat="48.37267" lon="7.2862">
        <ele>561.43794826211</ele>
        <time>2022-04-28T15:03:37.744Z</time>
      </trkpt>
      <trkpt lat="48.3728" lon="7.2863">
        <ele>563.65107693366</ele>
        <time>2022-04-28T15:03:42.745Z</time>
      </trkpt>
      <trkpt lat="48.37294" lon="7.28637">
        <ele>565.87611743341</ele>
        <time>2022-04-28T15:03:47.748Z</time>
      </trkpt>
      <trkpt lat="48.3731" lon="7.28642">
        <ele>568.1377448688</ele>
        <time>2022-04-28T15:03:52.754Z</time>
      </trkpt>
      <trkpt lat="48.37327" lon="7.28646">
        <ele>570.4396602304</ele>
        <time>2022-04-28T15:03:57.763Z</time>
      </trkpt>
      <trkpt lat="48.37354" lon="7.28645">
        <ele>572.85638108286</ele>
        <time>2022-04-28T15:04:02.776Z</time>
      </trkpt>
      <trkpt lat="48.37354" lon="7.28645">
        <ele>575.05899169347</ele>
        <time>2022-04-28T15:04:07.789Z</time>
      </trkpt>
      <trkpt lat="48.37393" lon="7.28635">
        <ele>577.61712924354</ele>
        <time>2022-04-28T15:04:12.808Z</time>
      </trkpt>
      <trkpt lat="48.37411" lon="7.28637">
        <ele>579.87168753564</ele>
        <time>2022-04-28T15:04:17.830Z</time>
      </trkpt>
      <trkpt lat="48.37465" lon="7.28651">
        <ele>582.16177528099</ele>
        <time>2022-04-28T15:04:22.861Z</time>
      </trkpt>
      <trkpt lat="48.37477" lon="7.28651">
        <ele>584.37615697461</ele>
        <time>2022-04-28T15:04:27.894Z</time>
      </trkpt>
      <trkpt lat="48.37491" lon="7.28648">
        <ele>586.58617561224</ele>
        <time>2022-04-28T15:04:32.929Z</time>
      </trkpt>
      <trkpt lat="48.37515" lon="7.28635">
        <ele>588.90301587817</ele>
        <time>2022-04-28T15:04:37.968Z</time>
      </trkpt>
      <trkpt lat="48.37515" lon="7.28635">
        <ele>591.11377735531</ele>
        <time>2022-04-28T15:04:43.007Z</time>
      </trkpt>
      <trkpt lat="48.3755" lon="7.28608">
        <ele>593.6106826338</ele>
        <time>2022-04-28T15:04:48.053Z</time>
      </trkpt>
      <trkpt lat="48.37591" lon="7.2856">
        <ele>596.05284911331</ele>
        <time>2022-04-28T15:04:53.107Z</time>
      </trkpt>
      <trkpt lat="48.37616" lon="7.28533">
        <ele>598.49573270459</ele>
        <time>2022-04-28T15:04:58.166Z</time>
      </trkpt>
      <trkpt lat="48.37626" lon="7.28529">
        <ele>600.71352918139</ele>
        <time>2022-04-28T15:05:03.227Z</time>
      </trkpt>
      <trkpt lat="48.37641" lon="7.28527">
        <ele>602.96199486824</ele>
        <time>2022-04-28T15:05:08.290Z</time>
      </trkpt>
      <trkpt lat="48.37673" lon="7.2853">
        <ele>605.63262174603</ele>
        <time>2022-04-28T15:05:13.358Z</time>
      </trkpt>
      <trkpt lat="48.37679" lon="7.28533">
        <ele>607.80160622414</ele>
        <time>2022-04-28T15:05:18.427Z</time>
      </trkpt>
      <trkpt lat="48.37679" lon="7.28533">
        <ele>609.81781623557</ele>
        <time>2022-04-28T15:05:23.496Z</time>
      </trkpt>
      <trkpt lat="48.37684" lon="7.28536">
        <ele>611.85355374594</ele>
        <time>2022-04-28T15:05:28.566Z</time>
      </trkpt>
      <trkpt lat="48.37689" lon="7.28545">
        <ele>613.79816543563</ele>
        <time>2022-04-28T15:05:33.637Z</time>
      </trkpt>
      <trkpt lat="48.37704" lon="7.28603">
        <ele>615.42073808021</ele>
        <time>2022-04-28T15:05:38.715Z</time>
      </trkpt>
      <trkpt lat="48.37718" lon="7.28625">
        <ele>617.4437182967</ele>
        <time>2022-04-28T15:05:43.796Z</time>
      </trkpt>
      <trkpt lat="48.37737" lon="7.2865">
        <ele>619.30891294113</ele>
        <time>2022-04-28T15:05:48.881Z</time>
      </trkpt>
      <trkpt lat="48.37761" lon="7.28669">
        <ele>621.27813700281</ele>
        <time>2022-04-28T15:05:53.970Z</time>
      </trkpt>
      <trkpt lat="48.37787" lon="7.28679">
        <ele>623.50613737585</ele>
        <time>2022-04-28T15:05:59.064Z</time>
      </trkpt>
      <trkpt lat="48.37808" lon="7.28694">
        <ele>625.59115122987</ele>
        <time>2022-04-28T15:06:04.162Z</time>
      </trkpt>
      <trkpt lat="48.37834" lon="7.28726">
        <ele>627.35354562836</ele>
        <time>2022-04-28T15:06:09.265Z</time>
      </trkpt>
      <trkpt lat="48.37863" lon="7.28745">
        <ele>629.57960639601</ele>
        <time>2022-04-28T15:06:14.373Z</time>
      </trkpt>
      <trkpt lat="48.37871" lon="7.28758">
        <ele>631.51667541357</ele>
        <time>2022-04-28T15:06:19.483Z</time>
      </trkpt>
      <trkpt lat="48.37876" lon="7.28771">
        <ele>633.29412482098</ele>
        <time>2022-04-28T15:06:24.594Z</time>
      </trkpt>
      <trkpt lat="48.37881" lon="7.28792">
        <ele>635.18624626381</ele>
        <time>2022-04-28T15:06:29.708Z</time>
      </trkpt>
      <trkpt lat="48.37884" lon="7.28835">
        <ele>636.92483336095</ele>
        <time>2022-04-28T15:06:34.826Z</time>
      </trkpt>
      <trkpt lat="48.3789" lon="7.2885">
        <ele>638.80597562072</ele>
        <time>2022-04-28T15:06:39.946Z</time>
      </trkpt>
      <trkpt lat="48.37897" lon="7.28866">
        <ele>640.72371931694</ele>
        <time>2022-04-28T15:06:45.068Z</time>
      </trkpt>
      <trkpt lat="48.37926" lon="7.289">
        <ele>642.91641538949</ele>
        <time>2022-04-28T15:06:50.196Z</time>
      </trkpt>
      <trkpt lat="48.37995" lon="7.28961">
        <ele>645.09361038502</ele>
        <time>2022-04-28T15:06:55.337Z</time>
      </trkpt>
      <trkpt lat="48.38024" lon="7.28978">
        <ele>647.28392604038</ele>
        <time>2022-04-28T15:07:00.483Z</time>
      </trkpt>
      <trkpt lat="48.38095" lon="7.29008">
        <ele>649.97704579034</ele>
        <time>2022-04-28T15:07:05.641Z</time>
      </trkpt>
      <trkpt lat="48.38109" lon="7.29025">
        <ele>652.0479266058</ele>
        <time>2022-04-28T15:07:10.802Z</time>
      </trkpt>
      <trkpt lat="48.38124" lon="7.29068">
        <ele>653.75587178806</ele>
        <time>2022-04-28T15:07:15.968Z</time>
      </trkpt>
      <trkpt lat="48.38156" lon="7.29145">
        <ele>655.78645673351</ele>
        <time>2022-04-28T15:07:21.143Z</time>
      </trkpt>
      <trkpt lat="48.38193" lon="7.29213">
        <ele>657.8425202418</ele>
        <time>2022-04-28T15:07:26.328Z</time>
      </trkpt>
      <trkpt lat="48.38217" lon="7.29246">
        <ele>660.07707019909</ele>
        <time>2022-04-28T15:07:31.518Z</time>
      </trkpt>
      <trkpt lat="48.38228" lon="7.29267">
        <ele>662.17727984705</ele>
        <time>2022-04-28T15:07:36.711Z</time>
      </trkpt>
      <trkpt lat="48.38228" lon="7.29267">
        <ele>664.19055396908</ele>
        <time>2022-04-28T15:07:41.904Z</time>
      </trkpt>
      <trkpt lat="48.38244" lon="7.29308">
        <ele>666.4138001021</ele>
        <time>2022-04-28T15:07:47.102Z</time>
      </trkpt>
      <trkpt lat="48.38254" lon="7.29333">
        <ele>668.75573579629</ele>
        <time>2022-04-28T15:07:52.303Z</time>
      </trkpt>
      <trkpt lat="48.38263" lon="7.29339">
        <ele>670.98181941043</ele>
        <time>2022-04-28T15:07:57.506Z</time>
      </trkpt>
      <trkpt lat="48.38263" lon="7.29339">
        <ele>673.00184215131</ele>
        <time>2022-04-28T15:08:02.709Z</time>
      </trkpt>
      <trkpt lat="48.38269" lon="7.29338">
        <ele>675.10785436928</ele>
        <time>2022-04-28T15:08:07.913Z</time>
      </trkpt>
      <trkpt lat="48.38275" lon="7.29334">
        <ele>677.17100005555</ele>
        <time>2022-04-28T15:08:13.118Z</time>
      </trkpt>
      <trkpt lat="48.38281" lon="7.29322">
        <ele>679.2117419865</ele>
        <time>2022-04-28T15:08:18.324Z</time>
      </trkpt>
      <trkpt lat="48.38283" lon="7.29311">
        <ele>681.25253519225</ele>
        <time>2022-04-28T15:08:23.532Z</time>
      </trkpt>
      <trkpt lat="48.38281" lon="7.29299">
        <ele>683.21434606171</ele>
        <time>2022-04-28T15:08:28.741Z</time>
      </trkpt>
      <trkpt lat="48.38259" lon="7.29253">
        <ele>685.17556236141</ele>
        <time>2022-04-28T15:08:33.956Z</time>
      </trkpt>
      <trkpt lat="48.38215" lon="7.29154">
        <ele>687.7265786158</ele>
        <time>2022-04-28T15:08:39.184Z</time>
      </trkpt>
      <trkpt lat="48.38193" lon="7.29091">
        <ele>690.10477255696</ele>
        <time>2022-04-28T15:08:44.419Z</time>
      </trkpt>
      <trkpt lat="48.38191" lon="7.29068">
        <ele>692.44860101178</ele>
        <time>2022-04-28T15:08:49.657Z</time>
      </trkpt>
      <trkpt lat="48.38191" lon="7.29068">
        <ele>694.57417871068</ele>
        <time>2022-04-28T15:08:54.895Z</time>
      </trkpt>
      <trkpt lat="48.38193" lon="7.29044">
        <ele>697.00095522515</ele>
        <time>2022-04-28T15:09:00.135Z</time>
      </trkpt>
      <trkpt lat="48.38197" lon="7.29014">
        <ele>699.35663014206</ele>
        <time>2022-04-28T15:09:05.379Z</time>
      </trkpt>
      <trkpt lat="48.38198" lon="7.28989">
        <ele>701.59945620184</ele>
        <time>2022-04-28T15:09:10.625Z</time>
      </trkpt>
      <trkpt lat="48.38193" lon="7.28957">
        <ele>703.80546685307</ele>
        <time>2022-04-28T15:09:15.875Z</time>
      </trkpt>
      <trkpt lat="48.38183" lon="7.28927">
        <ele>706.07789112106</ele>
        <time>2022-04-28T15:09:21.128Z</time>
      </trkpt>
      <trkpt lat="48.38158" lon="7.28895">
        <ele>708.33855075467</ele>
        <time>2022-04-28T15:09:26.387Z</time>
      </trkpt>
      <trkpt lat="48.3808" lon="7.28828">
        <ele>710.42968300454</ele>
        <time>2022-04-28T15:09:31.660Z</time>
      </trkpt>
      <trkpt lat="48.38057" lon="7.28807">
        <ele>712.49500437758</ele>
        <time>2022-04-28T15:09:36.937Z</time>
      </trkpt>
      <trkpt lat="48.38044" lon="7.28781">
        <ele>714.63731979764</ele>
        <time>2022-04-28T15:09:42.218Z</time>
      </trkpt>
      <trkpt lat="48.38018" lon="7.2871">
        <ele>716.9716810455</ele>
        <time>2022-04-28T15:09:47.507Z</time>
      </trkpt>
      <trkpt lat="48.38009" lon="7.28669">
        <ele>719.29801741296</ele>
        <time>2022-04-28T15:09:52.801Z</time>
      </trkpt>
      <trkpt lat="48.38025" lon="7.28674">
        <ele>721.68291090676</ele>
        <time>2022-04-28T15:09:58.097Z</time>
      </trkpt>
      <trkpt lat="48.38029" lon="7.28683">
        <ele>723.71495480296</ele>
        <time>2022-04-28T15:10:03.395Z</time>
      </trkpt>
      <trkpt lat="48.38042" lon="7.28732">
        <ele>725.32406841837</ele>
        <time>2022-04-28T15:10:08.698Z</time>
      </trkpt>
      <trkpt lat="48.38051" lon="7.28755">
        <ele>727.28784243735</ele>
        <time>2022-04-28T15:10:14.004Z</time>
      </trkpt>
      <trkpt lat="48.3806" lon="7.28774">
        <ele>729.4285743523</ele>
        <time>2022-04-28T15:10:19.313Z</time>
      </trkpt>
      <trkpt lat="48.3807" lon="7.28787">
        <ele>731.56094549734</ele>
        <time>2022-04-28T15:10:24.624Z</time>
      </trkpt>
      <trkpt lat="48.38085" lon="7.28799">
        <ele>733.82554011184</ele>
        <time>2022-04-28T15:10:29.938Z</time>
      </trkpt>
      <trkpt lat="48.38102" lon="7.28808">
        <ele>736.1220771443</ele>
        <time>2022-04-28T15:10:35.254Z</time>
      </trkpt>
      <trkpt lat="48.38205" lon="7.28839">
        <ele>738.95835165774</ele>
        <time>2022-04-28T15:10:40.587Z</time>
      </trkpt>
      <trkpt lat="48.38219" lon="7.28846">
        <ele>741.07950131088</ele>
        <time>2022-04-28T15:10:45.923Z</time>
      </trkpt>
      <trkpt lat="48.38231" lon="7.28855">
        <ele>743.35914300995</ele>
        <time>2022-04-28T15:10:51.261Z</time>
      </trkpt>
      <trkpt lat="48.38243" lon="7.28867">
        <ele>745.56819986769</ele>
        <time>2022-04-28T15:10:56.601Z</time>
      </trkpt>
      <trkpt lat="48.38252" lon="7.28884">
        <ele>747.6375199331</ele>
        <time>2022-04-28T15:11:01.943Z</time>
      </trkpt>
      <trkpt lat="48.38264" lon="7.28916">
        <ele>749.7007797507</ele>
        <time>2022-04-28T15:11:07.289Z</time>
      </trkpt>
      <trkpt lat="48.38264" lon="7.28916">
        <ele>751.81532277797</ele>
        <time>2022-04-28T15:11:12.635Z</time>
      </trkpt>
      <trkpt lat="48.3829" lon="7.29006">
        <ele>754.07353674826</ele>
        <time>2022-04-28T15:11:17.992Z</time>
      </trkpt>
      <trkpt lat="48.38312" lon="7.29064">
        <ele>756.22035511543</ele>
        <time>2022-04-28T15:11:23.356Z</time>
      </trkpt>
      <trkpt lat="48.38322" lon="7.2908">
        <ele>758.2645386635</ele>
        <time>2022-04-28T15:11:28.722Z</time>
      </trkpt>
      <trkpt lat="48.38336" lon="7.29094">
        <ele>760.28921867173</ele>
        <time>2022-04-28T15:11:34.091Z</time>
      </trkpt>
      <trkpt lat="48.3841" lon="7.29134">
        <ele>762.69429085759</ele>
        <time>2022-04-28T15:11:39.472Z</time>
      </trkpt>
      <trkpt lat="48.38464" lon="7.29176">
        <ele>764.43824485452</ele>
        <time>2022-04-28T15:11:44.863Z</time>
      </trkpt>
      <trkpt lat="48.38583" lon="7.29268">
        <ele>766.44802915573</ele>
        <time>2022-04-28T15:11:50.276Z</time>
      </trkpt>
      <trkpt lat="48.3863" lon="7.29288">
        <ele>768.31852329452</ele>
        <time>2022-04-28T15:11:55.696Z</time>
      </trkpt>
      <trkpt lat="48.38645" lon="7.29299">
        <ele>769.55598734646</ele>
        <time>2022-04-28T15:12:01.119Z</time>
      </trkpt>
      <trkpt lat="48.38654" lon="7.29312">
        <ele>770.64089060822</ele>
        <time>2022-04-28T15:12:06.544Z</time>
      </trkpt>
      <trkpt lat="48.38683" lon="7.29383">
        <ele>771.64964705937</ele>
        <time>2022-04-28T15:12:11.978Z</time>
      </trkpt>
      <trkpt lat="48.38695" lon="7.29403">
        <ele>772.21322618967</ele>
        <time>2022-04-28T15:12:17.415Z</time>
      </trkpt>
      <trkpt lat="48.38709" lon="7.29413">
        <ele>772.58937231824</ele>
        <time>2022-04-28T15:12:22.854Z</time>
      </trkpt>
      <trkpt lat="48.38733" lon="7.2942">
        <ele>772.6792999903</ele>
        <time>2022-04-28T15:12:28.297Z</time>
      </trkpt>
      <trkpt lat="48.38752" lon="7.29424">
        <ele>772.61951710052</ele>
        <time>2022-04-28T15:12:33.743Z</time>
      </trkpt>
      <trkpt lat="48.38797" lon="7.29433">
        <ele>772.24383914739</ele>
        <time>2022-04-28T15:12:39.197Z</time>
      </trkpt>
      <trkpt lat="48.38807" lon="7.29432">
        <ele>771.89762121576</ele>
        <time>2022-04-28T15:12:44.652Z</time>
      </trkpt>
      <trkpt lat="48.38821" lon="7.29427">
        <ele>771.36853367061</ele>
        <time>2022-04-28T15:12:50.110Z</time>
      </trkpt>
      <trkpt lat="48.3884" lon="7.29409">
        <ele>770.68524959134</ele>
        <time>2022-04-28T15:12:55.571Z</time>
      </trkpt>
      <trkpt lat="48.38854" lon="7.29396">
        <ele>769.86895316839</ele>
        <time>2022-04-28T15:13:01.035Z</time>
      </trkpt>
      <trkpt lat="48.38864" lon="7.2939">
        <ele>768.94461514168</ele>
        <time>2022-04-28T15:13:06.500Z</time>
      </trkpt>
      <trkpt lat="48.38878" lon="7.2939">
        <ele>767.88403356579</ele>
        <time>2022-04-28T15:13:11.968Z</time>
      </trkpt>
      <trkpt lat="48.38893" lon="7.29398">
        <ele>766.69885229615</ele>
        <time>2022-04-28T15:13:17.438Z</time>
      </trkpt>
      <trkpt lat="48.38922" lon="7.29426">
        <ele>765.37354151563</ele>
        <time>2022-04-28T15:13:22.914Z</time>
      </trkpt>
      <trkpt lat="48.38977" lon="7.2948">
        <ele>763.82385502456</ele>
        <time>2022-04-28T15:13:28.400Z</time>
      </trkpt>
      <trkpt lat="48.38998" lon="7.29507">
        <ele>762.21767231674</ele>
        <time>2022-04-28T15:13:33.891Z</time>
      </trkpt>
      <trkpt lat="48.39005" lon="7.29522">
        <ele>760.669052479</ele>
        <time>2022-04-28T15:13:39.384Z</time>
      </trkpt>
      <trkpt lat="48.39022" lon="7.29554">
        <ele>759.00289595397</ele>
        <time>2022-04-28T15:13:44.881Z</time>
      </trkpt>
      <trkpt lat="48.39042" lon="7.29574">
        <ele>757.45587622702</ele>
        <time>2022-04-28T15:13:50.382Z</time>
      </trkpt>
      <trkpt lat="48.39073" lon="7.29588">
        <ele>755.99538715508</ele>
        <time>2022-04-28T15:13:55.888Z</time>
      </trkpt>
      <trkpt lat="48.3909" lon="7.29597">
        <ele>754.49800561441</ele>
        <time>2022-04-28T15:14:01.397Z</time>
      </trkpt>
      <trkpt lat="48.39112" lon="7.29619">
        <ele>752.98627920725</ele>
        <time>2022-04-28T15:14:06.910Z</time>
      </trkpt>
      <trkpt lat="48.39125" lon="7.29633">
        <ele>751.49014270887</ele>
        <time>2022-04-28T15:14:12.426Z</time>
      </trkpt>
      <trkpt lat="48.39125" lon="7.29633">
        <ele>749.98983374167</ele>
        <time>2022-04-28T15:14:17.942Z</time>
      </trkpt>
      <trkpt lat="48.39127" lon="7.29636">
        <ele>748.49869963544</ele>
        <time>2022-04-28T15:14:23.458Z</time>
      </trkpt>
      <trkpt lat="48.39141" lon="7.29665">
        <ele>747.09461955314</ele>
        <time>2022-04-28T15:14:28.978Z</time>
      </trkpt>
      <trkpt lat="48.39147" lon="7.29686">
        <ele>745.58105182888</ele>
        <time>2022-04-28T15:14:34.500Z</time>
      </trkpt>
      <trkpt lat="48.39147" lon="7.29686">
        <ele>744.0489207017</ele>
        <time>2022-04-28T15:14:40.022Z</time>
      </trkpt>
      <trkpt lat="48.39152" lon="7.29714">
        <ele>742.53894808439</ele>
        <time>2022-04-28T15:14:45.548Z</time>
      </trkpt>
      <trkpt lat="48.39155" lon="7.29749">
        <ele>740.88242454385</ele>
        <time>2022-04-28T15:14:51.077Z</time>
      </trkpt>
      <trkpt lat="48.39154" lon="7.29782">
        <ele>739.13374748977</ele>
        <time>2022-04-28T15:14:56.610Z</time>
      </trkpt>
      <trkpt lat="48.39147" lon="7.29839">
        <ele>737.22754829761</ele>
        <time>2022-04-28T15:15:02.149Z</time>
      </trkpt>
      <trkpt lat="48.39141" lon="7.29856">
        <ele>735.56632956474</ele>
        <time>2022-04-28T15:15:07.690Z</time>
      </trkpt>
      <trkpt lat="48.39131" lon="7.2987">
        <ele>733.9067324212</ele>
        <time>2022-04-28T15:15:13.233Z</time>
      </trkpt>
      <trkpt lat="48.39117" lon="7.29881">
        <ele>732.18217895881</ele>
        <time>2022-04-28T15:15:18.779Z</time>
      </trkpt>
      <trkpt lat="48.39098" lon="7.29884">
        <ele>730.49731142894</ele>
        <time>2022-04-28T15:15:24.328Z</time>
      </trkpt>
      <trkpt lat="48.39036" lon="7.29885">
        <ele>728.73674386196</ele>
        <time>2022-04-28T15:15:29.887Z</time>
      </trkpt>
      <trkpt lat="48.39018" lon="7.2989">
        <ele>727.09249352711</ele>
        <time>2022-04-28T15:15:35.449Z</time>
      </trkpt>
      <trkpt lat="48.39012" lon="7.299">
        <ele>725.40380182494</ele>
        <time>2022-04-28T15:15:41.012Z</time>
      </trkpt>
      <trkpt lat="48.39012" lon="7.29912">
        <ele>723.75047414736</ele>
        <time>2022-04-28T15:15:46.576Z</time>
      </trkpt>
      <trkpt lat="48.39013" lon="7.29929">
        <ele>722.11180802288</ele>
        <time>2022-04-28T15:15:52.142Z</time>
      </trkpt>
      <trkpt lat="48.39028" lon="7.29958">
        <ele>720.4186598374</ele>
        <time>2022-04-28T15:15:57.712Z</time>
      </trkpt>
      <trkpt lat="48.39049" lon="7.29986">
        <ele>718.66278812943</ele>
        <time>2022-04-28T15:16:03.287Z</time>
      </trkpt>
      <trkpt lat="48.39089" lon="7.3003">
        <ele>716.80256599161</ele>
        <time>2022-04-28T15:16:08.870Z</time>
      </trkpt>
      <trkpt lat="48.39137" lon="7.30078">
        <ele>715.05635457942</ele>
        <time>2022-04-28T15:16:14.462Z</time>
      </trkpt>
      <trkpt lat="48.39151" lon="7.30098">
        <ele>713.41713098965</ele>
        <time>2022-04-28T15:16:20.057Z</time>
      </trkpt>
      <trkpt lat="48.39158" lon="7.30117">
        <ele>711.89783273983</ele>
        <time>2022-04-28T15:16:25.654Z</time>
      </trkpt>
      <trkpt lat="48.39161" lon="7.30137">
        <ele>710.47381349373</ele>
        <time>2022-04-28T15:16:31.253Z</time>
      </trkpt>
      <trkpt lat="48.39161" lon="7.30137">
        <ele>709.15357154265</ele>
        <time>2022-04-28T15:16:36.852Z</time>
      </trkpt>
      <trkpt lat="48.39169" lon="7.30173">
        <ele>707.9134232394</ele>
        <time>2022-04-28T15:16:42.455Z</time>
      </trkpt>
      <trkpt lat="48.39172" lon="7.30184">
        <ele>706.68332105014</ele>
        <time>2022-04-28T15:16:48.060Z</time>
      </trkpt>
      <trkpt lat="48.39179" lon="7.30195">
        <ele>705.46253429998</ele>
        <time>2022-04-28T15:16:53.666Z</time>
      </trkpt>
      <trkpt lat="48.3927" lon="7.3025">
        <ele>704.13293587606</ele>
        <time>2022-04-28T15:16:59.288Z</time>
      </trkpt>
      <trkpt lat="48.39298" lon="7.30272">
        <ele>702.98339678154</ele>
        <time>2022-04-28T15:17:04.915Z</time>
      </trkpt>
      <trkpt lat="48.39412" lon="7.30375">
        <ele>701.74912238227</ele>
        <time>2022-04-28T15:17:10.563Z</time>
      </trkpt>
      <trkpt lat="48.39485" lon="7.30452">
        <ele>700.24759706346</ele>
        <time>2022-04-28T15:17:16.226Z</time>
      </trkpt>
      <trkpt lat="48.39498" lon="7.30476">
        <ele>699.02718159956</ele>
        <time>2022-04-28T15:17:21.892Z</time>
      </trkpt>
      <trkpt lat="48.39503" lon="7.30501">
        <ele>697.89328113843</ele>
        <time>2022-04-28T15:17:27.561Z</time>
      </trkpt>
      <trkpt lat="48.39508" lon="7.30523">
        <ele>696.68299522659</ele>
        <time>2022-04-28T15:17:33.232Z</time>
      </trkpt>
      <trkpt lat="48.39505" lon="7.30556">
        <ele>695.48070414948</ele>
        <time>2022-04-28T15:17:38.907Z</time>
      </trkpt>
      <trkpt lat="48.39496" lon="7.30615">
        <ele>694.25001419775</ele>
        <time>2022-04-28T15:17:44.588Z</time>
      </trkpt>
      <trkpt lat="48.39491" lon="7.30656">
        <ele>693.19728951016</ele>
        <time>2022-04-28T15:17:50.274Z</time>
      </trkpt>
      <trkpt lat="48.39496" lon="7.30676">
        <ele>691.71760231768</ele>
        <time>2022-04-28T15:17:55.962Z</time>
      </trkpt>
      <trkpt lat="48.39504" lon="7.30688">
        <ele>690.08791873016</ele>
        <time>2022-04-28T15:18:01.652Z</time>
      </trkpt>
      <trkpt lat="48.39522" lon="7.30707">
        <ele>688.40689025008</ele>
        <time>2022-04-28T15:18:07.345Z</time>
      </trkpt>
      <trkpt lat="48.39555" lon="7.30735">
        <ele>686.51620088278</ele>
        <time>2022-04-28T15:18:13.044Z</time>
      </trkpt>
      <trkpt lat="48.39567" lon="7.30744">
        <ele>684.65093256498</ele>
        <time>2022-04-28T15:18:18.745Z</time>
      </trkpt>
      <trkpt lat="48.39567" lon="7.30744">
        <ele>682.81951936062</ele>
        <time>2022-04-28T15:18:24.446Z</time>
      </trkpt>
      <trkpt lat="48.39672" lon="7.30829">
        <ele>680.43490863846</ele>
        <time>2022-04-28T15:18:30.167Z</time>
      </trkpt>
      <trkpt lat="48.39709" lon="7.30863">
        <ele>678.17412616755</ele>
        <time>2022-04-28T15:18:35.895Z</time>
      </trkpt>
      <trkpt lat="48.39751" lon="7.30907">
        <ele>676.30486920791</ele>
        <time>2022-04-28T15:18:41.631Z</time>
      </trkpt>
      <trkpt lat="48.39821" lon="7.30991">
        <ele>674.2554505763</ele>
        <time>2022-04-28T15:18:47.381Z</time>
      </trkpt>
      <trkpt lat="48.39886" lon="7.31075">
        <ele>671.85187104123</ele>
        <time>2022-04-28T15:18:53.145Z</time>
      </trkpt>
      <trkpt lat="48.39916" lon="7.31106">
        <ele>669.38198520194</ele>
        <time>2022-04-28T15:18:58.915Z</time>
      </trkpt>
      <trkpt lat="48.39929" lon="7.31119">
        <ele>667.14561908139</ele>
        <time>2022-04-28T15:19:04.687Z</time>
      </trkpt>
      <trkpt lat="48.39947" lon="7.31143">
        <ele>664.94943069923</ele>
        <time>2022-04-28T15:19:10.463Z</time>
      </trkpt>
      <trkpt lat="48.39978" lon="7.31197">
        <ele>662.94262036504</ele>
        <time>2022-04-28T15:19:16.247Z</time>
      </trkpt>
      <trkpt lat="48.3999" lon="7.3121">
        <ele>660.89965112549</ele>
        <time>2022-04-28T15:19:22.033Z</time>
      </trkpt>
      <trkpt lat="48.39994" lon="7.31212">
        <ele>658.90966459866</ele>
        <time>2022-04-28T15:19:27.820Z</time>
      </trkpt>
      <trkpt lat="48.4" lon="7.31211">
        <ele>656.91891783585</ele>
        <time>2022-04-28T15:19:33.608Z</time>
      </trkpt>
      <trkpt lat="48.40006" lon="7.31206">
        <ele>654.95251957464</ele>
        <time>2022-04-28T15:19:39.397Z</time>
      </trkpt>
      <trkpt lat="48.40008" lon="7.31205">
        <ele>653.12723829603</ele>
        <time>2022-04-28T15:19:45.186Z</time>
      </trkpt>
      <trkpt lat="48.40012" lon="7.31196">
        <ele>651.29956967059</ele>
        <time>2022-04-28T15:19:50.976Z</time>
      </trkpt>
      <trkpt lat="48.40014" lon="7.31186">
        <ele>649.55509390808</ele>
        <time>2022-04-28T15:19:56.767Z</time>
      </trkpt>
      <trkpt lat="48.40011" lon="7.31173">
        <ele>647.89688988096</ele>
        <time>2022-04-28T15:20:02.560Z</time>
      </trkpt>
      <trkpt lat="48.39935" lon="7.31016">
        <ele>645.99800184115</ele>
        <time>2022-04-28T15:20:08.373Z</time>
      </trkpt>
      <trkpt lat="48.39925" lon="7.30994">
        <ele>644.60133170081</ele>
        <time>2022-04-28T15:20:14.189Z</time>
      </trkpt>
      <trkpt lat="48.39922" lon="7.30974">
        <ele>643.28040656349</ele>
        <time>2022-04-28T15:20:20.007Z</time>
      </trkpt>
      <trkpt lat="48.39923" lon="7.30955">
        <ele>642.06481184048</ele>
        <time>2022-04-28T15:20:25.828Z</time>
      </trkpt>
      <trkpt lat="48.39926" lon="7.30941">
        <ele>641.00958428851</ele>
        <time>2022-04-28T15:20:31.650Z</time>
      </trkpt>
      <trkpt lat="48.39932" lon="7.30927">
        <ele>640.04393536377</ele>
        <time>2022-04-28T15:20:37.474Z</time>
      </trkpt>
      <trkpt lat="48.3994" lon="7.30915">
        <ele>639.25996918998</ele>
        <time>2022-04-28T15:20:43.300Z</time>
      </trkpt>
      <trkpt lat="48.39954" lon="7.30892">
        <ele>638.65901636731</ele>
        <time>2022-04-28T15:20:49.129Z</time>
      </trkpt>
      <trkpt lat="48.39975" lon="7.30871">
        <ele>638.18897733871</ele>
        <time>2022-04-28T15:20:54.962Z</time>
      </trkpt>
      <trkpt lat="48.40004" lon="7.30861">
        <ele>637.85687874981</ele>
        <time>2022-04-28T15:21:00.800Z</time>
      </trkpt>
      <trkpt lat="48.40018" lon="7.3086">
        <ele>637.60021366485</ele>
        <time>2022-04-28T15:21:06.640Z</time>
      </trkpt>
      <trkpt lat="48.40052" lon="7.30869">
        <ele>637.47762328668</ele>
        <time>2022-04-28T15:21:12.485Z</time>
      </trkpt>
      <trkpt lat="48.40071" lon="7.30875">
        <ele>637.36037291077</ele>
        <time>2022-04-28T15:21:18.334Z</time>
      </trkpt>
      <trkpt lat="48.40086" lon="7.30885">
        <ele>637.31701770412</ele>
        <time>2022-04-28T15:21:24.185Z</time>
      </trkpt>
      <trkpt lat="48.40086" lon="7.30885">
        <ele>637.38307065783</ele>
        <time>2022-04-28T15:21:30.036Z</time>
      </trkpt>
      <trkpt lat="48.40093" lon="7.3089">
        <ele>637.53628494794</ele>
        <time>2022-04-28T15:21:35.889Z</time>
      </trkpt>
      <trkpt lat="48.40103" lon="7.30899">
        <ele>637.74417707538</ele>
        <time>2022-04-28T15:21:41.743Z</time>
      </trkpt>
      <trkpt lat="48.40115" lon="7.30912">
        <ele>638.05384747528</ele>
        <time>2022-04-28T15:21:47.600Z</time>
      </trkpt>
      <trkpt lat="48.40126" lon="7.30931">
        <ele>638.43098999007</ele>
        <time>2022-04-28T15:21:53.459Z</time>
      </trkpt>
      <trkpt lat="48.40126" lon="7.30931">
        <ele>638.77369996337</ele>
        <time>2022-04-28T15:21:59.318Z</time>
      </trkpt>
      <trkpt lat="48.40148" lon="7.3099">
        <ele>639.25107053283</ele>
        <time>2022-04-28T15:22:05.185Z</time>
      </trkpt>
      <trkpt lat="48.40148" lon="7.3099">
        <ele>639.65409156176</ele>
        <time>2022-04-28T15:22:11.052Z</time>
      </trkpt>
      <trkpt lat="48.40152" lon="7.31">
        <ele>640.07175952953</ele>
        <time>2022-04-28T15:22:16.920Z</time>
      </trkpt>
      <trkpt lat="48.40165" lon="7.31015">
        <ele>640.53932610391</ele>
        <time>2022-04-28T15:22:22.790Z</time>
      </trkpt>
      <trkpt lat="48.40186" lon="7.31032">
        <ele>641.0477666374</ele>
        <time>2022-04-28T15:22:28.664Z</time>
      </trkpt>
      <trkpt lat="48.40234" lon="7.31041">
        <ele>641.56479628241</ele>
        <time>2022-04-28T15:22:34.546Z</time>
      </trkpt>
      <trkpt lat="48.40245" lon="7.31051">
        <ele>641.91928524105</ele>
        <time>2022-04-28T15:22:40.430Z</time>
      </trkpt>
      <trkpt lat="48.40245" lon="7.31051">
        <ele>642.41864590058</ele>
        <time>2022-04-28T15:22:46.314Z</time>
      </trkpt>
      <trkpt lat="48.40253" lon="7.31063">
        <ele>642.87173938446</ele>
        <time>2022-04-28T15:22:52.200Z</time>
      </trkpt>
      <trkpt lat="48.40259" lon="7.31081">
        <ele>643.29740935298</ele>
        <time>2022-04-28T15:22:58.088Z</time>
      </trkpt>
      <trkpt lat="48.40267" lon="7.31159">
        <ele>643.46278394196</ele>
        <time>2022-04-28T15:23:03.984Z</time>
      </trkpt>
      <trkpt lat="48.40273" lon="7.31185">
        <ele>644.0884217088</ele>
        <time>2022-04-28T15:23:09.883Z</time>
      </trkpt>
      <trkpt lat="48.40282" lon="7.3122">
        <ele>644.79129057356</ele>
        <time>2022-04-28T15:23:15.786Z</time>
      </trkpt>
      <trkpt lat="48.40311" lon="7.31285">
        <ele>645.46157189571</ele>
        <time>2022-04-28T15:23:21.698Z</time>
      </trkpt>
      <trkpt lat="48.40317" lon="7.31296">
        <ele>646.15807789836</ele>
        <time>2022-04-28T15:23:27.611Z</time>
      </trkpt>
      <trkpt lat="48.40351" lon="7.31426">
        <ele>646.82818422781</ele>
        <time>2022-04-28T15:23:33.539Z</time>
      </trkpt>
      <trkpt lat="48.40363" lon="7.31448">
        <ele>647.52612024133</ele>
        <time>2022-04-28T15:23:39.470Z</time>
      </trkpt>
      <trkpt lat="48.40399" lon="7.31504">
        <ele>648.47415200557</ele>
        <time>2022-04-28T15:23:45.409Z</time>
      </trkpt>
      <trkpt lat="48.40411" lon="7.31538">
        <ele>649.14266700709</ele>
        <time>2022-04-28T15:23:51.353Z</time>
      </trkpt>
      <trkpt lat="48.40416" lon="7.31564">
        <ele>649.71640909254</ele>
        <time>2022-04-28T15:23:57.299Z</time>
      </trkpt>
      <trkpt lat="48.40422" lon="7.31607">
        <ele>650.26544852031</ele>
        <time>2022-04-28T15:24:03.250Z</time>
      </trkpt>
      <trkpt lat="48.40428" lon="7.31635">
        <ele>650.8264986947</ele>
        <time>2022-04-28T15:24:09.204Z</time>
      </trkpt>
      <trkpt lat="48.40438" lon="7.3165">
        <ele>651.34765087582</ele>
        <time>2022-04-28T15:24:15.160Z</time>
      </trkpt>
      <trkpt lat="48.40448" lon="7.31657">
        <ele>651.81953015219</ele>
        <time>2022-04-28T15:24:21.118Z</time>
      </trkpt>
      <trkpt lat="48.40449" lon="7.31657">
        <ele>652.19171975857</ele>
        <time>2022-04-28T15:24:27.076Z</time>
      </trkpt>
      <trkpt lat="48.40467" lon="7.31663">
        <ele>652.52837326947</ele>
        <time>2022-04-28T15:24:33.037Z</time>
      </trkpt>
      <trkpt lat="48.40501" lon="7.31666">
        <ele>653.01694023101</ele>
        <time>2022-04-28T15:24:39.004Z</time>
      </trkpt>
      <trkpt lat="48.40513" lon="7.31671">
        <ele>653.19593816664</ele>
        <time>2022-04-28T15:24:44.973Z</time>
      </trkpt>
      <trkpt lat="48.40526" lon="7.31683">
        <ele>653.21490895761</ele>
        <time>2022-04-28T15:24:50.944Z</time>
      </trkpt>
      <trkpt lat="48.40534" lon="7.31699">
        <ele>653.02450202465</ele>
        <time>2022-04-28T15:24:56.917Z</time>
      </trkpt>
      <trkpt lat="48.40542" lon="7.31729">
        <ele>652.68280754684</ele>
        <time>2022-04-28T15:25:02.894Z</time>
      </trkpt>
      <trkpt lat="48.40546" lon="7.31758">
        <ele>652.17183874087</ele>
        <time>2022-04-28T15:25:08.874Z</time>
      </trkpt>
      <trkpt lat="48.40547" lon="7.31776">
        <ele>651.51717896034</ele>
        <time>2022-04-28T15:25:14.856Z</time>
      </trkpt>
      <trkpt lat="48.40547" lon="7.31776">
        <ele>650.77556165866</ele>
        <time>2022-04-28T15:25:20.838Z</time>
      </trkpt>
      <trkpt lat="48.40547" lon="7.31781">
        <ele>649.8709584835</ele>
        <time>2022-04-28T15:25:26.820Z</time>
      </trkpt>
      <trkpt lat="48.40545" lon="7.31802">
        <ele>648.75076973807</ele>
        <time>2022-04-28T15:25:32.805Z</time>
      </trkpt>
      <trkpt lat="48.4053" lon="7.31859">
        <ele>647.35333075553</ele>
        <time>2022-04-28T15:25:38.796Z</time>
      </trkpt>
      <trkpt lat="48.40529" lon="7.31888">
        <ele>646.03663288585</ele>
        <time>2022-04-28T15:25:44.790Z</time>
      </trkpt>
      <trkpt lat="48.40532" lon="7.31906">
        <ele>644.59292917515</ele>
        <time>2022-04-28T15:25:50.786Z</time>
      </trkpt>
      <trkpt lat="48.4054" lon="7.31925">
        <ele>643.02892501791</ele>
        <time>2022-04-28T15:25:56.785Z</time>
      </trkpt>
      <trkpt lat="48.40563" lon="7.31972">
        <ele>641.29717002223</ele>
        <time>2022-04-28T15:26:02.790Z</time>
      </trkpt>
      <trkpt lat="48.4059" lon="7.32052">
        <ele>639.02912433364</ele>
        <time>2022-04-28T15:26:08.805Z</time>
      </trkpt>
      <trkpt lat="48.40607" lon="7.32082">
        <ele>636.88212968507</ele>
        <time>2022-04-28T15:26:14.824Z</time>
      </trkpt>
      <trkpt lat="48.40615" lon="7.32106">
        <ele>634.71175010922</ele>
        <time>2022-04-28T15:26:20.846Z</time>
      </trkpt>
      <trkpt lat="48.40615" lon="7.32106">
        <ele>632.78215552622</ele>
        <time>2022-04-28T15:26:26.868Z</time>
      </trkpt>
      <trkpt lat="48.40616" lon="7.32111">
        <ele>630.77977960035</ele>
        <time>2022-04-28T15:26:32.890Z</time>
      </trkpt>
      <trkpt lat="48.40616" lon="7.32131">
        <ele>628.66548362268</ele>
        <time>2022-04-28T15:26:38.914Z</time>
      </trkpt>
      <trkpt lat="48.40612" lon="7.32154">
        <ele>626.56361073705</ele>
        <time>2022-04-28T15:26:44.941Z</time>
      </trkpt>
      <trkpt lat="48.40603" lon="7.32174">
        <ele>624.53641310622</ele>
        <time>2022-04-28T15:26:50.970Z</time>
      </trkpt>
      <trkpt lat="48.40603" lon="7.32174">
        <ele>622.48734427302</ele>
        <time>2022-04-28T15:26:56.999Z</time>
      </trkpt>
      <trkpt lat="48.40559" lon="7.3228">
        <ele>620.48444079355</ele>
        <time>2022-04-28T15:27:03.042Z</time>
      </trkpt>
      <trkpt lat="48.40549" lon="7.32298">
        <ele>618.41000848897</ele>
        <time>2022-04-28T15:27:09.087Z</time>
      </trkpt>
      <trkpt lat="48.40536" lon="7.32311">
        <ele>616.30230737774</ele>
        <time>2022-04-28T15:27:15.135Z</time>
      </trkpt>
      <trkpt lat="48.4052" lon="7.32317">
        <ele>614.16069436588</ele>
        <time>2022-04-28T15:27:21.185Z</time>
      </trkpt>
      <trkpt lat="48.40506" lon="7.32319">
        <ele>612.03034269184</ele>
        <time>2022-04-28T15:27:27.237Z</time>
      </trkpt>
      <trkpt lat="48.40421" lon="7.32313">
        <ele>609.57158906039</ele>
        <time>2022-04-28T15:27:33.303Z</time>
      </trkpt>
      <trkpt lat="48.40403" lon="7.32315">
        <ele>607.38442831631</ele>
        <time>2022-04-28T15:27:39.372Z</time>
      </trkpt>
      <trkpt lat="48.40392" lon="7.32319">
        <ele>605.22252105712</ele>
        <time>2022-04-28T15:27:45.443Z</time>
      </trkpt>
      <trkpt lat="48.40376" lon="7.32331">
        <ele>603.0415786734</ele>
        <time>2022-04-28T15:27:51.517Z</time>
      </trkpt>
      <trkpt lat="48.40366" lon="7.32345">
        <ele>600.91909277093</ele>
        <time>2022-04-28T15:27:57.593Z</time>
      </trkpt>
      <trkpt lat="48.40364" lon="7.32349">
        <ele>598.85705384662</ele>
        <time>2022-04-28T15:28:03.670Z</time>
      </trkpt>
      <trkpt lat="48.40356" lon="7.32372">
        <ele>596.82289013278</ele>
        <time>2022-04-28T15:28:09.749Z</time>
      </trkpt>
      <trkpt lat="48.40348" lon="7.32404">
        <ele>594.79083452952</ele>
        <time>2022-04-28T15:28:15.832Z</time>
      </trkpt>
      <trkpt lat="48.40341" lon="7.32442">
        <ele>592.72111656467</ele>
        <time>2022-04-28T15:28:21.919Z</time>
      </trkpt>
      <trkpt lat="48.40337" lon="7.32472">
        <ele>590.7014289349</ele>
        <time>2022-04-28T15:28:28.009Z</time>
      </trkpt>
      <trkpt lat="48.40342" lon="7.32569">
        <ele>588.6950787377</ele>
        <time>2022-04-28T15:28:34.110Z</time>
      </trkpt>
      <trkpt lat="48.4034" lon="7.32587">
        <ele>586.8639358578</ele>
        <time>2022-04-28T15:28:40.213Z</time>
      </trkpt>
      <trkpt lat="48.40329" lon="7.32645">
        <ele>584.72446827771</ele>
        <time>2022-04-28T15:28:46.322Z</time>
      </trkpt>
      <trkpt lat="48.40328" lon="7.32661">
        <ele>582.92760133693</ele>
        <time>2022-04-28T15:28:52.433Z</time>
      </trkpt>
      <trkpt lat="48.40328" lon="7.32661">
        <ele>581.39007168215</ele>
        <time>2022-04-28T15:28:58.544Z</time>
      </trkpt>
      <trkpt lat="48.40333" lon="7.3269">
        <ele>579.88822218651</ele>
        <time>2022-04-28T15:29:04.658Z</time>
      </trkpt>
      <trkpt lat="48.40343" lon="7.3273">
        <ele>578.50234531283</ele>
        <time>2022-04-28T15:29:10.777Z</time>
      </trkpt>
      <trkpt lat="48.40362" lon="7.32773">
        <ele>577.21718027121</ele>
        <time>2022-04-28T15:29:16.901Z</time>
      </trkpt>
      <trkpt lat="48.40393" lon="7.32834">
        <ele>576.02492251852</ele>
        <time>2022-04-28T15:29:23.033Z</time>
      </trkpt>
      <trkpt lat="48.40397" lon="7.32844">
        <ele>575.08186415221</ele>
        <time>2022-04-28T15:29:29.166Z</time>
      </trkpt>
      <trkpt lat="48.40403" lon="7.32863">
        <ele>574.27375063735</ele>
        <time>2022-04-28T15:29:35.302Z</time>
      </trkpt>
      <trkpt lat="48.40406" lon="7.32894">
        <ele>573.62977253956</ele>
        <time>2022-04-28T15:29:41.441Z</time>
      </trkpt>
      <trkpt lat="48.40403" lon="7.32922">
        <ele>573.17599742608</ele>
        <time>2022-04-28T15:29:47.583Z</time>
      </trkpt>
      <trkpt lat="48.40403" lon="7.32922">
        <ele>572.85282947066</ele>
        <time>2022-04-28T15:29:53.725Z</time>
      </trkpt>
      <trkpt lat="48.40396" lon="7.32959">
        <ele>572.73363278283</ele>
        <time>2022-04-28T15:29:59.871Z</time>
      </trkpt>
      <trkpt lat="48.40389" lon="7.32973">
        <ele>572.71626801548</ele>
        <time>2022-04-28T15:30:06.019Z</time>
      </trkpt>
      <trkpt lat="48.40382" lon="7.32985">
        <ele>572.82522586216</ele>
        <time>2022-04-28T15:30:12.169Z</time>
      </trkpt>
      <trkpt lat="48.40371" lon="7.32997">
        <ele>573.07207929827</ele>
        <time>2022-04-28T15:30:18.321Z</time>
      </trkpt>
      <trkpt lat="48.40362" lon="7.33005">
        <ele>573.46374761463</ele>
        <time>2022-04-28T15:30:24.475Z</time>
      </trkpt>
      <trkpt lat="48.40364" lon="7.33011">
        <ele>574.0306216066</ele>
        <time>2022-04-28T15:30:30.629Z</time>
      </trkpt>
      <trkpt lat="48.40379" lon="7.33042">
        <ele>574.90713185103</ele>
        <time>2022-04-28T15:30:36.788Z</time>
      </trkpt>
      <trkpt lat="48.40384" lon="7.33081">
        <ele>575.91113894446</ele>
        <time>2022-04-28T15:30:42.951Z</time>
      </trkpt>
      <trkpt lat="48.40388" lon="7.33091">
        <ele>576.86955364969</ele>
        <time>2022-04-28T15:30:49.115Z</time>
      </trkpt>
      <trkpt lat="48.40399" lon="7.331">
        <ele>577.91400335101</ele>
        <time>2022-04-28T15:30:55.281Z</time>
      </trkpt>
      <trkpt lat="48.40413" lon="7.33106">
        <ele>579.00165008162</ele>
        <time>2022-04-28T15:31:01.449Z</time>
      </trkpt>
      <trkpt lat="48.40435" lon="7.33115">
        <ele>580.16522151672</ele>
        <time>2022-04-28T15:31:07.621Z</time>
      </trkpt>
      <trkpt lat="48.4044" lon="7.33117">
        <ele>581.43005331255</ele>
        <time>2022-04-28T15:31:13.794Z</time>
      </trkpt>
      <trkpt lat="48.40448" lon="7.33129">
        <ele>582.84440373255</ele>
        <time>2022-04-28T15:31:19.969Z</time>
      </trkpt>
      <trkpt lat="48.40452" lon="7.33143">
        <ele>584.32769861015</ele>
        <time>2022-04-28T15:31:26.145Z</time>
      </trkpt>
      <trkpt lat="48.40453" lon="7.3315">
        <ele>585.88722349914</ele>
        <time>2022-04-28T15:31:32.322Z</time>
      </trkpt>
      <trkpt lat="48.4045" lon="7.33159">
        <ele>587.5507028231</ele>
        <time>2022-04-28T15:31:38.500Z</time>
      </trkpt>
      <trkpt lat="48.40443" lon="7.33166">
        <ele>589.27293252031</ele>
        <time>2022-04-28T15:31:44.679Z</time>
      </trkpt>
      <trkpt lat="48.40435" lon="7.33168">
        <ele>591.08970982225</ele>
        <time>2022-04-28T15:31:50.860Z</time>
      </trkpt>
      <trkpt lat="48.40359" lon="7.33145">
        <ele>593.1623933647</ele>
        <time>2022-04-28T15:31:57.053Z</time>
      </trkpt>
      <trkpt lat="48.40343" lon="7.33137">
        <ele>594.89608300234</ele>
        <time>2022-04-28T15:32:03.249Z</time>
      </trkpt>
      <trkpt lat="48.40334" lon="7.33135">
        <ele>596.74894891508</ele>
        <time>2022-04-28T15:32:09.446Z</time>
      </trkpt>
      <trkpt lat="48.40327" lon="7.33138">
        <ele>598.66385887593</ele>
        <time>2022-04-28T15:32:15.644Z</time>
      </trkpt>
      <trkpt lat="48.40321" lon="7.33143">
        <ele>600.60823106747</ele>
        <time>2022-04-28T15:32:21.844Z</time>
      </trkpt>
      <trkpt lat="48.40315" lon="7.33157">
        <ele>602.65700906944</ele>
        <time>2022-04-28T15:32:28.045Z</time>
      </trkpt>
      <trkpt lat="48.40297" lon="7.33239">
        <ele>605.13806049334</ele>
        <time>2022-04-28T15:32:34.255Z</time>
      </trkpt>
      <trkpt lat="48.40294" lon="7.33268">
        <ele>607.42132660599</ele>
        <time>2022-04-28T15:32:40.469Z</time>
      </trkpt>
      <trkpt lat="48.40294" lon="7.33294">
        <ele>609.78320925289</ele>
        <time>2022-04-28T15:32:46.685Z</time>
      </trkpt>
      <trkpt lat="48.40295" lon="7.33323">
        <ele>612.09840151112</ele>
        <time>2022-04-28T15:32:52.905Z</time>
      </trkpt>
      <trkpt lat="48.403" lon="7.33356">
        <ele>614.47161896088</ele>
        <time>2022-04-28T15:32:59.128Z</time>
      </trkpt>
      <trkpt lat="48.40311" lon="7.33385">
        <ele>616.77738901188</ele>
        <time>2022-04-28T15:33:05.355Z</time>
      </trkpt>
      <trkpt lat="48.40325" lon="7.33417">
        <ele>618.92273110438</ele>
        <time>2022-04-28T15:33:11.586Z</time>
      </trkpt>
      <trkpt lat="48.4034" lon="7.33445">
        <ele>620.97385391129</ele>
        <time>2022-04-28T15:33:17.821Z</time>
      </trkpt>
      <trkpt lat="48.40352" lon="7.33455">
        <ele>623.06501927092</ele>
        <time>2022-04-28T15:33:24.058Z</time>
      </trkpt>
      <trkpt lat="48.40368" lon="7.33467">
        <ele>625.14157207054</ele>
        <time>2022-04-28T15:33:30.298Z</time>
      </trkpt>
      <trkpt lat="48.40391" lon="7.33478">
        <ele>627.24312189113</ele>
        <time>2022-04-28T15:33:36.541Z</time>
      </trkpt>
      <trkpt lat="48.40399" lon="7.33488">
        <ele>629.15828887631</ele>
        <time>2022-04-28T15:33:42.786Z</time>
      </trkpt>
      <trkpt lat="48.40407" lon="7.33503">
        <ele>631.01776932832</ele>
        <time>2022-04-28T15:33:49.033Z</time>
      </trkpt>
      <trkpt lat="48.40418" lon="7.33529">
        <ele>632.91384584979</ele>
        <time>2022-04-28T15:33:55.284Z</time>
      </trkpt>
      <trkpt lat="48.40445" lon="7.33572">
        <ele>634.99522975212</ele>
        <time>2022-04-28T15:34:01.541Z</time>
      </trkpt>
      <trkpt lat="48.40499" lon="7.33645">
        <ele>636.88558343357</ele>
        <time>2022-04-28T15:34:07.809Z</time>
      </trkpt>
      <trkpt lat="48.40518" lon="7.3366">
        <ele>638.82182704515</ele>
        <time>2022-04-28T15:34:14.081Z</time>
      </trkpt>
      <trkpt lat="48.40554" lon="7.33672">
        <ele>640.80309502575</ele>
        <time>2022-04-28T15:34:20.359Z</time>
      </trkpt>
      <trkpt lat="48.40565" lon="7.33683">
        <ele>642.47805263101</ele>
        <time>2022-04-28T15:34:26.639Z</time>
      </trkpt>
      <trkpt lat="48.40573" lon="7.33698">
        <ele>644.12154741731</ele>
        <time>2022-04-28T15:34:32.921Z</time>
      </trkpt>
      <trkpt lat="48.40588" lon="7.33737">
        <ele>645.65382320419</ele>
        <time>2022-04-28T15:34:39.208Z</time>
      </trkpt>
      <trkpt lat="48.40601" lon="7.33767">
        <ele>647.41894457491</ele>
        <time>2022-04-28T15:34:45.498Z</time>
      </trkpt>
      <trkpt lat="48.40614" lon="7.33791">
        <ele>649.25055107738</ele>
        <time>2022-04-28T15:34:51.792Z</time>
      </trkpt>
      <trkpt lat="48.40628" lon="7.33811">
        <ele>651.04665550762</ele>
        <time>2022-04-28T15:34:58.089Z</time>
      </trkpt>
      <trkpt lat="48.40689" lon="7.33868">
        <ele>653.28442758563</ele>
        <time>2022-04-28T15:35:04.397Z</time>
      </trkpt>
      <trkpt lat="48.40706" lon="7.33888">
        <ele>655.41695502386</ele>
        <time>2022-04-28T15:35:10.709Z</time>
      </trkpt>
      <trkpt lat="48.40741" lon="7.33938">
        <ele>657.55121771212</ele>
        <time>2022-04-28T15:35:17.029Z</time>
      </trkpt>
      <trkpt lat="48.40756" lon="7.33953">
        <ele>659.4989754967</ele>
        <time>2022-04-28T15:35:23.352Z</time>
      </trkpt>
      <trkpt lat="48.40771" lon="7.33961">
        <ele>661.55838691779</ele>
        <time>2022-04-28T15:35:29.677Z</time>
      </trkpt>
      <trkpt lat="48.40783" lon="7.33963">
        <ele>663.59372425625</ele>
        <time>2022-04-28T15:35:36.004Z</time>
      </trkpt>
      <trkpt lat="48.40798" lon="7.3396">
        <ele>665.69293434039</ele>
        <time>2022-04-28T15:35:42.333Z</time>
      </trkpt>
      <trkpt lat="48.4083" lon="7.33943">
        <ele>667.91282515988</ele>
        <time>2022-04-28T15:35:48.668Z</time>
      </trkpt>
      <trkpt lat="48.40845" lon="7.33937">
        <ele>669.99889551103</ele>
        <time>2022-04-28T15:35:55.005Z</time>
      </trkpt>
      <trkpt lat="48.40862" lon="7.33936">
        <ele>672.11945457194</ele>
        <time>2022-04-28T15:36:01.345Z</time>
      </trkpt>
      <trkpt lat="48.40874" lon="7.33939">
        <ele>674.26778357014</ele>
        <time>2022-04-28T15:36:07.687Z</time>
      </trkpt>
      <trkpt lat="48.40889" lon="7.3395">
        <ele>676.43290417115</ele>
        <time>2022-04-28T15:36:14.032Z</time>
      </trkpt>
      <trkpt lat="48.40919" lon="7.33993">
        <ele>678.63449330683</ele>
        <time>2022-04-28T15:36:20.383Z</time>
      </trkpt>
      <trkpt lat="48.40933" lon="7.34003">
        <ele>680.72710189872</ele>
        <time>2022-04-28T15:36:26.737Z</time>
      </trkpt>
      <trkpt lat="48.4095" lon="7.34005">
        <ele>682.88980168208</ele>
        <time>2022-04-28T15:36:33.093Z</time>
      </trkpt>
      <trkpt lat="48.40963" lon="7.34003">
        <ele>685.06438113585</ele>
        <time>2022-04-28T15:36:39.452Z</time>
      </trkpt>
      <trkpt lat="48.41004" lon="7.33981">
        <ele>687.2571852948</ele>
        <time>2022-04-28T15:36:45.818Z</time>
      </trkpt>
      <trkpt lat="48.4103" lon="7.33971">
        <ele>689.61482254608</ele>
        <time>2022-04-28T15:36:52.188Z</time>
      </trkpt>
      <trkpt lat="48.41053" lon="7.33966">
        <ele>692.06843203858</ele>
        <time>2022-04-28T15:36:58.561Z</time>
      </trkpt>
      <trkpt lat="48.41113" lon="7.33969">
        <ele>694.8571821866</ele>
        <time>2022-04-28T15:37:04.944Z</time>
      </trkpt>
      <trkpt lat="48.41179" lon="7.33963">
        <ele>697.70114376203</ele>
        <time>2022-04-28T15:37:11.338Z</time>
      </trkpt>
      <trkpt lat="48.41241" lon="7.33978">
        <ele>699.86322440361</ele>
        <time>2022-04-28T15:37:17.742Z</time>
      </trkpt>
      <trkpt lat="48.41241" lon="7.33978">
        <ele>702.1872054803</ele>
        <time>2022-04-28T15:37:24.146Z</time>
      </trkpt>
      <trkpt lat="48.41246" lon="7.33979">
        <ele>704.50693103868</ele>
        <time>2022-04-28T15:37:30.551Z</time>
      </trkpt>
      <trkpt lat="48.41326" lon="7.33979">
        <ele>707.23877719026</ele>
        <time>2022-04-28T15:37:36.968Z</time>
      </trkpt>
      <trkpt lat="48.41355" lon="7.33984">
        <ele>709.79871190673</ele>
        <time>2022-04-28T15:37:43.390Z</time>
      </trkpt>
      <trkpt lat="48.41368" lon="7.33991">
        <ele>712.19761863547</ele>
        <time>2022-04-28T15:37:49.814Z</time>
      </trkpt>
      <trkpt lat="48.41377" lon="7.34003">
        <ele>714.49389540838</ele>
        <time>2022-04-28T15:37:56.240Z</time>
      </trkpt>
      <trkpt lat="48.41396" lon="7.34035">
        <ele>716.75053672814</ele>
        <time>2022-04-28T15:38:02.671Z</time>
      </trkpt>
      <trkpt lat="48.4141" lon="7.34053">
        <ele>718.96912215996</ele>
        <time>2022-04-28T15:38:09.105Z</time>
      </trkpt>
      <trkpt lat="48.41418" lon="7.34061">
        <ele>721.16740480671</ele>
        <time>2022-04-28T15:38:15.540Z</time>
      </trkpt>
      <trkpt lat="48.41433" lon="7.34064">
        <ele>723.38837953618</ele>
        <time>2022-04-28T15:38:21.978Z</time>
      </trkpt>
      <trkpt lat="48.41449" lon="7.34062">
        <ele>725.57288165384</ele>
        <time>2022-04-28T15:38:28.418Z</time>
      </trkpt>
      <trkpt lat="48.41467" lon="7.34054">
        <ele>727.75165620568</ele>
        <time>2022-04-28T15:38:34.861Z</time>
      </trkpt>
      <trkpt lat="48.41477" lon="7.34044">
        <ele>729.84274161285</ele>
        <time>2022-04-28T15:38:41.306Z</time>
      </trkpt>
      <trkpt lat="48.41486" lon="7.34028">
        <ele>731.89524132434</ele>
        <time>2022-04-28T15:38:47.753Z</time>
      </trkpt>
      <trkpt lat="48.41499" lon="7.33995">
        <ele>733.97808540911</ele>
        <time>2022-04-28T15:38:54.204Z</time>
      </trkpt>
      <trkpt lat="48.4151" lon="7.33974">
        <ele>735.91564967962</ele>
        <time>2022-04-28T15:39:00.658Z</time>
      </trkpt>
      <trkpt lat="48.41521" lon="7.33953">
        <ele>737.91571484165</ele>
        <time>2022-04-28T15:39:07.115Z</time>
      </trkpt>
      <trkpt lat="48.41539" lon="7.33932">
        <ele>739.89913014495</ele>
        <time>2022-04-28T15:39:13.576Z</time>
      </trkpt>
      <trkpt lat="48.41555" lon="7.33916">
        <ele>741.77771164088</ele>
        <time>2022-04-28T15:39:20.040Z</time>
      </trkpt>
      <trkpt lat="48.41579" lon="7.33904">
        <ele>743.67819472906</ele>
        <time>2022-04-28T15:39:26.508Z</time>
      </trkpt>
      <trkpt lat="48.41616" lon="7.33895">
        <ele>745.44048536033</ele>
        <time>2022-04-28T15:39:32.982Z</time>
      </trkpt>
      <trkpt lat="48.41631" lon="7.33896">
        <ele>746.90431066887</ele>
        <time>2022-04-28T15:39:39.458Z</time>
      </trkpt>
      <trkpt lat="48.41661" lon="7.3391">
        <ele>748.09954694294</ele>
        <time>2022-04-28T15:39:45.939Z</time>
      </trkpt>
      <trkpt lat="48.41676" lon="7.33914">
        <ele>749.55496954863</ele>
        <time>2022-04-28T15:39:52.423Z</time>
      </trkpt>
      <trkpt lat="48.41711" lon="7.33908">
        <ele>751.27328900427</ele>
        <time>2022-04-28T15:39:58.913Z</time>
      </trkpt>
      <trkpt lat="48.41724" lon="7.33912">
        <ele>752.70183525551</ele>
        <time>2022-04-28T15:40:05.405Z</time>
      </trkpt>
      <trkpt lat="48.41733" lon="7.33925">
        <ele>754.06396543859</ele>
        <time>2022-04-28T15:40:11.899Z</time>
      </trkpt>
      <trkpt lat="48.41733" lon="7.33925">
        <ele>756.6945520109</ele>
        <time>2022-04-28T15:40:18.393Z</time>
      </trkpt>
      <trkpt lat="48.41734" lon="7.33926">
        <ele>758.0003346353</ele>
        <time>2022-04-28T15:40:24.887Z</time>
      </trkpt>
      <trkpt lat="48.41738" lon="7.33945">
        <ele>759.23939403473</ele>
        <time>2022-04-28T15:40:31.383Z</time>
      </trkpt>
      <trkpt lat="48.41737" lon="7.34024">
        <ele>760.42890735444</ele>
        <time>2022-04-28T15:40:37.887Z</time>
      </trkpt>
      <trkpt lat="48.41734" lon="7.34052">
        <ele>761.80897507107</ele>
        <time>2022-04-28T15:40:44.394Z</time>
      </trkpt>
      <trkpt lat="48.41722" lon="7.34095">
        <ele>763.18178397925</ele>
        <time>2022-04-28T15:40:50.906Z</time>
      </trkpt>
      <trkpt lat="48.41718" lon="7.34117">
        <ele>764.58801243421</ele>
        <time>2022-04-28T15:40:57.421Z</time>
      </trkpt>
      <trkpt lat="48.41717" lon="7.34166">
        <ele>766.09852767479</ele>
        <time>2022-04-28T15:41:03.941Z</time>
      </trkpt>
      <trkpt lat="48.41713" lon="7.34184">
        <ele>767.49371513387</ele>
        <time>2022-04-28T15:41:10.463Z</time>
      </trkpt>
      <trkpt lat="48.41702" lon="7.34217">
        <ele>768.77732948505</ele>
        <time>2022-04-28T15:41:16.989Z</time>
      </trkpt>
      <trkpt lat="48.41695" lon="7.34247">
        <ele>770.21515712059</ele>
        <time>2022-04-28T15:41:23.518Z</time>
      </trkpt>
      <trkpt lat="48.41689" lon="7.34304">
        <ele>771.75891423599</ele>
        <time>2022-04-28T15:41:30.053Z</time>
      </trkpt>
      <trkpt lat="48.41683" lon="7.34336">
        <ele>773.21429892296</ele>
        <time>2022-04-28T15:41:36.592Z</time>
      </trkpt>
      <trkpt lat="48.41678" lon="7.34358">
        <ele>774.53921875118</ele>
        <time>2022-04-28T15:41:43.133Z</time>
      </trkpt>
      <trkpt lat="48.4163" lon="7.34503">
        <ele>776.20552074262</ele>
        <time>2022-04-28T15:41:49.692Z</time>
      </trkpt>
      <trkpt lat="48.41617" lon="7.3453">
        <ele>777.44709550529</ele>
        <time>2022-04-28T15:41:56.254Z</time>
      </trkpt>
      <trkpt lat="48.41605" lon="7.34551">
        <ele>778.49263431583</ele>
        <time>2022-04-28T15:42:02.819Z</time>
      </trkpt>
      <trkpt lat="48.41591" lon="7.34569">
        <ele>779.42278551742</ele>
        <time>2022-04-28T15:42:09.387Z</time>
      </trkpt>
      <trkpt lat="48.41544" lon="7.34619">
        <ele>780.32372616545</ele>
        <time>2022-04-28T15:42:15.964Z</time>
      </trkpt>
      <trkpt lat="48.41504" lon="7.34669">
        <ele>780.97691992604</ele>
        <time>2022-04-28T15:42:22.550Z</time>
      </trkpt>
      <trkpt lat="48.41483" lon="7.347">
        <ele>781.39507746102</ele>
        <time>2022-04-28T15:42:29.140Z</time>
      </trkpt>
      <trkpt lat="48.41422" lon="7.34848">
        <ele>781.49790680958</ele>
        <time>2022-04-28T15:42:35.749Z</time>
      </trkpt>
      <trkpt lat="48.41388" lon="7.35011">
        <ele>780.99941963694</ele>
        <time>2022-04-28T15:42:42.376Z</time>
      </trkpt>
      <trkpt lat="48.4161" lon="7.3514">
        <ele>779.10691211447</ele>
        <time>2022-04-28T15:42:49.041Z</time>
      </trkpt>
      <trkpt lat="48.41764" lon="7.35303">
        <ele>776.64925061588</ele>
        <time>2022-04-28T15:42:55.737Z</time>
      </trkpt>
      <trkpt lat="48.41758" lon="7.35308">
        <ele>774.04108497445</ele>
        <time>2022-04-28T15:43:02.434Z</time>
      </trkpt>
      <trkpt lat="48.41763" lon="7.35319">
        <ele>772.65070452763</ele>
        <time>2022-04-28T15:43:09.132Z</time>
      </trkpt>
      <trkpt lat="48.41767" lon="7.35336">
        <ele>771.14579348794</ele>
        <time>2022-04-28T15:43:15.832Z</time>
      </trkpt>
      <trkpt lat="48.4177" lon="7.35419">
        <ele>769.23267093861</ele>
        <time>2022-04-28T15:43:22.541Z</time>
      </trkpt>
      <trkpt lat="48.41772" lon="7.35445">
        <ele>767.6149084603</ele>
        <time>2022-04-28T15:43:29.252Z</time>
      </trkpt>
      <trkpt lat="48.41778" lon="7.35472">
        <ele>766.0293472854</ele>
        <time>2022-04-28T15:43:35.967Z</time>
      </trkpt>
      <trkpt lat="48.41806" lon="7.35575">
        <ele>764.27040368961</ele>
        <time>2022-04-28T15:43:42.693Z</time>
      </trkpt>
      <trkpt lat="48.41815" lon="7.35603">
        <ele>762.67063651755</ele>
        <time>2022-04-28T15:43:49.423Z</time>
      </trkpt>
      <trkpt lat="48.41828" lon="7.3563">
        <ele>761.12459296514</ele>
        <time>2022-04-28T15:43:56.156Z</time>
      </trkpt>
      <trkpt lat="48.41849" lon="7.35658">
        <ele>759.43259246165</ele>
        <time>2022-04-28T15:44:02.894Z</time>
      </trkpt>
      <trkpt lat="48.4187" lon="7.3568">
        <ele>757.76093563595</ele>
        <time>2022-04-28T15:44:09.636Z</time>
      </trkpt>
      <trkpt lat="48.41896" lon="7.35695">
        <ele>756.212430783</ele>
        <time>2022-04-28T15:44:16.382Z</time>
      </trkpt>
      <trkpt lat="48.41915" lon="7.357">
        <ele>754.75177709866</ele>
        <time>2022-04-28T15:44:23.131Z</time>
      </trkpt>
      <trkpt lat="48.41933" lon="7.35697">
        <ele>753.34544129239</ele>
        <time>2022-04-28T15:44:29.883Z</time>
      </trkpt>
      <trkpt lat="48.41949" lon="7.35691">
        <ele>752.03617748629</ele>
        <time>2022-04-28T15:44:36.638Z</time>
      </trkpt>
      <trkpt lat="48.41988" lon="7.35664">
        <ele>751.0662783752</ele>
        <time>2022-04-28T15:44:43.400Z</time>
      </trkpt>
      <trkpt lat="48.41998" lon="7.35664">
        <ele>749.81534324339</ele>
        <time>2022-04-28T15:44:50.163Z</time>
      </trkpt>
      <trkpt lat="48.42004" lon="7.35669">
        <ele>748.61409831323</ele>
        <time>2022-04-28T15:44:56.927Z</time>
      </trkpt>
      <trkpt lat="48.42012" lon="7.35678">
        <ele>747.40706823052</ele>
        <time>2022-04-28T15:45:03.693Z</time>
      </trkpt>
      <trkpt lat="48.42015" lon="7.35692">
        <ele>746.1131556936</ele>
        <time>2022-04-28T15:45:10.461Z</time>
      </trkpt>
      <trkpt lat="48.42016" lon="7.35708">
        <ele>744.83820668175</ele>
        <time>2022-04-28T15:45:17.230Z</time>
      </trkpt>
      <trkpt lat="48.42014" lon="7.35729">
        <ele>743.45066661222</ele>
        <time>2022-04-28T15:45:24.002Z</time>
      </trkpt>
      <trkpt lat="48.42007" lon="7.35755">
        <ele>741.99155969914</ele>
        <time>2022-04-28T15:45:30.776Z</time>
      </trkpt>
      <trkpt lat="48.42004" lon="7.3576">
        <ele>740.54137218689</ele>
        <time>2022-04-28T15:45:37.551Z</time>
      </trkpt>
      <trkpt lat="48.41993" lon="7.3578">
        <ele>738.98030449238</ele>
        <time>2022-04-28T15:45:44.329Z</time>
      </trkpt>
      <trkpt lat="48.41922" lon="7.35874">
        <ele>737.11892637378</ele>
        <time>2022-04-28T15:45:51.122Z</time>
      </trkpt>
      <trkpt lat="48.41864" lon="7.35957">
        <ele>735.28546559409</ele>
        <time>2022-04-28T15:45:57.928Z</time>
      </trkpt>
      <trkpt lat="48.41851" lon="7.3598">
        <ele>733.59893747616</ele>
        <time>2022-04-28T15:46:04.737Z</time>
      </trkpt>
      <trkpt lat="48.41844" lon="7.35999">
        <ele>732.00429316328</ele>
        <time>2022-04-28T15:46:11.549Z</time>
      </trkpt>
      <trkpt lat="48.41841" lon="7.3602">
        <ele>730.40039898924</ele>
        <time>2022-04-28T15:46:18.363Z</time>
      </trkpt>
      <trkpt lat="48.41841" lon="7.3602">
        <ele>728.91770577305</ele>
        <time>2022-04-28T15:46:25.177Z</time>
      </trkpt>
      <trkpt lat="48.41837" lon="7.36061">
        <ele>727.24889570699</ele>
        <time>2022-04-28T15:46:31.995Z</time>
      </trkpt>
      <trkpt lat="48.41838" lon="7.36082">
        <ele>725.70028408112</ele>
        <time>2022-04-28T15:46:38.816Z</time>
      </trkpt>
      <trkpt lat="48.41842" lon="7.36102">
        <ele>724.21195275842</ele>
        <time>2022-04-28T15:46:45.639Z</time>
      </trkpt>
      <trkpt lat="48.41846" lon="7.36117">
        <ele>722.75732092511</ele>
        <time>2022-04-28T15:46:52.464Z</time>
      </trkpt>
      <trkpt lat="48.41855" lon="7.36134">
        <ele>721.3535078695</ele>
        <time>2022-04-28T15:46:59.291Z</time>
      </trkpt>
      <trkpt lat="48.41907" lon="7.36202">
        <ele>720.08290199819</ele>
        <time>2022-04-28T15:47:06.129Z</time>
      </trkpt>
      <trkpt lat="48.41937" lon="7.36248">
        <ele>718.8298685511</ele>
        <time>2022-04-28T15:47:12.974Z</time>
      </trkpt>
      <trkpt lat="48.41988" lon="7.36344">
        <ele>717.5988513131</ele>
        <time>2022-04-28T15:47:19.832Z</time>
      </trkpt>
      <trkpt lat="48.42005" lon="7.36368">
        <ele>716.24170120161</ele>
        <time>2022-04-28T15:47:26.694Z</time>
      </trkpt>
      <trkpt lat="48.42025" lon="7.36384">
        <ele>715.03432330992</ele>
        <time>2022-04-28T15:47:33.559Z</time>
      </trkpt>
      <trkpt lat="48.42033" lon="7.36387">
        <ele>713.87166187534</ele>
        <time>2022-04-28T15:47:40.425Z</time>
      </trkpt>
      <trkpt lat="48.42033" lon="7.36387">
        <ele>712.7658548298</ele>
        <time>2022-04-28T15:47:47.291Z</time>
      </trkpt>
      <trkpt lat="48.42058" lon="7.36392">
        <ele>711.58818998129</ele>
        <time>2022-04-28T15:47:54.161Z</time>
      </trkpt>
      <trkpt lat="48.4208" lon="7.36389">
        <ele>710.59921545999</ele>
        <time>2022-04-28T15:48:01.035Z</time>
      </trkpt>
      <trkpt lat="48.42108" lon="7.36381">
        <ele>709.67092397232</ele>
        <time>2022-04-28T15:48:07.914Z</time>
      </trkpt>
      <trkpt lat="48.42126" lon="7.36384">
        <ele>708.81732052922</ele>
        <time>2022-04-28T15:48:14.796Z</time>
      </trkpt>
      <trkpt lat="48.42142" lon="7.36399">
        <ele>707.87678527926</ele>
        <time>2022-04-28T15:48:21.680Z</time>
      </trkpt>
      <trkpt lat="48.42148" lon="7.36429">
        <ele>706.74826522397</ele>
        <time>2022-04-28T15:48:28.568Z</time>
      </trkpt>
      <trkpt lat="48.42157" lon="7.36497">
        <ele>705.42073176861</ele>
        <time>2022-04-28T15:48:35.463Z</time>
      </trkpt>
      <trkpt lat="48.42165" lon="7.36539">
        <ele>704.3513307257</ele>
        <time>2022-04-28T15:48:42.363Z</time>
      </trkpt>
      <trkpt lat="48.42179" lon="7.36572">
        <ele>703.41582214777</ele>
        <time>2022-04-28T15:48:49.267Z</time>
      </trkpt>
      <trkpt lat="48.42202" lon="7.36618">
        <ele>702.58868847866</ele>
        <time>2022-04-28T15:48:56.177Z</time>
      </trkpt>
      <trkpt lat="48.42256" lon="7.36711">
        <ele>701.70428325049</ele>
        <time>2022-04-28T15:49:03.100Z</time>
      </trkpt>
      <trkpt lat="48.42348" lon="7.36862">
        <ele>701.10688661723</ele>
        <time>2022-04-28T15:49:10.045Z</time>
      </trkpt>
      <trkpt lat="48.4245" lon="7.36969">
        <ele>700.73371717296</ele>
        <time>2022-04-28T15:49:17.010Z</time>
      </trkpt>
      <trkpt lat="48.42516" lon="7.37044">
        <ele>700.32891130876</ele>
        <time>2022-04-28T15:49:23.988Z</time>
      </trkpt>
      <trkpt lat="48.42545" lon="7.37074">
        <ele>699.86462823808</ele>
        <time>2022-04-28T15:49:30.972Z</time>
      </trkpt>
      <trkpt lat="48.42586" lon="7.37114">
        <ele>699.52983605516</ele>
        <time>2022-04-28T15:49:37.964Z</time>
      </trkpt>
      <trkpt lat="48.42591" lon="7.37119">
        <ele>699.18635276098</ele>
        <time>2022-04-28T15:49:44.957Z</time>
      </trkpt>
      <trkpt lat="48.42648" lon="7.37172">
        <ele>698.73398578404</ele>
        <time>2022-04-28T15:49:51.960Z</time>
      </trkpt>
      <trkpt lat="48.42672" lon="7.37203">
        <ele>698.3508283016</ele>
        <time>2022-04-28T15:49:58.968Z</time>
      </trkpt>
      <trkpt lat="48.42681" lon="7.37227">
        <ele>698.16085175442</ele>
        <time>2022-04-28T15:50:05.979Z</time>
      </trkpt>
      <trkpt lat="48.42684" lon="7.37239">
        <ele>698.08666920319</ele>
        <time>2022-04-28T15:50:12.992Z</time>
      </trkpt>
      <trkpt lat="48.42688" lon="7.37264">
        <ele>698.10982942186</ele>
        <time>2022-04-28T15:50:20.008Z</time>
      </trkpt>
      <trkpt lat="48.42694" lon="7.37312">
        <ele>698.21184542737</ele>
        <time>2022-04-28T15:50:27.029Z</time>
      </trkpt>
      <trkpt lat="48.42705" lon="7.37365">
        <ele>698.38575854815</ele>
        <time>2022-04-28T15:50:34.056Z</time>
      </trkpt>
      <trkpt lat="48.42724" lon="7.37426">
        <ele>698.65970100598</ele>
        <time>2022-04-28T15:50:41.090Z</time>
      </trkpt>
      <trkpt lat="48.42733" lon="7.37474">
        <ele>699.02928924576</ele>
        <time>2022-04-28T15:50:48.129Z</time>
      </trkpt>
      <trkpt lat="48.42739" lon="7.37545">
        <ele>699.47665277612</ele>
        <time>2022-04-28T15:50:55.176Z</time>
      </trkpt>
      <trkpt lat="48.42739" lon="7.37545">
        <ele>700.05828112823</ele>
        <time>2022-04-28T15:51:02.223Z</time>
      </trkpt>
      <trkpt lat="48.42743" lon="7.37566">
        <ele>700.80143908193</ele>
        <time>2022-04-28T15:51:09.272Z</time>
      </trkpt>
      <trkpt lat="48.42757" lon="7.37596">
        <ele>701.72259961525</ele>
        <time>2022-04-28T15:51:16.325Z</time>
      </trkpt>
      <trkpt lat="48.42787" lon="7.37633">
        <ele>702.66600724535</ele>
        <time>2022-04-28T15:51:23.384Z</time>
      </trkpt>
      <trkpt lat="48.42799" lon="7.37657">
        <ele>703.52533098517</ele>
        <time>2022-04-28T15:51:30.446Z</time>
      </trkpt>
      <trkpt lat="48.42813" lon="7.37699">
        <ele>704.59789740989</ele>
        <time>2022-04-28T15:51:37.513Z</time>
      </trkpt>
      <trkpt lat="48.4282" lon="7.37739">
        <ele>705.64790185476</ele>
        <time>2022-04-28T15:51:44.585Z</time>
      </trkpt>
      <trkpt lat="48.42824" lon="7.37804">
        <ele>706.67280661059</ele>
        <time>2022-04-28T15:51:51.664Z</time>
      </trkpt>
      <trkpt lat="48.42823" lon="7.37838">
        <ele>707.70457498382</ele>
        <time>2022-04-28T15:51:58.746Z</time>
      </trkpt>
      <trkpt lat="48.42817" lon="7.37864">
        <ele>708.65371517381</ele>
        <time>2022-04-28T15:52:05.831Z</time>
      </trkpt>
      <trkpt lat="48.42811" lon="7.37883">
        <ele>709.62681868063</ele>
        <time>2022-04-28T15:52:12.919Z</time>
      </trkpt>
      <trkpt lat="48.42801" lon="7.37909">
        <ele>710.536760846</ele>
        <time>2022-04-28T15:52:20.010Z</time>
      </trkpt>
      <trkpt lat="48.42788" lon="7.37931">
        <ele>711.45918924263</ele>
        <time>2022-04-28T15:52:27.104Z</time>
      </trkpt>
      <trkpt lat="48.42772" lon="7.37951">
        <ele>712.33398860072</ele>
        <time>2022-04-28T15:52:34.201Z</time>
      </trkpt>
      <trkpt lat="48.42756" lon="7.37967">
        <ele>713.19694284913</ele>
        <time>2022-04-28T15:52:41.301Z</time>
      </trkpt>
      <trkpt lat="48.42732" lon="7.37984">
        <ele>714.10812172047</ele>
        <time>2022-04-28T15:52:48.406Z</time>
      </trkpt>
      <trkpt lat="48.42688" lon="7.38022">
        <ele>714.91579936978</ele>
        <time>2022-04-28T15:52:55.519Z</time>
      </trkpt>
      <trkpt lat="48.42678" lon="7.38034">
        <ele>715.52623297497</ele>
        <time>2022-04-28T15:53:02.634Z</time>
      </trkpt>
      <trkpt lat="48.42663" lon="7.38058">
        <ele>716.02446796874</ele>
        <time>2022-04-28T15:53:09.752Z</time>
      </trkpt>
      <trkpt lat="48.42649" lon="7.38093">
        <ele>716.53095692133</ele>
        <time>2022-04-28T15:53:16.875Z</time>
      </trkpt>
      <trkpt lat="48.42638" lon="7.38127">
        <ele>717.06178683558</ele>
        <time>2022-04-28T15:53:24.002Z</time>
      </trkpt>
      <trkpt lat="48.42616" lon="7.38221">
        <ele>717.59723080624</ele>
        <time>2022-04-28T15:53:31.139Z</time>
      </trkpt>
      <trkpt lat="48.4259" lon="7.38334">
        <ele>717.99591965529</ele>
        <time>2022-04-28T15:53:38.289Z</time>
      </trkpt>
      <trkpt lat="48.42584" lon="7.38371">
        <ele>718.32535491587</ele>
        <time>2022-04-28T15:53:45.443Z</time>
      </trkpt>
      <trkpt lat="48.42582" lon="7.38397">
        <ele>718.68857917099</ele>
        <time>2022-04-28T15:53:52.600Z</time>
      </trkpt>
      <trkpt lat="48.42582" lon="7.38397">
        <ele>719.02934323104</ele>
        <time>2022-04-28T15:53:59.757Z</time>
      </trkpt>
      <trkpt lat="48.42585" lon="7.38426">
        <ele>719.39128373375</ele>
        <time>2022-04-28T15:54:06.917Z</time>
      </trkpt>
      <trkpt lat="48.42595" lon="7.38486">
        <ele>719.73837393486</ele>
        <time>2022-04-28T15:54:14.084Z</time>
      </trkpt>
      <trkpt lat="48.42603" lon="7.38528">
        <ele>719.99256936484</ele>
        <time>2022-04-28T15:54:21.255Z</time>
      </trkpt>
      <trkpt lat="48.42603" lon="7.38561">
        <ele>720.23461802502</ele>
        <time>2022-04-28T15:54:28.430Z</time>
      </trkpt>
      <trkpt lat="48.42599" lon="7.38578">
        <ele>720.50631182682</ele>
        <time>2022-04-28T15:54:35.607Z</time>
      </trkpt>
      <trkpt lat="48.4258" lon="7.38627">
        <ele>720.9249313866</ele>
        <time>2022-04-28T15:54:42.790Z</time>
      </trkpt>
      <trkpt lat="48.42574" lon="7.38649">
        <ele>721.23719337487</ele>
        <time>2022-04-28T15:54:49.975Z</time>
      </trkpt>
      <trkpt lat="48.42571" lon="7.38671">
        <ele>721.49250184172</ele>
        <time>2022-04-28T15:54:57.163Z</time>
      </trkpt>
      <trkpt lat="48.4257" lon="7.38755">
        <ele>721.71971789028</ele>
        <time>2022-04-28T15:55:04.360Z</time>
      </trkpt>
      <trkpt lat="48.42567" lon="7.38776">
        <ele>721.94264435729</ele>
        <time>2022-04-28T15:55:11.559Z</time>
      </trkpt>
      <trkpt lat="48.42562" lon="7.38792">
        <ele>722.17324264061</ele>
        <time>2022-04-28T15:55:18.760Z</time>
      </trkpt>
      <trkpt lat="48.42555" lon="7.38809">
        <ele>722.38569318252</ele>
        <time>2022-04-28T15:55:25.963Z</time>
      </trkpt>
      <trkpt lat="48.42538" lon="7.38835">
        <ele>722.57976497991</ele>
        <time>2022-04-28T15:55:33.170Z</time>
      </trkpt>
      <trkpt lat="48.42523" lon="7.38848">
        <ele>722.88754044112</ele>
        <time>2022-04-28T15:55:40.379Z</time>
      </trkpt>
      <trkpt lat="48.42477" lon="7.3888">
        <ele>723.24763919347</ele>
        <time>2022-04-28T15:55:47.597Z</time>
      </trkpt>
      <trkpt lat="48.42477" lon="7.3888">
        <ele>723.51552145512</ele>
        <time>2022-04-28T15:55:54.815Z</time>
      </trkpt>
      <trkpt lat="48.42463" lon="7.3889">
        <ele>723.805197587</ele>
        <time>2022-04-28T15:56:02.035Z</time>
      </trkpt>
      <trkpt lat="48.42397" lon="7.38921">
        <ele>724.52348978711</ele>
        <time>2022-04-28T15:56:09.266Z</time>
      </trkpt>
      <trkpt lat="48.42328" lon="7.38978">
        <ele>724.97814490067</ele>
        <time>2022-04-28T15:56:16.510Z</time>
      </trkpt>
      <trkpt lat="48.42308" lon="7.38996">
        <ele>725.34504859822</ele>
        <time>2022-04-28T15:56:23.758Z</time>
      </trkpt>
      <trkpt lat="48.42296" lon="7.39011">
        <ele>725.57838429677</ele>
        <time>2022-04-28T15:56:31.008Z</time>
      </trkpt>
      <trkpt lat="48.42287" lon="7.39031">
        <ele>725.78661807237</ele>
        <time>2022-04-28T15:56:38.261Z</time>
      </trkpt>
      <trkpt lat="48.42273" lon="7.3909">
        <ele>725.81706080588</ele>
        <time>2022-04-28T15:56:45.520Z</time>
      </trkpt>
      <trkpt lat="48.4227" lon="7.39161">
        <ele>726.04139206673</ele>
        <time>2022-04-28T15:56:52.787Z</time>
      </trkpt>
      <trkpt lat="48.42268" lon="7.39235">
        <ele>726.36271621888</ele>
        <time>2022-04-28T15:57:00.062Z</time>
      </trkpt>
      <trkpt lat="48.42268" lon="7.39235">
        <ele>726.69316153377</ele>
        <time>2022-04-28T15:57:07.337Z</time>
      </trkpt>
      <trkpt lat="48.42267" lon="7.39291">
        <ele>726.93017844531</ele>
        <time>2022-04-28T15:57:14.618Z</time>
      </trkpt>
      <trkpt lat="48.42267" lon="7.39291">
        <ele>727.35397379851</ele>
        <time>2022-04-28T15:57:21.899Z</time>
      </trkpt>
      <trkpt lat="48.42269" lon="7.39467">
        <ele>727.76996868724</ele>
        <time>2022-04-28T15:57:29.199Z</time>
      </trkpt>
      <trkpt lat="48.42265" lon="7.39594">
        <ele>728.18617442513</ele>
        <time>2022-04-28T15:57:36.512Z</time>
      </trkpt>
      <trkpt lat="48.42258" lon="7.397">
        <ele>728.77889464216</ele>
        <time>2022-04-28T15:57:43.836Z</time>
      </trkpt>
      <trkpt lat="48.42273" lon="7.39917">
        <ele>729.58139958942</ele>
        <time>2022-04-28T15:57:51.184Z</time>
      </trkpt>
      <trkpt lat="48.42275" lon="7.39938">
        <ele>730.38889071124</ele>
        <time>2022-04-28T15:57:58.534Z</time>
      </trkpt>
      <trkpt lat="48.42283" lon="7.3997">
        <ele>731.31115977646</ele>
        <time>2022-04-28T15:58:05.888Z</time>
      </trkpt>
      <trkpt lat="48.4229" lon="7.39983">
        <ele>732.32577398362</ele>
        <time>2022-04-28T15:58:13.243Z</time>
      </trkpt>
      <trkpt lat="48.42308" lon="7.40016">
        <ele>733.53227911473</ele>
        <time>2022-04-28T15:58:20.603Z</time>
      </trkpt>
      <trkpt lat="48.42334" lon="7.4007">
        <ele>734.97754179319</ele>
        <time>2022-04-28T15:58:27.970Z</time>
      </trkpt>
      <trkpt lat="48.42348" lon="7.40091">
        <ele>736.39497352114</ele>
        <time>2022-04-28T15:58:35.340Z</time>
      </trkpt>
      <trkpt lat="48.42357" lon="7.40101">
        <ele>737.74456485821</ele>
        <time>2022-04-28T15:58:42.712Z</time>
      </trkpt>
      <trkpt lat="48.42372" lon="7.40104">
        <ele>739.04056225452</ele>
        <time>2022-04-28T15:58:50.086Z</time>
      </trkpt>
      <trkpt lat="48.4239" lon="7.40098">
        <ele>740.32935622081</ele>
        <time>2022-04-28T15:58:57.463Z</time>
      </trkpt>
      <trkpt lat="48.4241" lon="7.40076">
        <ele>741.64469217246</ele>
        <time>2022-04-28T15:59:04.844Z</time>
      </trkpt>
      <trkpt lat="48.42431" lon="7.40045">
        <ele>743.04265643352</ele>
        <time>2022-04-28T15:59:12.230Z</time>
      </trkpt>
      <trkpt lat="48.42501" lon="7.39964">
        <ele>744.49602255859</ele>
        <time>2022-04-28T15:59:19.630Z</time>
      </trkpt>
      <trkpt lat="48.42513" lon="7.39954">
        <ele>745.84924484897</ele>
        <time>2022-04-28T15:59:27.032Z</time>
      </trkpt>
      <trkpt lat="48.42529" lon="7.39945">
        <ele>747.23446481212</ele>
        <time>2022-04-28T15:59:34.437Z</time>
      </trkpt>
      <trkpt lat="48.42548" lon="7.39942">
        <ele>748.63166295187</ele>
        <time>2022-04-28T15:59:41.845Z</time>
      </trkpt>
      <trkpt lat="48.42567" lon="7.39947">
        <ele>750.10409962701</ele>
        <time>2022-04-28T15:59:49.256Z</time>
      </trkpt>
      <trkpt lat="48.42586" lon="7.39961">
        <ele>751.61494890845</ele>
        <time>2022-04-28T15:59:56.671Z</time>
      </trkpt>
      <trkpt lat="48.42604" lon="7.3998">
        <ele>753.07905793429</ele>
        <time>2022-04-28T16:00:04.089Z</time>
      </trkpt>
      <trkpt lat="48.42616" lon="7.39995">
        <ele>754.48337059138</ele>
        <time>2022-04-28T16:00:11.510Z</time>
      </trkpt>
      <trkpt lat="48.42649" lon="7.40044">
        <ele>755.86280185715</ele>
        <time>2022-04-28T16:00:18.938Z</time>
      </trkpt>
      <trkpt lat="48.42683" lon="7.40085">
        <ele>757.12224331857</ele>
        <time>2022-04-28T16:00:26.373Z</time>
      </trkpt>
      <trkpt lat="48.42704" lon="7.40099">
        <ele>758.25331582812</ele>
        <time>2022-04-28T16:00:33.812Z</time>
      </trkpt>
      <trkpt lat="48.42726" lon="7.40111">
        <ele>759.38626166762</ele>
        <time>2022-04-28T16:00:41.255Z</time>
      </trkpt>
      <trkpt lat="48.42741" lon="7.40112">
        <ele>760.45268177161</ele>
        <time>2022-04-28T16:00:48.700Z</time>
      </trkpt>
      <trkpt lat="48.42759" lon="7.40109">
        <ele>761.49416754294</ele>
        <time>2022-04-28T16:00:56.148Z</time>
      </trkpt>
      <trkpt lat="48.42769" lon="7.40104">
        <ele>762.37084012021</ele>
        <time>2022-04-28T16:01:03.597Z</time>
      </trkpt>
      <trkpt lat="48.4278" lon="7.40094">
        <ele>763.11852972167</ele>
        <time>2022-04-28T16:01:11.048Z</time>
      </trkpt>
      <trkpt lat="48.42791" lon="7.40075">
        <ele>763.74299661029</ele>
        <time>2022-04-28T16:01:18.502Z</time>
      </trkpt>
      <trkpt lat="48.4282" lon="7.4001">
        <ele>764.10935797653</ele>
        <time>2022-04-28T16:01:25.965Z</time>
      </trkpt>
      <trkpt lat="48.42862" lon="7.39946">
        <ele>764.55985662825</ele>
        <time>2022-04-28T16:01:33.437Z</time>
      </trkpt>
      <trkpt lat="48.42884" lon="7.39923">
        <ele>764.9851578126</ele>
        <time>2022-04-28T16:01:40.913Z</time>
      </trkpt>
      <trkpt lat="48.42885" lon="7.39931">
        <ele>765.28184162144</ele>
        <time>2022-04-28T16:01:48.390Z</time>
      </trkpt>
      <trkpt lat="48.42885" lon="7.39942">
        <ele>765.48091178311</ele>
        <time>2022-04-28T16:01:55.869Z</time>
      </trkpt>
      <trkpt lat="48.42887" lon="7.39964">
        <ele>765.6418117932</ele>
        <time>2022-04-28T16:02:03.350Z</time>
      </trkpt>
      <trkpt lat="48.42887" lon="7.39964">
        <ele>765.60179807143</ele>
        <time>2022-04-28T16:02:10.831Z</time>
      </trkpt>
      <trkpt lat="48.42885" lon="7.39942">
        <ele>765.48091178311</ele>
        <time>2022-04-28T16:02:18.314Z</time>
      </trkpt>
      <trkpt lat="48.42885" lon="7.39931">
        <ele>765.28184162144</ele>
        <time>2022-04-28T16:02:25.798Z</time>
      </trkpt>
      <trkpt lat="48.42884" lon="7.39923">
        <ele>764.9851578126</ele>
        <time>2022-04-28T16:02:33.283Z</time>
      </trkpt>
      <trkpt lat="48.42884" lon="7.39923">
        <ele>764.37069941886</ele>
        <time>2022-04-28T16:02:40.768Z</time>
      </trkpt>
      <trkpt lat="48.42894" lon="7.39917">
        <ele>763.93467015337</ele>
        <time>2022-04-28T16:02:48.255Z</time>
      </trkpt>
      <trkpt lat="48.42937" lon="7.399">
        <ele>763.46523976204</ele>
        <time>2022-04-28T16:02:55.749Z</time>
      </trkpt>
      <trkpt lat="48.42937" lon="7.399">
        <ele>762.85510579848</ele>
        <time>2022-04-28T16:03:03.243Z</time>
      </trkpt>
      <trkpt lat="48.42958" lon="7.399">
        <ele>762.17846328731</ele>
        <time>2022-04-28T16:03:10.741Z</time>
      </trkpt>
      <trkpt lat="48.42976" lon="7.39914">
        <ele>761.46237405044</ele>
        <time>2022-04-28T16:03:18.242Z</time>
      </trkpt>
      <trkpt lat="48.43008" lon="7.39954">
        <ele>760.77199420926</ele>
        <time>2022-04-28T16:03:25.750Z</time>
      </trkpt>
      <trkpt lat="48.43032" lon="7.3999">
        <ele>759.84784690689</ele>
        <time>2022-04-28T16:03:33.263Z</time>
      </trkpt>
      <trkpt lat="48.4305" lon="7.40012">
        <ele>758.86333118338</ele>
        <time>2022-04-28T16:03:40.780Z</time>
      </trkpt>
      <trkpt lat="48.43059" lon="7.40019">
        <ele>757.93394613553</ele>
        <time>2022-04-28T16:03:48.298Z</time>
      </trkpt>
      <trkpt lat="48.43059" lon="7.40019">
        <ele>757.06183412929</ele>
        <time>2022-04-28T16:03:55.816Z</time>
      </trkpt>
      <trkpt lat="48.43101" lon="7.40048">
        <ele>756.0605635032</ele>
        <time>2022-04-28T16:04:03.342Z</time>
      </trkpt>
      <trkpt lat="48.43115" lon="7.40054">
        <ele>755.2012540024</ele>
        <time>2022-04-28T16:04:10.870Z</time>
      </trkpt>
      <trkpt lat="48.43127" lon="7.40056">
        <ele>754.36505708277</ele>
        <time>2022-04-28T16:04:18.400Z</time>
      </trkpt>
      <trkpt lat="48.43166" lon="7.40044">
        <ele>753.31787035486</ele>
        <time>2022-04-28T16:04:25.936Z</time>
      </trkpt>
      <trkpt lat="48.43177" lon="7.40044">
        <ele>752.60287949455</ele>
        <time>2022-04-28T16:04:33.474Z</time>
      </trkpt>
      <trkpt lat="48.432" lon="7.4005">
        <ele>751.98628749981</ele>
        <time>2022-04-28T16:04:41.016Z</time>
      </trkpt>
      <trkpt lat="48.43274" lon="7.40073">
        <ele>751.2851584139</ele>
        <time>2022-04-28T16:04:48.570Z</time>
      </trkpt>
      <trkpt lat="48.4328" lon="7.40073">
        <ele>750.85335516642</ele>
        <time>2022-04-28T16:04:56.125Z</time>
      </trkpt>
      <trkpt lat="48.43281" lon="7.40077">
        <ele>750.59693039877</ele>
        <time>2022-04-28T16:05:03.680Z</time>
      </trkpt>
      <trkpt lat="48.43286" lon="7.4008">
        <ele>750.41058119039</ele>
        <time>2022-04-28T16:05:11.236Z</time>
      </trkpt>
      <trkpt lat="48.43293" lon="7.40076">
        <ele>750.25457902724</ele>
        <time>2022-04-28T16:05:18.793Z</time>
      </trkpt>
      <trkpt lat="48.43311" lon="7.40086">
        <ele>750.31717568689</ele>
        <time>2022-04-28T16:05:26.353Z</time>
      </trkpt>
      <trkpt lat="48.43311" lon="7.40086">
        <ele>750.45799158383</ele>
        <time>2022-04-28T16:05:33.913Z</time>
      </trkpt>
      <trkpt lat="48.4333" lon="7.40094">
        <ele>750.76055423555</ele>
        <time>2022-04-28T16:05:41.477Z</time>
      </trkpt>
      <trkpt lat="48.43387" lon="7.40136">
        <ele>751.46055293305</ele>
        <time>2022-04-28T16:05:49.051Z</time>
      </trkpt>
      <trkpt lat="48.43416" lon="7.40164">
        <ele>751.88119470593</ele>
        <time>2022-04-28T16:05:56.630Z</time>
      </trkpt>
      <trkpt lat="48.43457" lon="7.40212">
        <ele>752.58712064656</ele>
        <time>2022-04-28T16:06:04.218Z</time>
      </trkpt>
      <trkpt lat="48.43475" lon="7.40224">
        <ele>753.05106434408</ele>
        <time>2022-04-28T16:06:11.809Z</time>
      </trkpt>
      <trkpt lat="48.43475" lon="7.40224">
        <ele>753.55140630337</ele>
        <time>2022-04-28T16:06:19.400Z</time>
      </trkpt>
      <trkpt lat="48.43488" lon="7.40224">
        <ele>754.03250383557</ele>
        <time>2022-04-28T16:06:26.993Z</time>
      </trkpt>
      <trkpt lat="48.43488" lon="7.40224">
        <ele>754.59018020806</ele>
        <time>2022-04-28T16:06:34.586Z</time>
      </trkpt>
      <trkpt lat="48.43505" lon="7.40217">
        <ele>755.07618480712</ele>
        <time>2022-04-28T16:06:42.182Z</time>
      </trkpt>
      <trkpt lat="48.43514" lon="7.40211">
        <ele>755.61874768856</ele>
        <time>2022-04-28T16:06:49.779Z</time>
      </trkpt>
      <trkpt lat="48.43537" lon="7.40208">
        <ele>756.10808130926</ele>
        <time>2022-04-28T16:06:57.380Z</time>
      </trkpt>
      <trkpt lat="48.4356" lon="7.4022">
        <ele>756.76856702506</ele>
        <time>2022-04-28T16:07:04.985Z</time>
      </trkpt>
      <trkpt lat="48.43583" lon="7.40239">
        <ele>757.38181508117</ele>
        <time>2022-04-28T16:07:12.594Z</time>
      </trkpt>
      <trkpt lat="48.43586" lon="7.40247">
        <ele>757.98464357477</ele>
        <time>2022-04-28T16:07:20.204Z</time>
      </trkpt>
      <trkpt lat="48.43592" lon="7.40255">
        <ele>758.55573966795</ele>
        <time>2022-04-28T16:07:27.815Z</time>
      </trkpt>
      <trkpt lat="48.43661" lon="7.40333">
        <ele>759.29779430117</ele>
        <time>2022-04-28T16:07:35.440Z</time>
      </trkpt>
      <trkpt lat="48.43668" lon="7.40315">
        <ele>759.68662760298</ele>
        <time>2022-04-28T16:07:43.067Z</time>
      </trkpt>
      <trkpt lat="48.43673" lon="7.40321">
        <ele>760.00314909172</ele>
        <time>2022-04-28T16:07:50.695Z</time>
      </trkpt>
      <trkpt lat="48.4371" lon="7.40358">
        <ele>760.29860320931</ele>
        <time>2022-04-28T16:07:58.330Z</time>
      </trkpt>
      <trkpt lat="48.43712" lon="7.40359">
        <ele>760.45949563408</ele>
        <time>2022-04-28T16:08:05.966Z</time>
      </trkpt>
      <trkpt lat="48.43712" lon="7.40359">
        <ele>760.52851587207</ele>
        <time>2022-04-28T16:08:13.602Z</time>
      </trkpt>
      <trkpt lat="48.4377" lon="7.404">
        <ele>760.36633363022</ele>
        <time>2022-04-28T16:08:21.248Z</time>
      </trkpt>
      <trkpt lat="48.43783" lon="7.40412">
        <ele>760.11582960269</ele>
        <time>2022-04-28T16:08:28.897Z</time>
      </trkpt>
      <trkpt lat="48.43794" lon="7.40426">
        <ele>759.85416078303</ele>
        <time>2022-04-28T16:08:36.548Z</time>
      </trkpt>
      <trkpt lat="48.43794" lon="7.40426">
        <ele>759.63669460479</ele>
        <time>2022-04-28T16:08:44.199Z</time>
      </trkpt>
      <trkpt lat="48.43809" lon="7.40453">
        <ele>759.26972986855</ele>
        <time>2022-04-28T16:08:51.854Z</time>
      </trkpt>
      <trkpt lat="48.43816" lon="7.40475">
        <ele>758.95588187112</ele>
        <time>2022-04-28T16:08:59.511Z</time>
      </trkpt>
      <trkpt lat="48.4382" lon="7.40479">
        <ele>758.43605066912</ele>
        <time>2022-04-28T16:09:07.169Z</time>
      </trkpt>
      <trkpt lat="48.43822" lon="7.40479">
        <ele>757.19451877396</ele>
        <time>2022-04-28T16:09:14.827Z</time>
      </trkpt>
      <trkpt lat="48.43826" lon="7.40473">
        <ele>756.31654490677</ele>
        <time>2022-04-28T16:09:22.486Z</time>
      </trkpt>
      <trkpt lat="48.43824" lon="7.40462">
        <ele>755.4721676706</ele>
        <time>2022-04-28T16:09:30.146Z</time>
      </trkpt>
      <trkpt lat="48.43816" lon="7.4045">
        <ele>754.6524332234</ele>
        <time>2022-04-28T16:09:37.808Z</time>
      </trkpt>
      <trkpt lat="48.438" lon="7.40414">
        <ele>753.68848919012</ele>
        <time>2022-04-28T16:09:45.475Z</time>
      </trkpt>
      <trkpt lat="48.43762" lon="7.4036">
        <ele>752.74889598212</ele>
        <time>2022-04-28T16:09:53.150Z</time>
      </trkpt>
      <trkpt lat="48.43742" lon="7.40339">
        <ele>751.57675744857</ele>
        <time>2022-04-28T16:10:00.829Z</time>
      </trkpt>
      <trkpt lat="48.43741" lon="7.40333">
        <ele>750.2320799034</ele>
        <time>2022-04-28T16:10:08.509Z</time>
      </trkpt>
      <trkpt lat="48.43741" lon="7.40325">
        <ele>748.79092557803</ele>
        <time>2022-04-28T16:10:16.189Z</time>
      </trkpt>
      <trkpt lat="48.43744" lon="7.40324">
        <ele>747.28340435428</ele>
        <time>2022-04-28T16:10:23.870Z</time>
      </trkpt>
      <trkpt lat="48.43748" lon="7.40325">
        <ele>745.71900352934</ele>
        <time>2022-04-28T16:10:31.551Z</time>
      </trkpt>
      <trkpt lat="48.43798" lon="7.4038">
        <ele>743.94265359112</ele>
        <time>2022-04-28T16:10:39.242Z</time>
      </trkpt>
      <trkpt lat="48.43826" lon="7.40415">
        <ele>742.03809062696</ele>
        <time>2022-04-28T16:10:46.939Z</time>
      </trkpt>
      <trkpt lat="48.43847" lon="7.40456">
        <ele>740.32001339764</ele>
        <time>2022-04-28T16:10:54.642Z</time>
      </trkpt>
      <trkpt lat="48.4386" lon="7.40496">
        <ele>738.74913116781</ele>
        <time>2022-04-28T16:11:02.350Z</time>
      </trkpt>
      <trkpt lat="48.43871" lon="7.40531">
        <ele>736.76093627437</ele>
        <time>2022-04-28T16:11:10.062Z</time>
      </trkpt>
      <trkpt lat="48.43882" lon="7.40586">
        <ele>734.72307637683</ele>
        <time>2022-04-28T16:11:17.780Z</time>
      </trkpt>
      <trkpt lat="48.43881" lon="7.40633">
        <ele>732.8596825791</ele>
        <time>2022-04-28T16:11:25.503Z</time>
      </trkpt>
      <trkpt lat="48.43876" lon="7.40646">
        <ele>731.23056382967</ele>
        <time>2022-04-28T16:11:33.227Z</time>
      </trkpt>
      <trkpt lat="48.43876" lon="7.40646">
        <ele>729.54031219224</ele>
        <time>2022-04-28T16:11:40.951Z</time>
      </trkpt>
      <trkpt lat="48.43869" lon="7.40665">
        <ele>727.73899460487</ele>
        <time>2022-04-28T16:11:48.678Z</time>
      </trkpt>
      <trkpt lat="48.43854" lon="7.40683">
        <ele>725.74673379853</ele>
        <time>2022-04-28T16:11:56.408Z</time>
      </trkpt>
      <trkpt lat="48.43825" lon="7.40694">
        <ele>723.82360909618</ele>
        <time>2022-04-28T16:12:04.143Z</time>
      </trkpt>
      <trkpt lat="48.43799" lon="7.40698">
        <ele>722.22705538461</ele>
        <time>2022-04-28T16:12:11.882Z</time>
      </trkpt>
      <trkpt lat="48.43774" lon="7.40693">
        <ele>720.91370836014</ele>
        <time>2022-04-28T16:12:19.625Z</time>
      </trkpt>
      <trkpt lat="48.43756" lon="7.40682">
        <ele>719.56964285619</ele>
        <time>2022-04-28T16:12:27.371Z</time>
      </trkpt>
      <trkpt lat="48.43729" lon="7.40658">
        <ele>717.92060601176</ele>
        <time>2022-04-28T16:12:35.122Z</time>
      </trkpt>
      <trkpt lat="48.43695" lon="7.40616">
        <ele>715.90644147402</ele>
        <time>2022-04-28T16:12:42.880Z</time>
      </trkpt>
      <trkpt lat="48.43663" lon="7.40569">
        <ele>714.20696832509</ele>
        <time>2022-04-28T16:12:50.645Z</time>
      </trkpt>
      <trkpt lat="48.43627" lon="7.40525">
        <ele>712.59704572941</ele>
        <time>2022-04-28T16:12:58.418Z</time>
      </trkpt>
      <trkpt lat="48.43583" lon="7.40484">
        <ele>710.89168762992</ele>
        <time>2022-04-28T16:13:06.199Z</time>
      </trkpt>
      <trkpt lat="48.43508" lon="7.4043">
        <ele>708.80167458363</ele>
        <time>2022-04-28T16:13:13.993Z</time>
      </trkpt>
      <trkpt lat="48.43491" lon="7.4042">
        <ele>706.81634354793</ele>
        <time>2022-04-28T16:13:21.790Z</time>
      </trkpt>
      <trkpt lat="48.43474" lon="7.40411">
        <ele>704.57590910288</ele>
        <time>2022-04-28T16:13:29.590Z</time>
      </trkpt>
      <trkpt lat="48.43447" lon="7.40408">
        <ele>701.82813598849</ele>
        <time>2022-04-28T16:13:37.394Z</time>
      </trkpt>
      <trkpt lat="48.43402" lon="7.40409">
        <ele>699.53344715523</ele>
        <time>2022-04-28T16:13:45.206Z</time>
      </trkpt>
      <trkpt lat="48.4334" lon="7.4042">
        <ele>697.06750991182</ele>
        <time>2022-04-28T16:13:53.028Z</time>
      </trkpt>
      <trkpt lat="48.43313" lon="7.40432">
        <ele>694.53885589003</ele>
        <time>2022-04-28T16:14:00.854Z</time>
      </trkpt>
      <trkpt lat="48.43276" lon="7.40454">
        <ele>691.9092455374</ele>
        <time>2022-04-28T16:14:08.686Z</time>
      </trkpt>
      <trkpt lat="48.43233" lon="7.40494">
        <ele>689.53262476129</ele>
        <time>2022-04-28T16:14:16.527Z</time>
      </trkpt>
      <trkpt lat="48.43233" lon="7.40494">
        <ele>686.97718888915</ele>
        <time>2022-04-28T16:14:24.368Z</time>
      </trkpt>
      <trkpt lat="48.43223" lon="7.40506">
        <ele>684.37819206429</ele>
        <time>2022-04-28T16:14:32.211Z</time>
      </trkpt>
      <trkpt lat="48.43221" lon="7.4052">
        <ele>681.29314821392</ele>
        <time>2022-04-28T16:14:40.055Z</time>
      </trkpt>
      <trkpt lat="48.43223" lon="7.40531">
        <ele>678.12471311088</ele>
        <time>2022-04-28T16:14:47.900Z</time>
      </trkpt>
      <trkpt lat="48.43248" lon="7.40589">
        <ele>674.30082862642</ele>
        <time>2022-04-28T16:14:55.753Z</time>
      </trkpt>
      <trkpt lat="48.43263" lon="7.40637">
        <ele>671.4848532448</ele>
        <time>2022-04-28T16:15:03.611Z</time>
      </trkpt>
      <trkpt lat="48.43273" lon="7.4068">
        <ele>668.44585534974</ele>
        <time>2022-04-28T16:15:11.474Z</time>
      </trkpt>
      <trkpt lat="48.43279" lon="7.40727">
        <ele>665.74771395934</ele>
        <time>2022-04-28T16:15:19.342Z</time>
      </trkpt>
      <trkpt lat="48.4328" lon="7.4077">
        <ele>663.22451021003</ele>
        <time>2022-04-28T16:15:27.215Z</time>
      </trkpt>
      <trkpt lat="48.43277" lon="7.40801">
        <ele>660.77798252023</ele>
        <time>2022-04-28T16:15:35.091Z</time>
      </trkpt>
      <trkpt lat="48.43258" lon="7.40883">
        <ele>658.27203910783</ele>
        <time>2022-04-28T16:15:42.976Z</time>
      </trkpt>
      <trkpt lat="48.43228" lon="7.40947">
        <ele>655.6809121699</ele>
        <time>2022-04-28T16:15:50.870Z</time>
      </trkpt>
      <trkpt lat="48.43192" lon="7.41006">
        <ele>652.89959797448</ele>
        <time>2022-04-28T16:15:58.772Z</time>
      </trkpt>
      <trkpt lat="48.43167" lon="7.41053">
        <ele>650.33810980973</ele>
        <time>2022-04-28T16:16:06.681Z</time>
      </trkpt>
      <trkpt lat="48.4314" lon="7.41092">
        <ele>647.96292701877</ele>
        <time>2022-04-28T16:16:14.596Z</time>
      </trkpt>
      <trkpt lat="48.43135" lon="7.41113">
        <ele>644.7193936373</ele>
        <time>2022-04-28T16:16:22.513Z</time>
      </trkpt>
      <trkpt lat="48.43131" lon="7.41186">
        <ele>640.59525434359</ele>
        <time>2022-04-28T16:16:30.438Z</time>
      </trkpt>
      <trkpt lat="48.43124" lon="7.41262">
        <ele>636.86791872002</ele>
        <time>2022-04-28T16:16:38.371Z</time>
      </trkpt>
      <trkpt lat="48.43123" lon="7.41297">
        <ele>633.72153859294</ele>
        <time>2022-04-28T16:16:46.308Z</time>
      </trkpt>
      <trkpt lat="48.4313" lon="7.41333">
        <ele>630.05107627005</ele>
        <time>2022-04-28T16:16:54.249Z</time>
      </trkpt>
      <trkpt lat="48.4314" lon="7.41372">
        <ele>626.05469042725</ele>
        <time>2022-04-28T16:17:02.194Z</time>
      </trkpt>
      <trkpt lat="48.43155" lon="7.41405">
        <ele>621.53046096136</ele>
        <time>2022-04-28T16:17:10.144Z</time>
      </trkpt>
      <trkpt lat="48.43169" lon="7.41427">
        <ele>616.68330724014</ele>
        <time>2022-04-28T16:17:18.097Z</time>
      </trkpt>
      <trkpt lat="48.4323" lon="7.41482">
        <ele>611.29858431353</ele>
        <time>2022-04-28T16:17:26.061Z</time>
      </trkpt>
      <trkpt lat="48.4323" lon="7.41482">
        <ele>606.63101568886</ele>
        <time>2022-04-28T16:17:34.025Z</time>
      </trkpt>
      <trkpt lat="48.43361" lon="7.41602">
        <ele>600.47495608923</ele>
        <time>2022-04-28T16:17:42.014Z</time>
      </trkpt>
      <trkpt lat="48.43379" lon="7.41622">
        <ele>596.71333681919</ele>
        <time>2022-04-28T16:17:50.006Z</time>
      </trkpt>
      <trkpt lat="48.43398" lon="7.41655">
        <ele>592.9496293651</ele>
        <time>2022-04-28T16:17:58.003Z</time>
      </trkpt>
      <trkpt lat="48.43442" lon="7.41753">
        <ele>588.45064530825</ele>
        <time>2022-04-28T16:18:06.013Z</time>
      </trkpt>
      <trkpt lat="48.43454" lon="7.4177">
        <ele>585.04293561956</ele>
        <time>2022-04-28T16:18:14.025Z</time>
      </trkpt>
      <trkpt lat="48.4346" lon="7.41783">
        <ele>580.7738048288</ele>
        <time>2022-04-28T16:18:22.039Z</time>
      </trkpt>
      <trkpt lat="48.43463" lon="7.41774">
        <ele>579.87524919357</ele>
        <time>2022-04-28T16:18:30.054Z</time>
      </trkpt>
    </trkseg>
  </trk>
</gpx>